<?xml version="1.0" encoding="UTF-8"?>
<gpx version="1.0" creator="Trackator" xmlns:xsi="http://www.w3.org/2001/XMLSchema-instance" xmlns="http://www.topografix.com/GPX/1/0" xmlns:topografix="http://www.topografix.com/GPX/Private/TopoGrafix/0/1" xsi:schemaLocation="http://www.topografix.com/GPX/1/0 http://www.topografix.com/GPX/1/0/gpx.xsd http://www.topografix.com/GPX/Private/TopoGrafix/0/1 http://www.topografix.com/GPX/Private/TopoGrafix/0/1/topografix.xsd">
<metadata>
<link href="http://www.trackalia.com/trackatorweb.php">
<text>Trackator</text>
</link>
</metadata>
<time>2017-12-10T12:38:14Z</time>
<trk>
<name>Track: </name>
<desc>4x4-SUV</desc>
<trkseg>
<trkpt lat="53.8909420" lon="15.7042935">
<ele>89</ele>
<time>2017-12-10T12:38:14Z</time>
</trkpt>
<trkpt lat="53.8909420" lon="15.7042935">
<ele>89</ele>
<time>2017-12-10T12:38:20Z</time>
</trkpt>
<trkpt lat="53.8909420" lon="15.7042935">
<ele>89</ele>
<time>2017-12-10T12:38:26Z</time>
</trkpt>
<trkpt lat="53.8909420" lon="15.7042935">
<ele>89</ele>
<time>2017-12-10T12:38:32Z</time>
</trkpt>
<trkpt lat="53.8909420" lon="15.7042935">
<ele>89</ele>
<time>2017-12-10T12:38:38Z</time>
</trkpt>
<trkpt lat="53.8909420" lon="15.7042935">
<ele>89</ele>
<time>2017-12-10T12:38:44Z</time>
</trkpt>
<trkpt lat="53.8909420" lon="15.7042935">
<ele>89</ele>
<time>2017-12-10T12:38:50Z</time>
</trkpt>
<trkpt lat="53.8909420" lon="15.7042935">
<ele>89</ele>
<time>2017-12-10T12:38:56Z</time>
</trkpt>
<trkpt lat="53.8909420" lon="15.7042935">
<ele>89</ele>
<time>2017-12-10T12:39:02Z</time>
</trkpt>
<trkpt lat="53.8909420" lon="15.7042935">
<ele>89</ele>
<time>2017-12-10T12:39:08Z</time>
</trkpt>
<trkpt lat="53.8909420" lon="15.7042935">
<ele>89</ele>
<time>2017-12-10T12:39:14Z</time>
</trkpt>
<trkpt lat="53.8909420" lon="15.7042935">
<ele>89</ele>
<time>2017-12-10T12:39:20Z</time>
</trkpt>
<trkpt lat="53.8909420" lon="15.7042935">
<ele>89</ele>
<time>2017-12-10T12:39:26Z</time>
</trkpt>
<trkpt lat="53.8909420" lon="15.7042935">
<ele>89</ele>
<time>2017-12-10T12:39:32Z</time>
</trkpt>
<trkpt lat="53.8909420" lon="15.7042935">
<ele>89</ele>
<time>2017-12-10T12:39:38Z</time>
</trkpt>
<trkpt lat="53.8909420" lon="15.7042935">
<ele>89</ele>
<time>2017-12-10T12:39:44Z</time>
</trkpt>
<trkpt lat="53.8909420" lon="15.7042935">
<ele>89</ele>
<time>2017-12-10T12:39:50Z</time>
</trkpt>
<trkpt lat="53.8909420" lon="15.7042935">
<ele>89</ele>
<time>2017-12-10T12:39:56Z</time>
</trkpt>
<trkpt lat="53.8909420" lon="15.7042935">
<ele>89</ele>
<time>2017-12-10T12:40:02Z</time>
</trkpt>
<trkpt lat="53.8909420" lon="15.7042935">
<ele>89</ele>
<time>2017-12-10T12:40:08Z</time>
</trkpt>
<trkpt lat="53.8909420" lon="15.7042935">
<ele>89</ele>
<time>2017-12-10T12:40:14Z</time>
</trkpt>
<trkpt lat="53.8909420" lon="15.7042935">
<ele>89</ele>
<time>2017-12-10T12:40:20Z</time>
</trkpt>
<trkpt lat="53.8909420" lon="15.7042935">
<ele>89</ele>
<time>2017-12-10T12:40:26Z</time>
</trkpt>
<trkpt lat="53.8909420" lon="15.7042935">
<ele>89</ele>
<time>2017-12-10T12:40:32Z</time>
</trkpt>
<trkpt lat="53.8909420" lon="15.7042935">
<ele>89</ele>
<time>2017-12-10T12:40:38Z</time>
</trkpt>
<trkpt lat="53.8909420" lon="15.7042935">
<ele>89</ele>
<time>2017-12-10T12:40:44Z</time>
</trkpt>
<trkpt lat="53.8909420" lon="15.7042935">
<ele>89</ele>
<time>2017-12-10T12:40:50Z</time>
</trkpt>
<trkpt lat="53.8909420" lon="15.7042935">
<ele>89</ele>
<time>2017-12-10T12:40:56Z</time>
</trkpt>
<trkpt lat="53.8909420" lon="15.7042935">
<ele>89</ele>
<time>2017-12-10T12:41:02Z</time>
</trkpt>
<trkpt lat="53.8909420" lon="15.7042935">
<ele>89</ele>
<time>2017-12-10T12:41:08Z</time>
</trkpt>
<trkpt lat="53.8909420" lon="15.7042935">
<ele>89</ele>
<time>2017-12-10T12:41:14Z</time>
</trkpt>
<trkpt lat="53.8909420" lon="15.7042935">
<ele>89</ele>
<time>2017-12-10T12:41:20Z</time>
</trkpt>
<trkpt lat="53.8909420" lon="15.7042935">
<ele>89</ele>
<time>2017-12-10T12:41:26Z</time>
</trkpt>
<trkpt lat="53.8909420" lon="15.7042935">
<ele>89</ele>
<time>2017-12-10T12:41:32Z</time>
</trkpt>
<trkpt lat="53.8909420" lon="15.7042935">
<ele>89</ele>
<time>2017-12-10T12:41:38Z</time>
</trkpt>
<trkpt lat="53.8909420" lon="15.7042935">
<ele>89</ele>
<time>2017-12-10T12:41:44Z</time>
</trkpt>
<trkpt lat="53.8909420" lon="15.7042935">
<ele>89</ele>
<time>2017-12-10T12:41:50Z</time>
</trkpt>
<trkpt lat="53.8909420" lon="15.7042935">
<ele>89</ele>
<time>2017-12-10T12:41:56Z</time>
</trkpt>
<trkpt lat="53.8909420" lon="15.7042935">
<ele>89</ele>
<time>2017-12-10T12:42:02Z</time>
</trkpt>
<trkpt lat="53.8909420" lon="15.7042935">
<ele>89</ele>
<time>2017-12-10T12:42:08Z</time>
</trkpt>
<trkpt lat="53.8909420" lon="15.7042935">
<ele>89</ele>
<time>2017-12-10T12:42:14Z</time>
</trkpt>
<trkpt lat="53.8909420" lon="15.7042935">
<ele>89</ele>
<time>2017-12-10T12:42:20Z</time>
</trkpt>
<trkpt lat="53.8909420" lon="15.7042935">
<ele>89</ele>
<time>2017-12-10T12:42:26Z</time>
</trkpt>
<trkpt lat="53.8909420" lon="15.7042935">
<ele>89</ele>
<time>2017-12-10T12:42:32Z</time>
</trkpt>
<trkpt lat="53.8909420" lon="15.7042935">
<ele>89</ele>
<time>2017-12-10T12:42:38Z</time>
</trkpt>
<trkpt lat="53.8909420" lon="15.7042935">
<ele>89</ele>
<time>2017-12-10T12:42:44Z</time>
</trkpt>
<trkpt lat="53.8909420" lon="15.7042935">
<ele>89</ele>
<time>2017-12-10T12:42:50Z</time>
</trkpt>
<trkpt lat="53.8909420" lon="15.7042935">
<ele>89</ele>
<time>2017-12-10T12:42:56Z</time>
</trkpt>
<trkpt lat="53.8909420" lon="15.7042935">
<ele>89</ele>
<time>2017-12-10T12:43:02Z</time>
</trkpt>
<trkpt lat="53.8909420" lon="15.7042935">
<ele>89</ele>
<time>2017-12-10T12:43:08Z</time>
</trkpt>
<trkpt lat="53.8909420" lon="15.7042935">
<ele>89</ele>
<time>2017-12-10T12:43:14Z</time>
</trkpt>
<trkpt lat="53.8909420" lon="15.7042935">
<ele>89</ele>
<time>2017-12-10T12:43:20Z</time>
</trkpt>
<trkpt lat="53.8909420" lon="15.7042935">
<ele>89</ele>
<time>2017-12-10T12:43:26Z</time>
</trkpt>
<trkpt lat="53.8909420" lon="15.7042935">
<ele>89</ele>
<time>2017-12-10T12:43:32Z</time>
</trkpt>
<trkpt lat="53.8909420" lon="15.7042935">
<ele>89</ele>
<time>2017-12-10T12:43:38Z</time>
</trkpt>
<trkpt lat="53.8909420" lon="15.7042935">
<ele>89</ele>
<time>2017-12-10T12:43:44Z</time>
</trkpt>
<trkpt lat="53.8909420" lon="15.7042935">
<ele>89</ele>
<time>2017-12-10T12:43:50Z</time>
</trkpt>
<trkpt lat="53.8909420" lon="15.7042935">
<ele>89</ele>
<time>2017-12-10T12:43:56Z</time>
</trkpt>
<trkpt lat="53.8909420" lon="15.7042935">
<ele>89</ele>
<time>2017-12-10T12:44:02Z</time>
</trkpt>
<trkpt lat="53.8909420" lon="15.7042935">
<ele>89</ele>
<time>2017-12-10T12:44:08Z</time>
</trkpt>
<trkpt lat="53.8909420" lon="15.7042935">
<ele>89</ele>
<time>2017-12-10T12:44:14Z</time>
</trkpt>
<trkpt lat="53.8909420" lon="15.7042935">
<ele>89</ele>
<time>2017-12-10T12:44:20Z</time>
</trkpt>
<trkpt lat="53.8909420" lon="15.7042935">
<ele>89</ele>
<time>2017-12-10T12:44:26Z</time>
</trkpt>
<trkpt lat="53.8909115" lon="15.7043027">
<ele>89</ele>
<time>2017-12-10T12:44:32Z</time>
</trkpt>
<trkpt lat="53.8908850" lon="15.7042724">
<ele>89</ele>
<time>2017-12-10T12:44:38Z</time>
</trkpt>
<trkpt lat="53.8909042" lon="15.7044625">
<ele>90</ele>
<time>2017-12-10T12:44:44Z</time>
</trkpt>
<trkpt lat="53.8908764" lon="15.7046769">
<ele>89</ele>
<time>2017-12-10T12:44:50Z</time>
</trkpt>
<trkpt lat="53.8908807" lon="15.7048620">
<ele>89</ele>
<time>2017-12-10T12:44:56Z</time>
</trkpt>
<trkpt lat="53.8908888" lon="15.7050485">
<ele>91</ele>
<time>2017-12-10T12:45:02Z</time>
</trkpt>
<trkpt lat="53.8908044" lon="15.7051439">
<ele>96</ele>
<time>2017-12-10T12:45:08Z</time>
</trkpt>
<trkpt lat="53.8906608" lon="15.7051515">
<ele>95</ele>
<time>2017-12-10T12:45:14Z</time>
</trkpt>
<trkpt lat="53.8904653" lon="15.7051633">
<ele>92</ele>
<time>2017-12-10T12:45:20Z</time>
</trkpt>
<trkpt lat="53.8902530" lon="15.7052021">
<ele>92</ele>
<time>2017-12-10T12:45:26Z</time>
</trkpt>
<trkpt lat="53.8901192" lon="15.7052710">
<ele>92</ele>
<time>2017-12-10T12:45:32Z</time>
</trkpt>
<trkpt lat="53.8901054" lon="15.7055879">
<ele>93</ele>
<time>2017-12-10T12:45:38Z</time>
</trkpt>
<trkpt lat="53.8901830" lon="15.7062166">
<ele>94</ele>
<time>2017-12-10T12:45:44Z</time>
</trkpt>
<trkpt lat="53.8901863" lon="15.7068230">
<ele>96</ele>
<time>2017-12-10T12:45:50Z</time>
</trkpt>
<trkpt lat="53.8901224" lon="15.7074722">
<ele>94</ele>
<time>2017-12-10T12:45:56Z</time>
</trkpt>
<trkpt lat="53.8901800" lon="15.7081679">
<ele>94</ele>
<time>2017-12-10T12:46:02Z</time>
</trkpt>
<trkpt lat="53.8902907" lon="15.7089296">
<ele>94</ele>
<time>2017-12-10T12:46:08Z</time>
</trkpt>
<trkpt lat="53.8906081" lon="15.7095546">
<ele>95</ele>
<time>2017-12-10T12:46:14Z</time>
</trkpt>
<trkpt lat="53.8909623" lon="15.7102178">
<ele>94</ele>
<time>2017-12-10T12:46:20Z</time>
</trkpt>
<trkpt lat="53.8913025" lon="15.7109085">
<ele>94</ele>
<time>2017-12-10T12:46:26Z</time>
</trkpt>
<trkpt lat="53.8915471" lon="15.7114033">
<ele>96</ele>
<time>2017-12-10T12:46:32Z</time>
</trkpt>
<trkpt lat="53.8916135" lon="15.7115592">
<ele>96</ele>
<time>2017-12-10T12:46:38Z</time>
</trkpt>
<trkpt lat="53.8916214" lon="15.7116342">
<ele>97</ele>
<time>2017-12-10T12:46:44Z</time>
</trkpt>
<trkpt lat="53.8917181" lon="15.7119269">
<ele>94</ele>
<time>2017-12-10T12:46:50Z</time>
</trkpt>
<trkpt lat="53.8919230" lon="15.7123799">
<ele>94</ele>
<time>2017-12-10T12:46:56Z</time>
</trkpt>
<trkpt lat="53.8921377" lon="15.7129217">
<ele>94</ele>
<time>2017-12-10T12:47:02Z</time>
</trkpt>
<trkpt lat="53.8924074" lon="15.7136217">
<ele>93</ele>
<time>2017-12-10T12:47:08Z</time>
</trkpt>
<trkpt lat="53.8927331" lon="15.7144203">
<ele>92</ele>
<time>2017-12-10T12:47:14Z</time>
</trkpt>
<trkpt lat="53.8930888" lon="15.7152791">
<ele>92</ele>
<time>2017-12-10T12:47:20Z</time>
</trkpt>
<trkpt lat="53.8934553" lon="15.7162693">
<ele>92</ele>
<time>2017-12-10T12:47:26Z</time>
</trkpt>
<trkpt lat="53.8938439" lon="15.7172762">
<ele>93</ele>
<time>2017-12-10T12:47:32Z</time>
</trkpt>
<trkpt lat="53.8942733" lon="15.7184208">
<ele>93</ele>
<time>2017-12-10T12:47:38Z</time>
</trkpt>
<trkpt lat="53.8947601" lon="15.7197147">
<ele>93</ele>
<time>2017-12-10T12:47:44Z</time>
</trkpt>
<trkpt lat="53.8952711" lon="15.7210384">
<ele>93</ele>
<time>2017-12-10T12:47:50Z</time>
</trkpt>
<trkpt lat="53.8957867" lon="15.7224013">
<ele>93</ele>
<time>2017-12-10T12:47:56Z</time>
</trkpt>
<trkpt lat="53.8963072" lon="15.7237630">
<ele>93</ele>
<time>2017-12-10T12:48:02Z</time>
</trkpt>
<trkpt lat="53.8968096" lon="15.7251220">
<ele>94</ele>
<time>2017-12-10T12:48:08Z</time>
</trkpt>
<trkpt lat="53.8973128" lon="15.7264691">
<ele>94</ele>
<time>2017-12-10T12:48:14Z</time>
</trkpt>
<trkpt lat="53.8978201" lon="15.7277949">
<ele>94</ele>
<time>2017-12-10T12:48:20Z</time>
</trkpt>
<trkpt lat="53.8983332" lon="15.7291520">
<ele>94</ele>
<time>2017-12-10T12:48:26Z</time>
</trkpt>
<trkpt lat="53.8988387" lon="15.7305367">
<ele>95</ele>
<time>2017-12-10T12:48:32Z</time>
</trkpt>
<trkpt lat="53.8993567" lon="15.7319250">
<ele>93</ele>
<time>2017-12-10T12:48:38Z</time>
</trkpt>
<trkpt lat="53.8998718" lon="15.7333044">
<ele>93</ele>
<time>2017-12-10T12:48:44Z</time>
</trkpt>
<trkpt lat="53.9003799" lon="15.7346780">
<ele>92</ele>
<time>2017-12-10T12:48:50Z</time>
</trkpt>
<trkpt lat="53.9009518" lon="15.7360233">
<ele>91</ele>
<time>2017-12-10T12:48:56Z</time>
</trkpt>
<trkpt lat="53.9014994" lon="15.7373340">
<ele>90</ele>
<time>2017-12-10T12:49:02Z</time>
</trkpt>
<trkpt lat="53.9020392" lon="15.7386165">
<ele>91</ele>
<time>2017-12-10T12:49:08Z</time>
</trkpt>
<trkpt lat="53.9025664" lon="15.7398611">
<ele>93</ele>
<time>2017-12-10T12:49:14Z</time>
</trkpt>
<trkpt lat="53.9031668" lon="15.7410840">
<ele>95</ele>
<time>2017-12-10T12:49:20Z</time>
</trkpt>
<trkpt lat="53.9038715" lon="15.7422125">
<ele>96</ele>
<time>2017-12-10T12:49:26Z</time>
</trkpt>
<trkpt lat="53.9046056" lon="15.7434040">
<ele>98</ele>
<time>2017-12-10T12:49:32Z</time>
</trkpt>
<trkpt lat="53.9053249" lon="15.7445736">
<ele>100</ele>
<time>2017-12-10T12:49:38Z</time>
</trkpt>
<trkpt lat="53.9060455" lon="15.7457233">
<ele>103</ele>
<time>2017-12-10T12:49:44Z</time>
</trkpt>
<trkpt lat="53.9067183" lon="15.7469771">
<ele>103</ele>
<time>2017-12-10T12:49:50Z</time>
</trkpt>
<trkpt lat="53.9072806" lon="15.7483987">
<ele>104</ele>
<time>2017-12-10T12:49:56Z</time>
</trkpt>
<trkpt lat="53.9076918" lon="15.7499195">
<ele>104</ele>
<time>2017-12-10T12:50:02Z</time>
</trkpt>
<trkpt lat="53.9080706" lon="15.7514196">
<ele>103</ele>
<time>2017-12-10T12:50:08Z</time>
</trkpt>
<trkpt lat="53.9082288" lon="15.7530228">
<ele>103</ele>
<time>2017-12-10T12:50:14Z</time>
</trkpt>
<trkpt lat="53.9083061" lon="15.7546324">
<ele>102</ele>
<time>2017-12-10T12:50:20Z</time>
</trkpt>
<trkpt lat="53.9083867" lon="15.7562852">
<ele>101</ele>
<time>2017-12-10T12:50:26Z</time>
</trkpt>
<trkpt lat="53.9084930" lon="15.7579832">
<ele>101</ele>
<time>2017-12-10T12:50:32Z</time>
</trkpt>
<trkpt lat="53.9083211" lon="15.7596089">
<ele>103</ele>
<time>2017-12-10T12:50:38Z</time>
</trkpt>
<trkpt lat="53.9079300" lon="15.7612260">
<ele>102</ele>
<time>2017-12-10T12:50:44Z</time>
</trkpt>
<trkpt lat="53.9076734" lon="15.7626386">
<ele>103</ele>
<time>2017-12-10T12:50:50Z</time>
</trkpt>
<trkpt lat="53.9077208" lon="15.7639128">
<ele>104</ele>
<time>2017-12-10T12:50:56Z</time>
</trkpt>
<trkpt lat="53.9078786" lon="15.7651229">
<ele>104</ele>
<time>2017-12-10T12:51:02Z</time>
</trkpt>
<trkpt lat="53.9081111" lon="15.7662447">
<ele>104</ele>
<time>2017-12-10T12:51:08Z</time>
</trkpt>
<trkpt lat="53.9083474" lon="15.7673602">
<ele>103</ele>
<time>2017-12-10T12:51:14Z</time>
</trkpt>
<trkpt lat="53.9085409" lon="15.7684535">
<ele>103</ele>
<time>2017-12-10T12:51:20Z</time>
</trkpt>
<trkpt lat="53.9087173" lon="15.7696134">
<ele>104</ele>
<time>2017-12-10T12:51:26Z</time>
</trkpt>
<trkpt lat="53.9088999" lon="15.7707964">
<ele>105</ele>
<time>2017-12-10T12:51:32Z</time>
</trkpt>
<trkpt lat="53.9090775" lon="15.7719456">
<ele>105</ele>
<time>2017-12-10T12:51:38Z</time>
</trkpt>
<trkpt lat="53.9093924" lon="15.7729693">
<ele>106</ele>
<time>2017-12-10T12:51:44Z</time>
</trkpt>
<trkpt lat="53.9101539" lon="15.7732784">
<ele>107</ele>
<time>2017-12-10T12:51:50Z</time>
</trkpt>
<trkpt lat="53.9109473" lon="15.7736189">
<ele>104</ele>
<time>2017-12-10T12:51:56Z</time>
</trkpt>
<trkpt lat="53.9116402" lon="15.7745343">
<ele>102</ele>
<time>2017-12-10T12:52:02Z</time>
</trkpt>
<trkpt lat="53.9121872" lon="15.7758859">
<ele>101</ele>
<time>2017-12-10T12:52:08Z</time>
</trkpt>
<trkpt lat="53.9128819" lon="15.7773299">
<ele>101</ele>
<time>2017-12-10T12:52:14Z</time>
</trkpt>
<trkpt lat="53.9135933" lon="15.7787942">
<ele>98</ele>
<time>2017-12-10T12:52:20Z</time>
</trkpt>
<trkpt lat="53.9149971" lon="15.7816902">
<ele>91</ele>
<time>2017-12-10T12:52:32Z</time>
</trkpt>
<trkpt lat="53.9156948" lon="15.7831000">
<ele>89</ele>
<time>2017-12-10T12:52:38Z</time>
</trkpt>
<trkpt lat="53.9178" lon="15.7873">
<ele>82</ele>
<time>2017-12-10T12:52:56Z</time>
</trkpt>
<trkpt lat="53.9186" lon="15.7887">
<ele>80</ele>
<time>2017-12-10T12:53:02Z</time>
</trkpt>
<trkpt lat="53.9194" lon="15.7901">
<ele>78</ele>
<time>2017-12-10T12:53:08Z</time>
</trkpt>
<trkpt lat="53.9201" lon="15.7914">
<ele>76</ele>
<time>2017-12-10T12:53:14Z</time>
</trkpt>
<trkpt lat="53.9208" lon="15.7927">
<ele>78</ele>
<time>2017-12-10T12:53:20Z</time>
</trkpt>
<trkpt lat="53.9216" lon="15.794">
<ele>80</ele>
<time>2017-12-10T12:53:26Z</time>
</trkpt>
<trkpt lat="53.9222" lon="15.7954">
<ele>83</ele>
<time>2017-12-10T12:53:32Z</time>
</trkpt>
<trkpt lat="53.9242" lon="15.7999">
<ele>83</ele>
<time>2017-12-10T12:53:50Z</time>
</trkpt>
<trkpt lat="53.9249" lon="15.8014">
<ele>84</ele>
<time>2017-12-10T12:53:56Z</time>
</trkpt>
<trkpt lat="53.9256" lon="15.803">
<ele>84</ele>
<time>2017-12-10T12:54:02Z</time>
</trkpt>
<trkpt lat="53.9277" lon="15.8075">
<ele>81</ele>
<time>2017-12-10T12:54:20Z</time>
</trkpt>
<trkpt lat="53.9283" lon="15.809">
<ele>81</ele>
<time>2017-12-10T12:54:26Z</time>
</trkpt>
<trkpt lat="53.9291" lon="15.8103">
<ele>83</ele>
<time>2017-12-10T12:54:32Z</time>
</trkpt>
<trkpt lat="53.9299" lon="15.8116">
<ele>82</ele>
<time>2017-12-10T12:54:38Z</time>
</trkpt>
<trkpt lat="53.9307" lon="15.813">
<ele>81</ele>
<time>2017-12-10T12:54:44Z</time>
</trkpt>
<trkpt lat="53.9315809" lon="15.8142154">
<ele>81</ele>
<time>2017-12-10T12:54:50Z</time>
</trkpt>
<trkpt lat="53.9323491" lon="15.8154869">
<ele>82</ele>
<time>2017-12-10T12:54:56Z</time>
</trkpt>
<trkpt lat="53.9330051" lon="15.8167813">
<ele>85</ele>
<time>2017-12-10T12:55:02Z</time>
</trkpt>
<trkpt lat="53.9336275" lon="15.8180441">
<ele>88</ele>
<time>2017-12-10T12:55:08Z</time>
</trkpt>
<trkpt lat="53.9342381" lon="15.8192669">
<ele>87</ele>
<time>2017-12-10T12:55:14Z</time>
</trkpt>
<trkpt lat="53.9348593" lon="15.8204242">
<ele>87</ele>
<time>2017-12-10T12:55:20Z</time>
</trkpt>
<trkpt lat="53.9353373" lon="15.8214957">
<ele>87</ele>
<time>2017-12-10T12:55:26Z</time>
</trkpt>
<trkpt lat="53.9354320" lon="15.8228101">
<ele>87</ele>
<time>2017-12-10T12:55:32Z</time>
</trkpt>
<trkpt lat="53.9352360" lon="15.8239823">
<ele>90</ele>
<time>2017-12-10T12:55:38Z</time>
</trkpt>
<trkpt lat="53.9349471" lon="15.8250349">
<ele>89</ele>
<time>2017-12-10T12:55:44Z</time>
</trkpt>
<trkpt lat="53.9346832" lon="15.8260823">
<ele>91</ele>
<time>2017-12-10T12:55:50Z</time>
</trkpt>
<trkpt lat="53.9344567" lon="15.8269936">
<ele>92</ele>
<time>2017-12-10T12:55:56Z</time>
</trkpt>
<trkpt lat="53.9345368" lon="15.8275700">
<ele>95</ele>
<time>2017-12-10T12:56:02Z</time>
</trkpt>
<trkpt lat="53.9349789" lon="15.8277496">
<ele>95</ele>
<time>2017-12-10T12:56:08Z</time>
</trkpt>
<trkpt lat="53.9354707" lon="15.8280044">
<ele>96</ele>
<time>2017-12-10T12:56:14Z</time>
</trkpt>
<trkpt lat="53.9359660" lon="15.8285131">
<ele>95</ele>
<time>2017-12-10T12:56:20Z</time>
</trkpt>
<trkpt lat="53.9363331" lon="15.8295471">
<ele>92</ele>
<time>2017-12-10T12:56:26Z</time>
</trkpt>
<trkpt lat="53.9367378" lon="15.8306954">
<ele>93</ele>
<time>2017-12-10T12:56:32Z</time>
</trkpt>
<trkpt lat="53.9371996" lon="15.8320165">
<ele>91</ele>
<time>2017-12-10T12:56:38Z</time>
</trkpt>
<trkpt lat="53.9377186" lon="15.8334084">
<ele>92</ele>
<time>2017-12-10T12:56:44Z</time>
</trkpt>
<trkpt lat="53.9382272" lon="15.8347852">
<ele>92</ele>
<time>2017-12-10T12:56:50Z</time>
</trkpt>
<trkpt lat="53.9387516" lon="15.8362306">
<ele>93</ele>
<time>2017-12-10T12:56:56Z</time>
</trkpt>
<trkpt lat="53.9392854" lon="15.8376802">
<ele>92</ele>
<time>2017-12-10T12:57:02Z</time>
</trkpt>
<trkpt lat="53.9398084" lon="15.8391569">
<ele>92</ele>
<time>2017-12-10T12:57:08Z</time>
</trkpt>
<trkpt lat="53.9403689" lon="15.8407367">
<ele>90</ele>
<time>2017-12-10T12:57:14Z</time>
</trkpt>
<trkpt lat="53.9409321" lon="15.8423763">
<ele>89</ele>
<time>2017-12-10T12:57:20Z</time>
</trkpt>
<trkpt lat="53.9414929" lon="15.8440021">
<ele>88</ele>
<time>2017-12-10T12:57:26Z</time>
</trkpt>
<trkpt lat="53.9420393" lon="15.8456553">
<ele>87</ele>
<time>2017-12-10T12:57:32Z</time>
</trkpt>
<trkpt lat="53.9426675" lon="15.8472802">
<ele>85</ele>
<time>2017-12-10T12:57:38Z</time>
</trkpt>
<trkpt lat="53.9433860" lon="15.8487378">
<ele>83</ele>
<time>2017-12-10T12:57:44Z</time>
</trkpt>
<trkpt lat="53.9440884" lon="15.8501892">
<ele>85</ele>
<time>2017-12-10T12:57:50Z</time>
</trkpt>
<trkpt lat="53.9448138" lon="15.8516842">
<ele>85</ele>
<time>2017-12-10T12:57:56Z</time>
</trkpt>
<trkpt lat="53.9462945" lon="15.8547160">
<ele>81</ele>
<time>2017-12-10T12:58:08Z</time>
</trkpt>
<trkpt lat="53.9470346" lon="15.8562658">
<ele>79</ele>
<time>2017-12-10T12:58:14Z</time>
</trkpt>
<trkpt lat="53.9477755" lon="15.8578076">
<ele>78</ele>
<time>2017-12-10T12:58:20Z</time>
</trkpt>
<trkpt lat="53.9485080" lon="15.8593395">
<ele>77</ele>
<time>2017-12-10T12:58:26Z</time>
</trkpt>
<trkpt lat="53.9492410" lon="15.8608558">
<ele>77</ele>
<time>2017-12-10T12:58:32Z</time>
</trkpt>
<trkpt lat="53.9499694" lon="15.8623467">
<ele>77</ele>
<time>2017-12-10T12:58:38Z</time>
</trkpt>
<trkpt lat="53.9507049" lon="15.8638708">
<ele>76</ele>
<time>2017-12-10T12:58:44Z</time>
</trkpt>
<trkpt lat="53.9514569" lon="15.8654187">
<ele>75</ele>
<time>2017-12-10T12:58:50Z</time>
</trkpt>
<trkpt lat="53.9521979" lon="15.8669571">
<ele>75</ele>
<time>2017-12-10T12:58:56Z</time>
</trkpt>
<trkpt lat="53.9529393" lon="15.8684667">
<ele>75</ele>
<time>2017-12-10T12:59:02Z</time>
</trkpt>
<trkpt lat="53.9535640" lon="15.8700376">
<ele>75</ele>
<time>2017-12-10T12:59:08Z</time>
</trkpt>
<trkpt lat="53.9538991" lon="15.8718878">
<ele>81</ele>
<time>2017-12-10T12:59:14Z</time>
</trkpt>
<trkpt lat="53.9542738" lon="15.8736806">
<ele>83</ele>
<time>2017-12-10T12:59:20Z</time>
</trkpt>
<trkpt lat="53.9546369" lon="15.8754985">
<ele>83</ele>
<time>2017-12-10T12:59:26Z</time>
</trkpt>
<trkpt lat="53.9550002" lon="15.8772919">
<ele>83</ele>
<time>2017-12-10T12:59:32Z</time>
</trkpt>
<trkpt lat="53.9553729" lon="15.8791124">
<ele>82</ele>
<time>2017-12-10T12:59:38Z</time>
</trkpt>
<trkpt lat="53.9557330" lon="15.8808879">
<ele>81</ele>
<time>2017-12-10T12:59:44Z</time>
</trkpt>
<trkpt lat="53.9560899" lon="15.8826513">
<ele>80</ele>
<time>2017-12-10T12:59:50Z</time>
</trkpt>
<trkpt lat="53.9564493" lon="15.8844152">
<ele>79</ele>
<time>2017-12-10T12:59:56Z</time>
</trkpt>
<trkpt lat="53.9568056" lon="15.8861640">
<ele>78</ele>
<time>2017-12-10T13:00:02Z</time>
</trkpt>
<trkpt lat="53.9571289" lon="15.8878047">
<ele>78</ele>
<time>2017-12-10T13:00:08Z</time>
</trkpt>
<trkpt lat="53.9574534" lon="15.8893511">
<ele>78</ele>
<time>2017-12-10T13:00:14Z</time>
</trkpt>
<trkpt lat="53.9577169" lon="15.8908494">
<ele>78</ele>
<time>2017-12-10T13:00:20Z</time>
</trkpt>
<trkpt lat="53.9577975" lon="15.8923251">
<ele>78</ele>
<time>2017-12-10T13:00:26Z</time>
</trkpt>
<trkpt lat="53.9578462" lon="15.8936824">
<ele>77</ele>
<time>2017-12-10T13:00:32Z</time>
</trkpt>
<trkpt lat="53.9579216" lon="15.8950791">
<ele>78</ele>
<time>2017-12-10T13:00:38Z</time>
</trkpt>
<trkpt lat="53.9579961" lon="15.8964661">
<ele>81</ele>
<time>2017-12-10T13:00:44Z</time>
</trkpt>
<trkpt lat="53.9580411" lon="15.8977483">
<ele>83</ele>
<time>2017-12-10T13:00:50Z</time>
</trkpt>
<trkpt lat="53.9580742" lon="15.8988757">
<ele>83</ele>
<time>2017-12-10T13:00:56Z</time>
</trkpt>
<trkpt lat="53.9579886" lon="15.8990754">
<ele>84</ele>
<time>2017-12-10T13:01:02Z</time>
</trkpt>
<trkpt lat="53.9577035" lon="15.8990095">
<ele>88</ele>
<time>2017-12-10T13:01:08Z</time>
</trkpt>
<trkpt lat="53.9573041" lon="15.8987767">
<ele>87</ele>
<time>2017-12-10T13:01:14Z</time>
</trkpt>
<trkpt lat="53.9567790" lon="15.8987175">
<ele>88</ele>
<time>2017-12-10T13:01:20Z</time>
</trkpt>
<trkpt lat="53.9562589" lon="15.8986915">
<ele>88</ele>
<time>2017-12-10T13:01:26Z</time>
</trkpt>
<trkpt lat="53.9556149" lon="15.8986347">
<ele>89</ele>
<time>2017-12-10T13:01:32Z</time>
</trkpt>
<trkpt lat="53.9549508" lon="15.8985397">
<ele>90</ele>
<time>2017-12-10T13:01:38Z</time>
</trkpt>
<trkpt lat="53.9543830" lon="15.8983735">
<ele>92</ele>
<time>2017-12-10T13:01:44Z</time>
</trkpt>
<trkpt lat="53.9538230" lon="15.8983073">
<ele>91</ele>
<time>2017-12-10T13:01:50Z</time>
</trkpt>
<trkpt lat="53.9534381" lon="15.8984570">
<ele>89</ele>
<time>2017-12-10T13:01:56Z</time>
</trkpt>
<trkpt lat="53.9533114" lon="15.8991472">
<ele>89</ele>
<time>2017-12-10T13:02:02Z</time>
</trkpt>
<trkpt lat="53.9531605" lon="15.9001378">
<ele>88</ele>
<time>2017-12-10T13:02:08Z</time>
</trkpt>
<trkpt lat="53.9529186" lon="15.9013247">
<ele>88</ele>
<time>2017-12-10T13:02:14Z</time>
</trkpt>
<trkpt lat="53.9526643" lon="15.9025773">
<ele>86</ele>
<time>2017-12-10T13:02:20Z</time>
</trkpt>
<trkpt lat="53.9522736" lon="15.9037835">
<ele>86</ele>
<time>2017-12-10T13:02:26Z</time>
</trkpt>
<trkpt lat="53.9516623" lon="15.9048738">
<ele>82</ele>
<time>2017-12-10T13:02:32Z</time>
</trkpt>
<trkpt lat="53.9510287" lon="15.9060257">
<ele>78</ele>
<time>2017-12-10T13:02:38Z</time>
</trkpt>
<trkpt lat="53.9505259" lon="15.9073546">
<ele>79</ele>
<time>2017-12-10T13:02:44Z</time>
</trkpt>
<trkpt lat="53.9499617" lon="15.9086755">
<ele>83</ele>
<time>2017-12-10T13:02:50Z</time>
</trkpt>
<trkpt lat="53.9494375" lon="15.9099491">
<ele>87</ele>
<time>2017-12-10T13:02:56Z</time>
</trkpt>
<trkpt lat="53.9489271" lon="15.9112234">
<ele>88</ele>
<time>2017-12-10T13:03:02Z</time>
</trkpt>
<trkpt lat="53.9484589" lon="15.9125652">
<ele>86</ele>
<time>2017-12-10T13:03:08Z</time>
</trkpt>
<trkpt lat="53.9480115" lon="15.9139006">
<ele>86</ele>
<time>2017-12-10T13:03:14Z</time>
</trkpt>
<trkpt lat="53.9475433" lon="15.9152078">
<ele>86</ele>
<time>2017-12-10T13:03:20Z</time>
</trkpt>
<trkpt lat="53.9471104" lon="15.9164750">
<ele>87</ele>
<time>2017-12-10T13:03:26Z</time>
</trkpt>
<trkpt lat="53.9467455" lon="15.9175778">
<ele>87</ele>
<time>2017-12-10T13:03:32Z</time>
</trkpt>
<trkpt lat="53.9464109" lon="15.9185287">
<ele>89</ele>
<time>2017-12-10T13:03:38Z</time>
</trkpt>
<trkpt lat="53.9463205" lon="15.9194929">
<ele>92</ele>
<time>2017-12-10T13:03:44Z</time>
</trkpt>
<trkpt lat="53.9463731" lon="15.9202011">
<ele>93</ele>
<time>2017-12-10T13:03:50Z</time>
</trkpt>
<trkpt lat="53.9460072" lon="15.9203370">
<ele>96</ele>
<time>2017-12-10T13:03:56Z</time>
</trkpt>
<trkpt lat="53.9454677" lon="15.9204378">
<ele>95</ele>
<time>2017-12-10T13:04:02Z</time>
</trkpt>
<trkpt lat="53.9449648" lon="15.9205655">
<ele>96</ele>
<time>2017-12-10T13:04:08Z</time>
</trkpt>
<trkpt lat="53.9445714" lon="15.9206781">
<ele>97</ele>
<time>2017-12-10T13:04:14Z</time>
</trkpt>
<trkpt lat="53.9445115" lon="15.9211718">
<ele>99</ele>
<time>2017-12-10T13:04:20Z</time>
</trkpt>
<trkpt lat="53.9444709" lon="15.9218956">
<ele>101</ele>
<time>2017-12-10T13:04:26Z</time>
</trkpt>
<trkpt lat="53.9444040" lon="15.9228913">
<ele>103</ele>
<time>2017-12-10T13:04:32Z</time>
</trkpt>
<trkpt lat="53.9442420" lon="15.9239269">
<ele>103</ele>
<time>2017-12-10T13:04:38Z</time>
</trkpt>
<trkpt lat="53.9440684" lon="15.9251847">
<ele>102</ele>
<time>2017-12-10T13:04:44Z</time>
</trkpt>
<trkpt lat="53.9438868" lon="15.9265439">
<ele>101</ele>
<time>2017-12-10T13:04:50Z</time>
</trkpt>
<trkpt lat="53.9436817" lon="15.9278863">
<ele>100</ele>
<time>2017-12-10T13:04:56Z</time>
</trkpt>
<trkpt lat="53.9433692" lon="15.9292436">
<ele>98</ele>
<time>2017-12-10T13:05:02Z</time>
</trkpt>
<trkpt lat="53.9430160" lon="15.9307180">
<ele>95</ele>
<time>2017-12-10T13:05:08Z</time>
</trkpt>
<trkpt lat="53.9426626" lon="15.9322011">
<ele>89</ele>
<time>2017-12-10T13:05:14Z</time>
</trkpt>
<trkpt lat="53.9422817" lon="15.9337287">
<ele>87</ele>
<time>2017-12-10T13:05:20Z</time>
</trkpt>
<trkpt lat="53.9418996" lon="15.9353119">
<ele>81</ele>
<time>2017-12-10T13:05:26Z</time>
</trkpt>
<trkpt lat="53.9415096" lon="15.9368932">
<ele>78</ele>
<time>2017-12-10T13:05:32Z</time>
</trkpt>
<trkpt lat="53.9410069" lon="15.9383746">
<ele>76</ele>
<time>2017-12-10T13:05:38Z</time>
</trkpt>
<trkpt lat="53.9404889" lon="15.9397857">
<ele>76</ele>
<time>2017-12-10T13:05:44Z</time>
</trkpt>
<trkpt lat="53.9400569" lon="15.9411235">
<ele>76</ele>
<time>2017-12-10T13:05:50Z</time>
</trkpt>
<trkpt lat="53.9399890" lon="15.9425787">
<ele>77</ele>
<time>2017-12-10T13:05:56Z</time>
</trkpt>
<trkpt lat="53.9403366" lon="15.9440194">
<ele>78</ele>
<time>2017-12-10T13:06:02Z</time>
</trkpt>
<trkpt lat="53.9406828" lon="15.9454641">
<ele>79</ele>
<time>2017-12-10T13:06:08Z</time>
</trkpt>
<trkpt lat="53.9409178" lon="15.9469532">
<ele>82</ele>
<time>2017-12-10T13:06:14Z</time>
</trkpt>
<trkpt lat="53.9411058" lon="15.9484804">
<ele>84</ele>
<time>2017-12-10T13:06:20Z</time>
</trkpt>
<trkpt lat="53.9411859" lon="15.9500101">
<ele>88</ele>
<time>2017-12-10T13:06:26Z</time>
</trkpt>
<trkpt lat="53.9412487" lon="15.9515271">
<ele>91</ele>
<time>2017-12-10T13:06:32Z</time>
</trkpt>
<trkpt lat="53.9412485" lon="15.9530801">
<ele>93</ele>
<time>2017-12-10T13:06:38Z</time>
</trkpt>
<trkpt lat="53.9412511" lon="15.9546429">
<ele>94</ele>
<time>2017-12-10T13:06:44Z</time>
</trkpt>
<trkpt lat="53.9412482" lon="15.9560354">
<ele>97</ele>
<time>2017-12-10T13:06:50Z</time>
</trkpt>
<trkpt lat="53.9412520" lon="15.9571285">
<ele>98</ele>
<time>2017-12-10T13:06:56Z</time>
</trkpt>
<trkpt lat="53.9412265" lon="15.9575354">
<ele>101</ele>
<time>2017-12-10T13:07:02Z</time>
</trkpt>
<trkpt lat="53.9412319" lon="15.9578258">
<ele>103</ele>
<time>2017-12-10T13:07:08Z</time>
</trkpt>
<trkpt lat="53.9412050" lon="15.9584148">
<ele>105</ele>
<time>2017-12-10T13:07:14Z</time>
</trkpt>
<trkpt lat="53.9411458" lon="15.9593026">
<ele>107</ele>
<time>2017-12-10T13:07:20Z</time>
</trkpt>
<trkpt lat="53.9411331" lon="15.9603160">
<ele>108</ele>
<time>2017-12-10T13:07:26Z</time>
</trkpt>
<trkpt lat="53.9412030" lon="15.9614463">
<ele>110</ele>
<time>2017-12-10T13:07:32Z</time>
</trkpt>
<trkpt lat="53.9415426" lon="15.9625426">
<ele>113</ele>
<time>2017-12-10T13:07:38Z</time>
</trkpt>
<trkpt lat="53.9418780" lon="15.9637105">
<ele>115</ele>
<time>2017-12-10T13:07:44Z</time>
</trkpt>
<trkpt lat="53.9420422" lon="15.9651294">
<ele>117</ele>
<time>2017-12-10T13:07:50Z</time>
</trkpt>
<trkpt lat="53.9419135" lon="15.9666447">
<ele>118</ele>
<time>2017-12-10T13:07:56Z</time>
</trkpt>
<trkpt lat="53.9414704" lon="15.9682544">
<ele>118</ele>
<time>2017-12-10T13:08:02Z</time>
</trkpt>
<trkpt lat="53.9410869" lon="15.9699081">
<ele>112</ele>
<time>2017-12-10T13:08:08Z</time>
</trkpt>
<trkpt lat="53.9407142" lon="15.9715306">
<ele>107</ele>
<time>2017-12-10T13:08:14Z</time>
</trkpt>
<trkpt lat="53.9404289" lon="15.9732243">
<ele>101</ele>
<time>2017-12-10T13:08:20Z</time>
</trkpt>
<trkpt lat="53.9401795" lon="15.9748967">
<ele>98</ele>
<time>2017-12-10T13:08:26Z</time>
</trkpt>
<trkpt lat="53.9399373" lon="15.9765890">
<ele>95</ele>
<time>2017-12-10T13:08:32Z</time>
</trkpt>
<trkpt lat="53.9396164" lon="15.9783061">
<ele>92</ele>
<time>2017-12-10T13:08:38Z</time>
</trkpt>
<trkpt lat="53.9393758" lon="15.9798857">
<ele>89</ele>
<time>2017-12-10T13:08:44Z</time>
</trkpt>
<trkpt lat="53.9391579" lon="15.9812320">
<ele>85</ele>
<time>2017-12-10T13:08:50Z</time>
</trkpt>
<trkpt lat="53.9390149" lon="15.9818632">
<ele>87</ele>
<time>2017-12-10T13:08:56Z</time>
</trkpt>
<trkpt lat="53.9390162" lon="15.9824219">
<ele>93</ele>
<time>2017-12-10T13:09:02Z</time>
</trkpt>
<trkpt lat="53.9390081" lon="15.9831999">
<ele>92</ele>
<time>2017-12-10T13:09:08Z</time>
</trkpt>
<trkpt lat="53.9389546" lon="15.9840828">
<ele>90</ele>
<time>2017-12-10T13:09:14Z</time>
</trkpt>
<trkpt lat="53.9385498" lon="15.9850592">
<ele>92</ele>
<time>2017-12-10T13:09:20Z</time>
</trkpt>
<trkpt lat="53.9381047" lon="15.9861074">
<ele>94</ele>
<time>2017-12-10T13:09:26Z</time>
</trkpt>
<trkpt lat="53.9376465" lon="15.9872696">
<ele>93</ele>
<time>2017-12-10T13:09:32Z</time>
</trkpt>
<trkpt lat="53.9371894" lon="15.9884143">
<ele>90</ele>
<time>2017-12-10T13:09:38Z</time>
</trkpt>
<trkpt lat="53.9367283" lon="15.9895465">
<ele>86</ele>
<time>2017-12-10T13:09:44Z</time>
</trkpt>
<trkpt lat="53.9362405" lon="15.9905693">
<ele>83</ele>
<time>2017-12-10T13:09:50Z</time>
</trkpt>
<trkpt lat="53.9358252" lon="15.9914194">
<ele>79</ele>
<time>2017-12-10T13:09:56Z</time>
</trkpt>
<trkpt lat="53.9355708" lon="15.9924504">
<ele>76</ele>
<time>2017-12-10T13:10:02Z</time>
</trkpt>
<trkpt lat="53.9357699" lon="15.9935107">
<ele>73</ele>
<time>2017-12-10T13:10:08Z</time>
</trkpt>
<trkpt lat="53.9359312" lon="15.9946774">
<ele>74</ele>
<time>2017-12-10T13:10:14Z</time>
</trkpt>
<trkpt lat="53.9361334" lon="15.9958855">
<ele>71</ele>
<time>2017-12-10T13:10:20Z</time>
</trkpt>
<trkpt lat="53.9363147" lon="15.9971883">
<ele>72</ele>
<time>2017-12-10T13:10:26Z</time>
</trkpt>
<trkpt lat="53.9364798" lon="15.9983519">
<ele>74</ele>
<time>2017-12-10T13:10:32Z</time>
</trkpt>
<trkpt lat="53.9365639" lon="15.9994480">
<ele>74</ele>
<time>2017-12-10T13:10:38Z</time>
</trkpt>
<trkpt lat="53.9362521" lon="16.0004023">
<ele>75</ele>
<time>2017-12-10T13:10:44Z</time>
</trkpt>
<trkpt lat="53.9357405" lon="16.0010465">
<ele>80</ele>
<time>2017-12-10T13:10:50Z</time>
</trkpt>
<trkpt lat="53.9352853" lon="16.0016971">
<ele>84</ele>
<time>2017-12-10T13:10:56Z</time>
</trkpt>
<trkpt lat="53.9351588" lon="16.0025673">
<ele>87</ele>
<time>2017-12-10T13:11:02Z</time>
</trkpt>
<trkpt lat="53.9355310" lon="16.0033047">
<ele>87</ele>
<time>2017-12-10T13:11:08Z</time>
</trkpt>
<trkpt lat="53.9359182" lon="16.0040192">
<ele>88</ele>
<time>2017-12-10T13:11:14Z</time>
</trkpt>
<trkpt lat="53.9363337" lon="16.0046842">
<ele>83</ele>
<time>2017-12-10T13:11:20Z</time>
</trkpt>
<trkpt lat="53.9367642" lon="16.0054359">
<ele>83</ele>
<time>2017-12-10T13:11:26Z</time>
</trkpt>
<trkpt lat="53.9372154" lon="16.0062850">
<ele>83</ele>
<time>2017-12-10T13:11:32Z</time>
</trkpt>
<trkpt lat="53.9377722" lon="16.0067340">
<ele>83</ele>
<time>2017-12-10T13:11:38Z</time>
</trkpt>
<trkpt lat="53.9383807" lon="16.0069910">
<ele>83</ele>
<time>2017-12-10T13:11:44Z</time>
</trkpt>
<trkpt lat="53.9389506" lon="16.0076124">
<ele>85</ele>
<time>2017-12-10T13:11:50Z</time>
</trkpt>
<trkpt lat="53.9395754" lon="16.0081167">
<ele>87</ele>
<time>2017-12-10T13:11:56Z</time>
</trkpt>
<trkpt lat="53.9402232" lon="16.0083820">
<ele>86</ele>
<time>2017-12-10T13:12:02Z</time>
</trkpt>
<trkpt lat="53.9405489" lon="16.0090632">
<ele>84</ele>
<time>2017-12-10T13:12:08Z</time>
</trkpt>
<trkpt lat="53.9405482" lon="16.0102500">
<ele>85</ele>
<time>2017-12-10T13:12:14Z</time>
</trkpt>
<trkpt lat="53.9405426" lon="16.0116510">
<ele>85</ele>
<time>2017-12-10T13:12:20Z</time>
</trkpt>
<trkpt lat="53.9405346" lon="16.0131130">
<ele>86</ele>
<time>2017-12-10T13:12:26Z</time>
</trkpt>
<trkpt lat="53.9405231" lon="16.0147026">
<ele>87</ele>
<time>2017-12-10T13:12:32Z</time>
</trkpt>
<trkpt lat="53.9405186" lon="16.0162675">
<ele>87</ele>
<time>2017-12-10T13:12:38Z</time>
</trkpt>
<trkpt lat="53.9405365" lon="16.0176902">
<ele>87</ele>
<time>2017-12-10T13:12:44Z</time>
</trkpt>
<trkpt lat="53.9409927" lon="16.0187846">
<ele>87</ele>
<time>2017-12-10T13:12:50Z</time>
</trkpt>
<trkpt lat="53.9416769" lon="16.0197092">
<ele>82</ele>
<time>2017-12-10T13:12:56Z</time>
</trkpt>
<trkpt lat="53.9423798" lon="16.0207568">
<ele>81</ele>
<time>2017-12-10T13:13:02Z</time>
</trkpt>
<trkpt lat="53.9430958" lon="16.0218113">
<ele>80</ele>
<time>2017-12-10T13:13:08Z</time>
</trkpt>
<trkpt lat="53.9438218" lon="16.0228606">
<ele>82</ele>
<time>2017-12-10T13:13:14Z</time>
</trkpt>
<trkpt lat="53.9445785" lon="16.0237259">
<ele>83</ele>
<time>2017-12-10T13:13:20Z</time>
</trkpt>
<trkpt lat="53.9452091" lon="16.0244874">
<ele>81</ele>
<time>2017-12-10T13:13:26Z</time>
</trkpt>
<trkpt lat="53.9454683" lon="16.0256070">
<ele>79</ele>
<time>2017-12-10T13:13:32Z</time>
</trkpt>
<trkpt lat="53.9456859" lon="16.0270586">
<ele>79</ele>
<time>2017-12-10T13:13:38Z</time>
</trkpt>
<trkpt lat="53.9459413" lon="16.0286168">
<ele>77</ele>
<time>2017-12-10T13:13:44Z</time>
</trkpt>
<trkpt lat="53.9461604" lon="16.0301273">
<ele>76</ele>
<time>2017-12-10T13:13:50Z</time>
</trkpt>
<trkpt lat="53.9462232" lon="16.0317136">
<ele>74</ele>
<time>2017-12-10T13:13:56Z</time>
</trkpt>
<trkpt lat="53.9462408" lon="16.0333400">
<ele>71</ele>
<time>2017-12-10T13:14:02Z</time>
</trkpt>
<trkpt lat="53.9463969" lon="16.0348489">
<ele>71</ele>
<time>2017-12-10T13:14:08Z</time>
</trkpt>
<trkpt lat="53.9467555" lon="16.0362475">
<ele>70</ele>
<time>2017-12-10T13:14:14Z</time>
</trkpt>
<trkpt lat="53.9472284" lon="16.0374732">
<ele>72</ele>
<time>2017-12-10T13:14:20Z</time>
</trkpt>
<trkpt lat="53.9478077" lon="16.0386071">
<ele>68</ele>
<time>2017-12-10T13:14:26Z</time>
</trkpt>
<trkpt lat="53.9483721" lon="16.0397481">
<ele>69</ele>
<time>2017-12-10T13:14:32Z</time>
</trkpt>
<trkpt lat="53.9487650" lon="16.0406801">
<ele>66</ele>
<time>2017-12-10T13:14:38Z</time>
</trkpt>
<trkpt lat="53.9488023" lon="16.0416702">
<ele>65</ele>
<time>2017-12-10T13:14:44Z</time>
</trkpt>
<trkpt lat="53.9486621" lon="16.0427619">
<ele>65</ele>
<time>2017-12-10T13:14:50Z</time>
</trkpt>
<trkpt lat="53.9487030" lon="16.0439806">
<ele>64</ele>
<time>2017-12-10T13:14:56Z</time>
</trkpt>
<trkpt lat="53.9487948" lon="16.0451020">
<ele>64</ele>
<time>2017-12-10T13:15:02Z</time>
</trkpt>
<trkpt lat="53.9485783" lon="16.0461418">
<ele>64</ele>
<time>2017-12-10T13:15:08Z</time>
</trkpt>
<trkpt lat="53.9484335" lon="16.0472454">
<ele>64</ele>
<time>2017-12-10T13:15:14Z</time>
</trkpt>
<trkpt lat="53.9487608" lon="16.0481697">
<ele>60</ele>
<time>2017-12-10T13:15:20Z</time>
</trkpt>
<trkpt lat="53.9487557" lon="16.0492166">
<ele>59</ele>
<time>2017-12-10T13:15:26Z</time>
</trkpt>
<trkpt lat="53.9486059" lon="16.0502841">
<ele>59</ele>
<time>2017-12-10T13:15:32Z</time>
</trkpt>
<trkpt lat="53.9486301" lon="16.0514906">
<ele>61</ele>
<time>2017-12-10T13:15:38Z</time>
</trkpt>
<trkpt lat="53.9486375" lon="16.0526662">
<ele>61</ele>
<time>2017-12-10T13:15:44Z</time>
</trkpt>
<trkpt lat="53.9485814" lon="16.0539008">
<ele>62</ele>
<time>2017-12-10T13:15:50Z</time>
</trkpt>
<trkpt lat="53.9484450" lon="16.0551195">
<ele>63</ele>
<time>2017-12-10T13:15:56Z</time>
</trkpt>
<trkpt lat="53.9481566" lon="16.0562336">
<ele>63</ele>
<time>2017-12-10T13:16:02Z</time>
</trkpt>
<trkpt lat="53.9479331" lon="16.0573878">
<ele>64</ele>
<time>2017-12-10T13:16:08Z</time>
</trkpt>
<trkpt lat="53.9479649" lon="16.0585218">
<ele>65</ele>
<time>2017-12-10T13:16:14Z</time>
</trkpt>
<trkpt lat="53.9480437" lon="16.0595595">
<ele>66</ele>
<time>2017-12-10T13:16:20Z</time>
</trkpt>
<trkpt lat="53.9477930" lon="16.0604499">
<ele>62</ele>
<time>2017-12-10T13:16:26Z</time>
</trkpt>
<trkpt lat="53.9476169" lon="16.0608690">
<ele>66</ele>
<time>2017-12-10T13:16:32Z</time>
</trkpt>
<trkpt lat="53.9475831" lon="16.0609205">
<ele>70</ele>
<time>2017-12-10T13:16:38Z</time>
</trkpt>
<trkpt lat="53.9474489" lon="16.0612649">
<ele>71</ele>
<time>2017-12-10T13:16:44Z</time>
</trkpt>
<trkpt lat="53.9472975" lon="16.0619106">
<ele>70</ele>
<time>2017-12-10T13:16:50Z</time>
</trkpt>
<trkpt lat="53.9471229" lon="16.0627299">
<ele>72</ele>
<time>2017-12-10T13:16:56Z</time>
</trkpt>
<trkpt lat="53.9469175" lon="16.0638462">
<ele>75</ele>
<time>2017-12-10T13:17:02Z</time>
</trkpt>
<trkpt lat="53.9466074" lon="16.0649804">
<ele>77</ele>
<time>2017-12-10T13:17:08Z</time>
</trkpt>
<trkpt lat="53.9461437" lon="16.0660652">
<ele>83</ele>
<time>2017-12-10T13:17:14Z</time>
</trkpt>
<trkpt lat="53.9456154" lon="16.0672702">
<ele>86</ele>
<time>2017-12-10T13:17:20Z</time>
</trkpt>
<trkpt lat="53.9450177" lon="16.0685857">
<ele>88</ele>
<time>2017-12-10T13:17:26Z</time>
</trkpt>
<trkpt lat="53.9444128" lon="16.0699164">
<ele>89</ele>
<time>2017-12-10T13:17:32Z</time>
</trkpt>
<trkpt lat="53.9437781" lon="16.0713646">
<ele>89</ele>
<time>2017-12-10T13:17:38Z</time>
</trkpt>
<trkpt lat="53.9431221" lon="16.0728857">
<ele>91</ele>
<time>2017-12-10T13:17:44Z</time>
</trkpt>
<trkpt lat="53.9424372" lon="16.0744473">
<ele>90</ele>
<time>2017-12-10T13:17:50Z</time>
</trkpt>
<trkpt lat="53.9417205" lon="16.0760803">
<ele>90</ele>
<time>2017-12-10T13:17:56Z</time>
</trkpt>
<trkpt lat="53.9409790" lon="16.0777316">
<ele>91</ele>
<time>2017-12-10T13:18:02Z</time>
</trkpt>
<trkpt lat="53.9402590" lon="16.0793788">
<ele>91</ele>
<time>2017-12-10T13:18:08Z</time>
</trkpt>
<trkpt lat="53.9395317" lon="16.0810406">
<ele>91</ele>
<time>2017-12-10T13:18:14Z</time>
</trkpt>
<trkpt lat="53.9387777" lon="16.0827283">
<ele>91</ele>
<time>2017-12-10T13:18:20Z</time>
</trkpt>
<trkpt lat="53.9380307" lon="16.0844060">
<ele>91</ele>
<time>2017-12-10T13:18:26Z</time>
</trkpt>
<trkpt lat="53.9372925" lon="16.0860810">
<ele>90</ele>
<time>2017-12-10T13:18:32Z</time>
</trkpt>
<trkpt lat="53.9365731" lon="16.0877640">
<ele>88</ele>
<time>2017-12-10T13:18:38Z</time>
</trkpt>
<trkpt lat="53.9358704" lon="16.0893912">
<ele>87</ele>
<time>2017-12-10T13:18:44Z</time>
</trkpt>
<trkpt lat="53.9351693" lon="16.0910426">
<ele>87</ele>
<time>2017-12-10T13:18:50Z</time>
</trkpt>
<trkpt lat="53.9345654" lon="16.0928319">
<ele>85</ele>
<time>2017-12-10T13:18:56Z</time>
</trkpt>
<trkpt lat="53.9341221" lon="16.0947551">
<ele>85</ele>
<time>2017-12-10T13:19:02Z</time>
</trkpt>
<trkpt lat="53.9338730" lon="16.0967307">
<ele>84</ele>
<time>2017-12-10T13:19:08Z</time>
</trkpt>
<trkpt lat="53.9338097" lon="16.0987109">
<ele>82</ele>
<time>2017-12-10T13:19:14Z</time>
</trkpt>
<trkpt lat="53.9338105" lon="16.1007145">
<ele>82</ele>
<time>2017-12-10T13:19:20Z</time>
</trkpt>
<trkpt lat="53.9337765" lon="16.1027048">
<ele>82</ele>
<time>2017-12-10T13:19:26Z</time>
</trkpt>
<trkpt lat="53.9337383" lon="16.1046622">
<ele>81</ele>
<time>2017-12-10T13:19:32Z</time>
</trkpt>
<trkpt lat="53.9336947" lon="16.1066471">
<ele>79</ele>
<time>2017-12-10T13:19:38Z</time>
</trkpt>
<trkpt lat="53.9336639" lon="16.1086384">
<ele>77</ele>
<time>2017-12-10T13:19:44Z</time>
</trkpt>
<trkpt lat="53.9336771" lon="16.1105962">
<ele>77</ele>
<time>2017-12-10T13:19:50Z</time>
</trkpt>
<trkpt lat="53.9339567" lon="16.1124143">
<ele>80</ele>
<time>2017-12-10T13:19:56Z</time>
</trkpt>
<trkpt lat="53.9343538" lon="16.1141291">
<ele>87</ele>
<time>2017-12-10T13:20:02Z</time>
</trkpt>
<trkpt lat="53.9342414" lon="16.1160571">
<ele>86</ele>
<time>2017-12-10T13:20:08Z</time>
</trkpt>
<trkpt lat="53.9341664" lon="16.1179774">
<ele>85</ele>
<time>2017-12-10T13:20:14Z</time>
</trkpt>
<trkpt lat="53.9341242" lon="16.1199156">
<ele>84</ele>
<time>2017-12-10T13:20:20Z</time>
</trkpt>
<trkpt lat="53.9341267" lon="16.1218281">
<ele>84</ele>
<time>2017-12-10T13:20:26Z</time>
</trkpt>
<trkpt lat="53.9341055" lon="16.1237281">
<ele>83</ele>
<time>2017-12-10T13:20:32Z</time>
</trkpt>
<trkpt lat="53.9340485" lon="16.1256518">
<ele>81</ele>
<time>2017-12-10T13:20:38Z</time>
</trkpt>
<trkpt lat="53.9339744" lon="16.1275853">
<ele>83</ele>
<time>2017-12-10T13:20:44Z</time>
</trkpt>
<trkpt lat="53.9339037" lon="16.1295072">
<ele>84</ele>
<time>2017-12-10T13:20:50Z</time>
</trkpt>
<trkpt lat="53.9338756" lon="16.1313771">
<ele>85</ele>
<time>2017-12-10T13:20:56Z</time>
</trkpt>
<trkpt lat="53.9339015" lon="16.1330824">
<ele>86</ele>
<time>2017-12-10T13:21:02Z</time>
</trkpt>
<trkpt lat="53.9337543" lon="16.1347502">
<ele>87</ele>
<time>2017-12-10T13:21:08Z</time>
</trkpt>
<trkpt lat="53.9336606" lon="16.1364001">
<ele>89</ele>
<time>2017-12-10T13:21:14Z</time>
</trkpt>
<trkpt lat="53.9335868" lon="16.1380264">
<ele>91</ele>
<time>2017-12-10T13:21:20Z</time>
</trkpt>
<trkpt lat="53.9335417" lon="16.1394372">
<ele>87</ele>
<time>2017-12-10T13:21:26Z</time>
</trkpt>
<trkpt lat="53.9335153" lon="16.1404025">
<ele>90</ele>
<time>2017-12-10T13:21:32Z</time>
</trkpt>
<trkpt lat="53.9334732" lon="16.1412673">
<ele>90</ele>
<time>2017-12-10T13:21:38Z</time>
</trkpt>
<trkpt lat="53.9334606" lon="16.1419690">
<ele>90</ele>
<time>2017-12-10T13:21:44Z</time>
</trkpt>
<trkpt lat="53.9334646" lon="16.1425505">
<ele>89</ele>
<time>2017-12-10T13:21:50Z</time>
</trkpt>
<trkpt lat="53.9334554" lon="16.1430723">
<ele>89</ele>
<time>2017-12-10T13:21:56Z</time>
</trkpt>
<trkpt lat="53.9334589" lon="16.1434879">
<ele>90</ele>
<time>2017-12-10T13:22:02Z</time>
</trkpt>
<trkpt lat="53.9334490" lon="16.1436588">
<ele>90</ele>
<time>2017-12-10T13:22:08Z</time>
</trkpt>
<trkpt lat="53.9334490" lon="16.1436588">
<ele>90</ele>
<time>2017-12-10T13:22:14Z</time>
</trkpt>
<trkpt lat="53.9334490" lon="16.1436588">
<ele>90</ele>
<time>2017-12-10T13:22:20Z</time>
</trkpt>
<trkpt lat="53.9334490" lon="16.1436588">
<ele>90</ele>
<time>2017-12-10T13:22:26Z</time>
</trkpt>
<trkpt lat="53.9334490" lon="16.1436588">
<ele>90</ele>
<time>2017-12-10T13:22:32Z</time>
</trkpt>
<trkpt lat="53.9334418" lon="16.1438389">
<ele>91</ele>
<time>2017-12-10T13:22:38Z</time>
</trkpt>
<trkpt lat="53.9334703" lon="16.1441955">
<ele>94</ele>
<time>2017-12-10T13:22:44Z</time>
</trkpt>
<trkpt lat="53.9335376" lon="16.1446678">
<ele>92</ele>
<time>2017-12-10T13:22:50Z</time>
</trkpt>
<trkpt lat="53.9334048" lon="16.1453736">
<ele>91</ele>
<time>2017-12-10T13:22:56Z</time>
</trkpt>
<trkpt lat="53.9333030" lon="16.1463855">
<ele>91</ele>
<time>2017-12-10T13:23:02Z</time>
</trkpt>
<trkpt lat="53.9333004" lon="16.1476373">
<ele>91</ele>
<time>2017-12-10T13:23:08Z</time>
</trkpt>
<trkpt lat="53.9332661" lon="16.1490729">
<ele>91</ele>
<time>2017-12-10T13:23:14Z</time>
</trkpt>
<trkpt lat="53.9333856" lon="16.1506694">
<ele>92</ele>
<time>2017-12-10T13:23:20Z</time>
</trkpt>
<trkpt lat="53.9334423" lon="16.1523708">
<ele>93</ele>
<time>2017-12-10T13:23:26Z</time>
</trkpt>
<trkpt lat="53.9333838" lon="16.1540934">
<ele>94</ele>
<time>2017-12-10T13:23:32Z</time>
</trkpt>
<trkpt lat="53.9332975" lon="16.1560061">
<ele>95</ele>
<time>2017-12-10T13:23:38Z</time>
</trkpt>
<trkpt lat="53.9331925" lon="16.1579756">
<ele>95</ele>
<time>2017-12-10T13:23:44Z</time>
</trkpt>
<trkpt lat="53.9331600" lon="16.1599619">
<ele>94</ele>
<time>2017-12-10T13:23:50Z</time>
</trkpt>
<trkpt lat="53.9330996" lon="16.1619297">
<ele>93</ele>
<time>2017-12-10T13:23:56Z</time>
</trkpt>
<trkpt lat="53.9329813" lon="16.1638718">
<ele>89</ele>
<time>2017-12-10T13:24:02Z</time>
</trkpt>
<trkpt lat="53.9328895" lon="16.1658280">
<ele>91</ele>
<time>2017-12-10T13:24:08Z</time>
</trkpt>
<trkpt lat="53.9328781" lon="16.1677292">
<ele>92</ele>
<time>2017-12-10T13:24:14Z</time>
</trkpt>
<trkpt lat="53.9328687" lon="16.1696378">
<ele>92</ele>
<time>2017-12-10T13:24:20Z</time>
</trkpt>
<trkpt lat="53.9328438" lon="16.1715562">
<ele>91</ele>
<time>2017-12-10T13:24:26Z</time>
</trkpt>
<trkpt lat="53.9328034" lon="16.1734733">
<ele>91</ele>
<time>2017-12-10T13:24:32Z</time>
</trkpt>
<trkpt lat="53.9327475" lon="16.1752731">
<ele>91</ele>
<time>2017-12-10T13:24:38Z</time>
</trkpt>
<trkpt lat="53.9322935" lon="16.1771122">
<ele>88</ele>
<time>2017-12-10T13:24:44Z</time>
</trkpt>
<trkpt lat="53.9317891" lon="16.1789621">
<ele>89</ele>
<time>2017-12-10T13:24:50Z</time>
</trkpt>
<trkpt lat="53.9313390" lon="16.1808304">
<ele>88</ele>
<time>2017-12-10T13:24:56Z</time>
</trkpt>
<trkpt lat="53.9308940" lon="16.1827122">
<ele>88</ele>
<time>2017-12-10T13:25:02Z</time>
</trkpt>
<trkpt lat="53.9304542" lon="16.1846091">
<ele>89</ele>
<time>2017-12-10T13:25:08Z</time>
</trkpt>
<trkpt lat="53.9300096" lon="16.1865141">
<ele>89</ele>
<time>2017-12-10T13:25:14Z</time>
</trkpt>
<trkpt lat="53.9295786" lon="16.1884116">
<ele>90</ele>
<time>2017-12-10T13:25:20Z</time>
</trkpt>
<trkpt lat="53.9291239" lon="16.1903323">
<ele>90</ele>
<time>2017-12-10T13:25:26Z</time>
</trkpt>
<trkpt lat="53.9286708" lon="16.1922492">
<ele>89</ele>
<time>2017-12-10T13:25:32Z</time>
</trkpt>
<trkpt lat="53.9282392" lon="16.1941149">
<ele>89</ele>
<time>2017-12-10T13:25:38Z</time>
</trkpt>
<trkpt lat="53.9278144" lon="16.1959105">
<ele>90</ele>
<time>2017-12-10T13:25:44Z</time>
</trkpt>
<trkpt lat="53.9274168" lon="16.1975774">
<ele>90</ele>
<time>2017-12-10T13:25:50Z</time>
</trkpt>
<trkpt lat="53.9270917" lon="16.1989991">
<ele>90</ele>
<time>2017-12-10T13:25:56Z</time>
</trkpt>
<trkpt lat="53.9270582" lon="16.2003124">
<ele>90</ele>
<time>2017-12-10T13:26:02Z</time>
</trkpt>
<trkpt lat="53.9269866" lon="16.2014550">
<ele>90</ele>
<time>2017-12-10T13:26:08Z</time>
</trkpt>
<trkpt lat="53.9267779" lon="16.2026078">
<ele>90</ele>
<time>2017-12-10T13:26:14Z</time>
</trkpt>
<trkpt lat="53.9266086" lon="16.2037136">
<ele>88</ele>
<time>2017-12-10T13:26:20Z</time>
</trkpt>
<trkpt lat="53.9266476" lon="16.2048937">
<ele>87</ele>
<time>2017-12-10T13:26:26Z</time>
</trkpt>
<trkpt lat="53.9269013" lon="16.2061144">
<ele>85</ele>
<time>2017-12-10T13:26:32Z</time>
</trkpt>
<trkpt lat="53.9271726" lon="16.2074427">
<ele>85</ele>
<time>2017-12-10T13:26:38Z</time>
</trkpt>
<trkpt lat="53.9274573" lon="16.2089660">
<ele>86</ele>
<time>2017-12-10T13:26:44Z</time>
</trkpt>
<trkpt lat="53.9277537" lon="16.2106224">
<ele>89</ele>
<time>2017-12-10T13:26:50Z</time>
</trkpt>
<trkpt lat="53.9280808" lon="16.2122810">
<ele>90</ele>
<time>2017-12-10T13:26:56Z</time>
</trkpt>
<trkpt lat="53.9284236" lon="16.2140207">
<ele>90</ele>
<time>2017-12-10T13:27:02Z</time>
</trkpt>
<trkpt lat="53.9287563" lon="16.2157995">
<ele>90</ele>
<time>2017-12-10T13:27:08Z</time>
</trkpt>
<trkpt lat="53.9290846" lon="16.2175620">
<ele>92</ele>
<time>2017-12-10T13:27:14Z</time>
</trkpt>
<trkpt lat="53.9292947" lon="16.2193594">
<ele>97</ele>
<time>2017-12-10T13:27:20Z</time>
</trkpt>
<trkpt lat="53.9293470" lon="16.2212089">
<ele>100</ele>
<time>2017-12-10T13:27:26Z</time>
</trkpt>
<trkpt lat="53.9293355" lon="16.2231438">
<ele>100</ele>
<time>2017-12-10T13:27:32Z</time>
</trkpt>
<trkpt lat="53.9293401" lon="16.2250655">
<ele>102</ele>
<time>2017-12-10T13:27:38Z</time>
</trkpt>
<trkpt lat="53.9291592" lon="16.2269361">
<ele>104</ele>
<time>2017-12-10T13:27:44Z</time>
</trkpt>
<trkpt lat="53.9289061" lon="16.2288508">
<ele>102</ele>
<time>2017-12-10T13:27:50Z</time>
</trkpt>
<trkpt lat="53.9286641" lon="16.2307638">
<ele>100</ele>
<time>2017-12-10T13:27:56Z</time>
</trkpt>
<trkpt lat="53.9284163" lon="16.2326950">
<ele>99</ele>
<time>2017-12-10T13:28:02Z</time>
</trkpt>
<trkpt lat="53.9281667" lon="16.2346264">
<ele>97</ele>
<time>2017-12-10T13:28:08Z</time>
</trkpt>
<trkpt lat="53.9279342" lon="16.2365635">
<ele>96</ele>
<time>2017-12-10T13:28:14Z</time>
</trkpt>
<trkpt lat="53.9276748" lon="16.2385084">
<ele>94</ele>
<time>2017-12-10T13:28:20Z</time>
</trkpt>
<trkpt lat="53.9274268" lon="16.2404683">
<ele>95</ele>
<time>2017-12-10T13:28:26Z</time>
</trkpt>
<trkpt lat="53.9271886" lon="16.2423935">
<ele>97</ele>
<time>2017-12-10T13:28:32Z</time>
</trkpt>
<trkpt lat="53.9269571" lon="16.2442926">
<ele>97</ele>
<time>2017-12-10T13:28:38Z</time>
</trkpt>
<trkpt lat="53.9267362" lon="16.2461156">
<ele>97</ele>
<time>2017-12-10T13:28:44Z</time>
</trkpt>
<trkpt lat="53.9265269" lon="16.2477654">
<ele>97</ele>
<time>2017-12-10T13:28:50Z</time>
</trkpt>
<trkpt lat="53.9263488" lon="16.2492558">
<ele>97</ele>
<time>2017-12-10T13:28:56Z</time>
</trkpt>
<trkpt lat="53.9261778" lon="16.2506082">
<ele>99</ele>
<time>2017-12-10T13:29:02Z</time>
</trkpt>
<trkpt lat="53.9260226" lon="16.2517594">
<ele>99</ele>
<time>2017-12-10T13:29:08Z</time>
</trkpt>
<trkpt lat="53.9258493" lon="16.2522678">
<ele>101</ele>
<time>2017-12-10T13:29:14Z</time>
</trkpt>
<trkpt lat="53.9256364" lon="16.2525810">
<ele>103</ele>
<time>2017-12-10T13:29:20Z</time>
</trkpt>
<trkpt lat="53.9258336" lon="16.2529411">
<ele>100</ele>
<time>2017-12-10T13:29:26Z</time>
</trkpt>
<trkpt lat="53.9260391" lon="16.2535149">
<ele>100</ele>
<time>2017-12-10T13:29:32Z</time>
</trkpt>
<trkpt lat="53.9263262" lon="16.2542948">
<ele>99</ele>
<time>2017-12-10T13:29:38Z</time>
</trkpt>
<trkpt lat="53.9266442" lon="16.2551538">
<ele>99</ele>
<time>2017-12-10T13:29:44Z</time>
</trkpt>
<trkpt lat="53.9269955" lon="16.2560950">
<ele>99</ele>
<time>2017-12-10T13:29:50Z</time>
</trkpt>
<trkpt lat="53.9274116" lon="16.2571421">
<ele>101</ele>
<time>2017-12-10T13:29:56Z</time>
</trkpt>
<trkpt lat="53.9279603" lon="16.2579929">
<ele>102</ele>
<time>2017-12-10T13:30:02Z</time>
</trkpt>
<trkpt lat="53.9286343" lon="16.2585593">
<ele>102</ele>
<time>2017-12-10T13:30:08Z</time>
</trkpt>
<trkpt lat="53.9293346" lon="16.2590636">
<ele>102</ele>
<time>2017-12-10T13:30:14Z</time>
</trkpt>
<trkpt lat="53.9300232" lon="16.2596944">
<ele>101</ele>
<time>2017-12-10T13:30:20Z</time>
</trkpt>
<trkpt lat="53.9306194" lon="16.2604059">
<ele>101</ele>
<time>2017-12-10T13:30:26Z</time>
</trkpt>
<trkpt lat="53.9307158" lon="16.2616708">
<ele>102</ele>
<time>2017-12-10T13:30:32Z</time>
</trkpt>
<trkpt lat="53.9308247" lon="16.2630217">
<ele>102</ele>
<time>2017-12-10T13:30:38Z</time>
</trkpt>
<trkpt lat="53.9310180" lon="16.2642866">
<ele>105</ele>
<time>2017-12-10T13:30:44Z</time>
</trkpt>
<trkpt lat="53.9315350" lon="16.2652579">
<ele>103</ele>
<time>2017-12-10T13:30:50Z</time>
</trkpt>
<trkpt lat="53.9320849" lon="16.2660807">
<ele>102</ele>
<time>2017-12-10T13:30:56Z</time>
</trkpt>
<trkpt lat="53.9324583" lon="16.2671743">
<ele>104</ele>
<time>2017-12-10T13:31:02Z</time>
</trkpt>
<trkpt lat="53.9328356" lon="16.2683765">
<ele>105</ele>
<time>2017-12-10T13:31:08Z</time>
</trkpt>
<trkpt lat="53.9332302" lon="16.2695693">
<ele>104</ele>
<time>2017-12-10T13:31:14Z</time>
</trkpt>
<trkpt lat="53.9336198" lon="16.2707734">
<ele>107</ele>
<time>2017-12-10T13:31:20Z</time>
</trkpt>
<trkpt lat="53.9340162" lon="16.2719638">
<ele>107</ele>
<time>2017-12-10T13:31:26Z</time>
</trkpt>
<trkpt lat="53.9344260" lon="16.2732211">
<ele>107</ele>
<time>2017-12-10T13:31:32Z</time>
</trkpt>
<trkpt lat="53.9348455" lon="16.2745225">
<ele>106</ele>
<time>2017-12-10T13:31:38Z</time>
</trkpt>
<trkpt lat="53.9352760" lon="16.2758797">
<ele>106</ele>
<time>2017-12-10T13:31:44Z</time>
</trkpt>
<trkpt lat="53.9357378" lon="16.2772903">
<ele>107</ele>
<time>2017-12-10T13:31:50Z</time>
</trkpt>
<trkpt lat="53.9361940" lon="16.2787685">
<ele>109</ele>
<time>2017-12-10T13:31:56Z</time>
</trkpt>
<trkpt lat="53.9365668" lon="16.2803497">
<ele>109</ele>
<time>2017-12-10T13:32:02Z</time>
</trkpt>
<trkpt lat="53.9369076" lon="16.2820107">
<ele>112</ele>
<time>2017-12-10T13:32:08Z</time>
</trkpt>
<trkpt lat="53.9372614" lon="16.2836795">
<ele>113</ele>
<time>2017-12-10T13:32:14Z</time>
</trkpt>
<trkpt lat="53.9376302" lon="16.2854430">
<ele>112</ele>
<time>2017-12-10T13:32:20Z</time>
</trkpt>
<trkpt lat="53.9380069" lon="16.2872242">
<ele>112</ele>
<time>2017-12-10T13:32:26Z</time>
</trkpt>
<trkpt lat="53.9383938" lon="16.2890436">
<ele>111</ele>
<time>2017-12-10T13:32:32Z</time>
</trkpt>
<trkpt lat="53.9387824" lon="16.2909231">
<ele>110</ele>
<time>2017-12-10T13:32:38Z</time>
</trkpt>
<trkpt lat="53.9392252" lon="16.2928757">
<ele>109</ele>
<time>2017-12-10T13:32:44Z</time>
</trkpt>
<trkpt lat="53.9396199" lon="16.2948306">
<ele>108</ele>
<time>2017-12-10T13:32:50Z</time>
</trkpt>
<trkpt lat="53.9400149" lon="16.2967485">
<ele>108</ele>
<time>2017-12-10T13:32:56Z</time>
</trkpt>
<trkpt lat="53.9404245" lon="16.2986760">
<ele>105</ele>
<time>2017-12-10T13:33:02Z</time>
</trkpt>
<trkpt lat="53.9408744" lon="16.3005412">
<ele>106</ele>
<time>2017-12-10T13:33:08Z</time>
</trkpt>
<trkpt lat="53.9413211" lon="16.3023692">
<ele>105</ele>
<time>2017-12-10T13:33:14Z</time>
</trkpt>
<trkpt lat="53.9417241" lon="16.3042578">
<ele>106</ele>
<time>2017-12-10T13:33:20Z</time>
</trkpt>
<trkpt lat="53.9421151" lon="16.3061568">
<ele>106</ele>
<time>2017-12-10T13:33:26Z</time>
</trkpt>
<trkpt lat="53.9425200" lon="16.3079976">
<ele>109</ele>
<time>2017-12-10T13:33:32Z</time>
</trkpt>
<trkpt lat="53.9428581" lon="16.3098260">
<ele>110</ele>
<time>2017-12-10T13:33:38Z</time>
</trkpt>
<trkpt lat="53.9432382" lon="16.3117312">
<ele>113</ele>
<time>2017-12-10T13:33:44Z</time>
</trkpt>
<trkpt lat="53.9436413" lon="16.3137315">
<ele>114</ele>
<time>2017-12-10T13:33:50Z</time>
</trkpt>
<trkpt lat="53.9440326" lon="16.3157026">
<ele>113</ele>
<time>2017-12-10T13:33:56Z</time>
</trkpt>
<trkpt lat="53.9444270" lon="16.3176515">
<ele>108</ele>
<time>2017-12-10T13:34:02Z</time>
</trkpt>
<trkpt lat="53.9448206" lon="16.3195820">
<ele>107</ele>
<time>2017-12-10T13:34:08Z</time>
</trkpt>
<trkpt lat="53.9451821" lon="16.3213937">
<ele>110</ele>
<time>2017-12-10T13:34:14Z</time>
</trkpt>
<trkpt lat="53.9454611" lon="16.3231641">
<ele>114</ele>
<time>2017-12-10T13:34:20Z</time>
</trkpt>
<trkpt lat="53.9459157" lon="16.3269558">
<ele>114</ele>
<time>2017-12-10T13:34:32Z</time>
</trkpt>
<trkpt lat="53.9461523" lon="16.3289469">
<ele>116</ele>
<time>2017-12-10T13:34:38Z</time>
</trkpt>
<trkpt lat="53.9463905" lon="16.3308707">
<ele>118</ele>
<time>2017-12-10T13:34:44Z</time>
</trkpt>
<trkpt lat="53.9467066" lon="16.3327193">
<ele>121</ele>
<time>2017-12-10T13:34:50Z</time>
</trkpt>
<trkpt lat="53.9471815" lon="16.3344661">
<ele>121</ele>
<time>2017-12-10T13:34:56Z</time>
</trkpt>
<trkpt lat="53.9477130" lon="16.3362092">
<ele>118</ele>
<time>2017-12-10T13:35:02Z</time>
</trkpt>
<trkpt lat="53.9482651" lon="16.3379498">
<ele>120</ele>
<time>2017-12-10T13:35:08Z</time>
</trkpt>
<trkpt lat="53.9487855" lon="16.3395776">
<ele>122</ele>
<time>2017-12-10T13:35:14Z</time>
</trkpt>
<trkpt lat="53.9491525" lon="16.3411845">
<ele>122</ele>
<time>2017-12-10T13:35:20Z</time>
</trkpt>
<trkpt lat="53.9492950" lon="16.3429105">
<ele>125</ele>
<time>2017-12-10T13:35:26Z</time>
</trkpt>
<trkpt lat="53.9494428" lon="16.3446690">
<ele>126</ele>
<time>2017-12-10T13:35:32Z</time>
</trkpt>
<trkpt lat="53.9496064" lon="16.3464343">
<ele>126</ele>
<time>2017-12-10T13:35:38Z</time>
</trkpt>
<trkpt lat="53.9497092" lon="16.3482343">
<ele>125</ele>
<time>2017-12-10T13:35:44Z</time>
</trkpt>
<trkpt lat="53.9497610" lon="16.3501016">
<ele>128</ele>
<time>2017-12-10T13:35:50Z</time>
</trkpt>
<trkpt lat="53.9498382" lon="16.3519996">
<ele>129</ele>
<time>2017-12-10T13:35:56Z</time>
</trkpt>
<trkpt lat="53.9499109" lon="16.3538938">
<ele>133</ele>
<time>2017-12-10T13:36:02Z</time>
</trkpt>
<trkpt lat="53.9499782" lon="16.3557775">
<ele>135</ele>
<time>2017-12-10T13:36:08Z</time>
</trkpt>
<trkpt lat="53.9505" lon="16.3614">
<ele>141</ele>
<time>2017-12-10T13:36:26Z</time>
</trkpt>
<trkpt lat="53.9508" lon="16.3633">
<ele>142</ele>
<time>2017-12-10T13:36:32Z</time>
</trkpt>
<trkpt lat="53.9511" lon="16.3653">
<ele>142</ele>
<time>2017-12-10T13:36:38Z</time>
</trkpt>
<trkpt lat="53.9513" lon="16.3672">
<ele>148</ele>
<time>2017-12-10T13:36:44Z</time>
</trkpt>
<trkpt lat="53.9515150" lon="16.3691757">
<ele>146</ele>
<time>2017-12-10T13:36:50Z</time>
</trkpt>
<trkpt lat="53.952" lon="16.375">
<ele>157</ele>
<time>2017-12-10T13:37:08Z</time>
</trkpt>
<trkpt lat="53.9521" lon="16.3769">
<ele>152</ele>
<time>2017-12-10T13:37:14Z</time>
</trkpt>
<trkpt lat="53.9523" lon="16.3789">
<ele>148</ele>
<time>2017-12-10T13:37:20Z</time>
</trkpt>
<trkpt lat="53.9524" lon="16.3808">
<ele>150</ele>
<time>2017-12-10T13:37:26Z</time>
</trkpt>
<trkpt lat="53.9525700" lon="16.3827416">
<ele>148</ele>
<time>2017-12-10T13:37:32Z</time>
</trkpt>
<trkpt lat="53.9532" lon="16.3885">
<ele>147</ele>
<time>2017-12-10T13:37:50Z</time>
</trkpt>
<trkpt lat="53.9534" lon="16.3905">
<ele>147</ele>
<time>2017-12-10T13:37:56Z</time>
</trkpt>
<trkpt lat="53.9534" lon="16.3926">
<ele>147</ele>
<time>2017-12-10T13:38:02Z</time>
</trkpt>
<trkpt lat="53.9536067" lon="16.3946655">
<ele>147</ele>
<time>2017-12-10T13:38:08Z</time>
</trkpt>
<trkpt lat="53.9539880" lon="16.3965743">
<ele>148</ele>
<time>2017-12-10T13:38:14Z</time>
</trkpt>
<trkpt lat="53.9559" lon="16.4012">
<ele>156</ele>
<time>2017-12-10T13:38:32Z</time>
</trkpt>
<trkpt lat="53.9566" lon="16.4023">
<ele>156</ele>
<time>2017-12-10T13:38:38Z</time>
</trkpt>
<trkpt lat="53.9572" lon="16.4036">
<ele>158</ele>
<time>2017-12-10T13:38:44Z</time>
</trkpt>
<trkpt lat="53.9578926" lon="16.4049892">
<ele>160</ele>
<time>2017-12-10T13:38:50Z</time>
</trkpt>
<trkpt lat="53.9585868" lon="16.4062910">
<ele>163</ele>
<time>2017-12-10T13:38:56Z</time>
</trkpt>
<trkpt lat="53.9594061" lon="16.4074539">
<ele>164</ele>
<time>2017-12-10T13:39:02Z</time>
</trkpt>
<trkpt lat="53.9602857" lon="16.4085886">
<ele>166</ele>
<time>2017-12-10T13:39:08Z</time>
</trkpt>
<trkpt lat="53.9611832" lon="16.4097748">
<ele>167</ele>
<time>2017-12-10T13:39:14Z</time>
</trkpt>
<trkpt lat="53.9620806" lon="16.4109740">
<ele>168</ele>
<time>2017-12-10T13:39:20Z</time>
</trkpt>
<trkpt lat="53.9629774" lon="16.4121791">
<ele>168</ele>
<time>2017-12-10T13:39:26Z</time>
</trkpt>
<trkpt lat="53.9638785" lon="16.4133892">
<ele>168</ele>
<time>2017-12-10T13:39:32Z</time>
</trkpt>
<trkpt lat="53.9647903" lon="16.4145781">
<ele>170</ele>
<time>2017-12-10T13:39:38Z</time>
</trkpt>
<trkpt lat="53.9657177" lon="16.4157943">
<ele>172</ele>
<time>2017-12-10T13:39:44Z</time>
</trkpt>
<trkpt lat="53.9666964" lon="16.4169446">
<ele>173</ele>
<time>2017-12-10T13:39:50Z</time>
</trkpt>
<trkpt lat="53.9676447" lon="16.4180846">
<ele>176</ele>
<time>2017-12-10T13:39:56Z</time>
</trkpt>
<trkpt lat="53.9685900" lon="16.4192493">
<ele>177</ele>
<time>2017-12-10T13:40:02Z</time>
</trkpt>
<trkpt lat="53.9695628" lon="16.4204147">
<ele>179</ele>
<time>2017-12-10T13:40:08Z</time>
</trkpt>
<trkpt lat="53.9705174" lon="16.4216021">
<ele>180</ele>
<time>2017-12-10T13:40:14Z</time>
</trkpt>
<trkpt lat="53.9714660" lon="16.4227751">
<ele>182</ele>
<time>2017-12-10T13:40:20Z</time>
</trkpt>
<trkpt lat="53.9724386" lon="16.4239050">
<ele>183</ele>
<time>2017-12-10T13:40:26Z</time>
</trkpt>
<trkpt lat="53.9732833" lon="16.4250772">
<ele>183</ele>
<time>2017-12-10T13:40:32Z</time>
</trkpt>
<trkpt lat="53.9738898" lon="16.4265793">
<ele>183</ele>
<time>2017-12-10T13:40:38Z</time>
</trkpt>
<trkpt lat="53.9745064" lon="16.4280988">
<ele>184</ele>
<time>2017-12-10T13:40:44Z</time>
</trkpt>
<trkpt lat="53.9751599" lon="16.4296350">
<ele>183</ele>
<time>2017-12-10T13:40:50Z</time>
</trkpt>
<trkpt lat="53.9758157" lon="16.4312039">
<ele>183</ele>
<time>2017-12-10T13:40:56Z</time>
</trkpt>
<trkpt lat="53.9764734" lon="16.4328085">
<ele>181</ele>
<time>2017-12-10T13:41:02Z</time>
</trkpt>
<trkpt lat="53.9771154" lon="16.4344048">
<ele>181</ele>
<time>2017-12-10T13:41:08Z</time>
</trkpt>
<trkpt lat="53.9777636" lon="16.4359792">
<ele>182</ele>
<time>2017-12-10T13:41:14Z</time>
</trkpt>
<trkpt lat="53.9784063" lon="16.4375641">
<ele>183</ele>
<time>2017-12-10T13:41:20Z</time>
</trkpt>
<trkpt lat="53.9790552" lon="16.4391644">
<ele>183</ele>
<time>2017-12-10T13:41:26Z</time>
</trkpt>
<trkpt lat="53.9797119" lon="16.4407970">
<ele>183</ele>
<time>2017-12-10T13:41:32Z</time>
</trkpt>
<trkpt lat="53.9803698" lon="16.4423658">
<ele>182</ele>
<time>2017-12-10T13:41:38Z</time>
</trkpt>
<trkpt lat="53.9810123" lon="16.4439436">
<ele>184</ele>
<time>2017-12-10T13:41:44Z</time>
</trkpt>
<trkpt lat="53.9816524" lon="16.4455027">
<ele>184</ele>
<time>2017-12-10T13:41:50Z</time>
</trkpt>
<trkpt lat="53.9823105" lon="16.4470700">
<ele>186</ele>
<time>2017-12-10T13:41:56Z</time>
</trkpt>
<trkpt lat="53.9829725" lon="16.4486588">
<ele>185</ele>
<time>2017-12-10T13:42:02Z</time>
</trkpt>
<trkpt lat="53.9836495" lon="16.4502682">
<ele>186</ele>
<time>2017-12-10T13:42:08Z</time>
</trkpt>
<trkpt lat="53.9843298" lon="16.4519135">
<ele>183</ele>
<time>2017-12-10T13:42:14Z</time>
</trkpt>
<trkpt lat="53.9849468" lon="16.4536469">
<ele>176</ele>
<time>2017-12-10T13:42:20Z</time>
</trkpt>
<trkpt lat="53.9854249" lon="16.4555312">
<ele>174</ele>
<time>2017-12-10T13:42:26Z</time>
</trkpt>
<trkpt lat="53.9859126" lon="16.4573729">
<ele>173</ele>
<time>2017-12-10T13:42:32Z</time>
</trkpt>
<trkpt lat="53.9863795" lon="16.4591857">
<ele>171</ele>
<time>2017-12-10T13:42:38Z</time>
</trkpt>
<trkpt lat="53.9868777" lon="16.4610642">
<ele>172</ele>
<time>2017-12-10T13:42:44Z</time>
</trkpt>
<trkpt lat="53.9874111" lon="16.4629613">
<ele>171</ele>
<time>2017-12-10T13:42:50Z</time>
</trkpt>
<trkpt lat="53.9878958" lon="16.4648691">
<ele>173</ele>
<time>2017-12-10T13:42:56Z</time>
</trkpt>
<trkpt lat="53.9883448" lon="16.4667053">
<ele>172</ele>
<time>2017-12-10T13:43:02Z</time>
</trkpt>
<trkpt lat="53.9888140" lon="16.4685016">
<ele>167</ele>
<time>2017-12-10T13:43:08Z</time>
</trkpt>
<trkpt lat="53.9892710" lon="16.4702618">
<ele>166</ele>
<time>2017-12-10T13:43:14Z</time>
</trkpt>
<trkpt lat="53.9896951" lon="16.4718867">
<ele>168</ele>
<time>2017-12-10T13:43:20Z</time>
</trkpt>
<trkpt lat="53.9901013" lon="16.4734012">
<ele>166</ele>
<time>2017-12-10T13:43:26Z</time>
</trkpt>
<trkpt lat="53.9904946" lon="16.4749356">
<ele>163</ele>
<time>2017-12-10T13:43:32Z</time>
</trkpt>
<trkpt lat="53.9908456" lon="16.4763257">
<ele>159</ele>
<time>2017-12-10T13:43:38Z</time>
</trkpt>
<trkpt lat="53.9910371" lon="16.4772990">
<ele>156</ele>
<time>2017-12-10T13:43:44Z</time>
</trkpt>
<trkpt lat="53.9908476" lon="16.4781445">
<ele>154</ele>
<time>2017-12-10T13:43:50Z</time>
</trkpt>
<trkpt lat="53.9906101" lon="16.4792451">
<ele>152</ele>
<time>2017-12-10T13:43:56Z</time>
</trkpt>
<trkpt lat="53.9903212" lon="16.4805480">
<ele>151</ele>
<time>2017-12-10T13:44:02Z</time>
</trkpt>
<trkpt lat="53.9900406" lon="16.4818544">
<ele>149</ele>
<time>2017-12-10T13:44:08Z</time>
</trkpt>
<trkpt lat="53.9896335" lon="16.4829997">
<ele>152</ele>
<time>2017-12-10T13:44:14Z</time>
</trkpt>
<trkpt lat="53.9890490" lon="16.4840991">
<ele>150</ele>
<time>2017-12-10T13:44:20Z</time>
</trkpt>
<trkpt lat="53.9885817" lon="16.4852866">
<ele>149</ele>
<time>2017-12-10T13:44:26Z</time>
</trkpt>
<trkpt lat="53.9884077" lon="16.4867622">
<ele>159</ele>
<time>2017-12-10T13:44:32Z</time>
</trkpt>
<trkpt lat="53.9882461" lon="16.4882382">
<ele>165</ele>
<time>2017-12-10T13:44:38Z</time>
</trkpt>
<trkpt lat="53.9880109" lon="16.4897311">
<ele>167</ele>
<time>2017-12-10T13:44:44Z</time>
</trkpt>
<trkpt lat="53.9876827" lon="16.4912670">
<ele>166</ele>
<time>2017-12-10T13:44:50Z</time>
</trkpt>
<trkpt lat="53.9873511" lon="16.4929023">
<ele>165</ele>
<time>2017-12-10T13:44:56Z</time>
</trkpt>
<trkpt lat="53.9870056" lon="16.4946161">
<ele>165</ele>
<time>2017-12-10T13:45:02Z</time>
</trkpt>
<trkpt lat="53.9866432" lon="16.4963688">
<ele>166</ele>
<time>2017-12-10T13:45:08Z</time>
</trkpt>
<trkpt lat="53.9862890" lon="16.4981378">
<ele>167</ele>
<time>2017-12-10T13:45:14Z</time>
</trkpt>
<trkpt lat="53.9859509" lon="16.4999350">
<ele>167</ele>
<time>2017-12-10T13:45:20Z</time>
</trkpt>
<trkpt lat="53.9856393" lon="16.5015386">
<ele>166</ele>
<time>2017-12-10T13:45:26Z</time>
</trkpt>
<trkpt lat="53.9853107" lon="16.5030276">
<ele>166</ele>
<time>2017-12-10T13:45:32Z</time>
</trkpt>
<trkpt lat="53.9849779" lon="16.5045874">
<ele>165</ele>
<time>2017-12-10T13:45:38Z</time>
</trkpt>
<trkpt lat="53.9846706" lon="16.5061063">
<ele>164</ele>
<time>2017-12-10T13:45:44Z</time>
</trkpt>
<trkpt lat="53.9843520" lon="16.5074679">
<ele>163</ele>
<time>2017-12-10T13:45:50Z</time>
</trkpt>
<trkpt lat="53.9840202" lon="16.5087368">
<ele>163</ele>
<time>2017-12-10T13:45:56Z</time>
</trkpt>
<trkpt lat="53.9836790" lon="16.5100308">
<ele>161</ele>
<time>2017-12-10T13:46:02Z</time>
</trkpt>
<trkpt lat="53.9833176" lon="16.5113606">
<ele>161</ele>
<time>2017-12-10T13:46:08Z</time>
</trkpt>
<trkpt lat="53.9829558" lon="16.5127376">
<ele>160</ele>
<time>2017-12-10T13:46:14Z</time>
</trkpt>
<trkpt lat="53.9825838" lon="16.5141433">
<ele>159</ele>
<time>2017-12-10T13:46:20Z</time>
</trkpt>
<trkpt lat="53.9822070" lon="16.5155698">
<ele>158</ele>
<time>2017-12-10T13:46:26Z</time>
</trkpt>
<trkpt lat="53.9818241" lon="16.5170101">
<ele>158</ele>
<time>2017-12-10T13:46:32Z</time>
</trkpt>
<trkpt lat="53.9814384" lon="16.5184382">
<ele>158</ele>
<time>2017-12-10T13:46:38Z</time>
</trkpt>
<trkpt lat="53.9812361" lon="16.5199793">
<ele>158</ele>
<time>2017-12-10T13:46:44Z</time>
</trkpt>
<trkpt lat="53.9810779" lon="16.5215886">
<ele>158</ele>
<time>2017-12-10T13:46:50Z</time>
</trkpt>
<trkpt lat="53.9809200" lon="16.5231663">
<ele>158</ele>
<time>2017-12-10T13:46:56Z</time>
</trkpt>
<trkpt lat="53.9807602" lon="16.5247520">
<ele>156</ele>
<time>2017-12-10T13:47:02Z</time>
</trkpt>
<trkpt lat="53.9805908" lon="16.5263615">
<ele>155</ele>
<time>2017-12-10T13:47:08Z</time>
</trkpt>
<trkpt lat="53.9804203" lon="16.5279798">
<ele>155</ele>
<time>2017-12-10T13:47:14Z</time>
</trkpt>
<trkpt lat="53.9802521" lon="16.5295949">
<ele>155</ele>
<time>2017-12-10T13:47:20Z</time>
</trkpt>
<trkpt lat="53.9800819" lon="16.5312178">
<ele>153</ele>
<time>2017-12-10T13:47:26Z</time>
</trkpt>
<trkpt lat="53.9799072" lon="16.5328258">
<ele>152</ele>
<time>2017-12-10T13:47:32Z</time>
</trkpt>
<trkpt lat="53.9797285" lon="16.5343484">
<ele>151</ele>
<time>2017-12-10T13:47:38Z</time>
</trkpt>
<trkpt lat="53.9795793" lon="16.5357687">
<ele>150</ele>
<time>2017-12-10T13:47:44Z</time>
</trkpt>
<trkpt lat="53.9794385" lon="16.5370898">
<ele>150</ele>
<time>2017-12-10T13:47:50Z</time>
</trkpt>
<trkpt lat="53.9793691" lon="16.5381196">
<ele>148</ele>
<time>2017-12-10T13:47:56Z</time>
</trkpt>
<trkpt lat="53.9793600" lon="16.5387062">
<ele>147</ele>
<time>2017-12-10T13:48:02Z</time>
</trkpt>
<trkpt lat="53.9790525" lon="16.5389348">
<ele>147</ele>
<time>2017-12-10T13:48:08Z</time>
</trkpt>
<trkpt lat="53.9785026" lon="16.5389802">
<ele>148</ele>
<time>2017-12-10T13:48:14Z</time>
</trkpt>
<trkpt lat="53.9778908" lon="16.5391162">
<ele>148</ele>
<time>2017-12-10T13:48:20Z</time>
</trkpt>
<trkpt lat="53.9772233" lon="16.5394865">
<ele>149</ele>
<time>2017-12-10T13:48:26Z</time>
</trkpt>
<trkpt lat="53.9764873" lon="16.5397859">
<ele>152</ele>
<time>2017-12-10T13:48:32Z</time>
</trkpt>
<trkpt lat="53.9757748" lon="16.5400412">
<ele>154</ele>
<time>2017-12-10T13:48:38Z</time>
</trkpt>
<trkpt lat="53.9752679" lon="16.5405782">
<ele>156</ele>
<time>2017-12-10T13:48:44Z</time>
</trkpt>
<trkpt lat="53.9750771" lon="16.5418823">
<ele>153</ele>
<time>2017-12-10T13:48:50Z</time>
</trkpt>
<trkpt lat="53.9748699" lon="16.5433586">
<ele>151</ele>
<time>2017-12-10T13:48:56Z</time>
</trkpt>
<trkpt lat="53.9744951" lon="16.5449932">
<ele>148</ele>
<time>2017-12-10T13:49:02Z</time>
</trkpt>
<trkpt lat="53.9740685" lon="16.5466277">
<ele>148</ele>
<time>2017-12-10T13:49:08Z</time>
</trkpt>
<trkpt lat="53.9739436" lon="16.5483033">
<ele>144</ele>
<time>2017-12-10T13:49:14Z</time>
</trkpt>
<trkpt lat="53.9738879" lon="16.5499302">
<ele>143</ele>
<time>2017-12-10T13:49:20Z</time>
</trkpt>
<trkpt lat="53.9738289" lon="16.5513693">
<ele>143</ele>
<time>2017-12-10T13:49:26Z</time>
</trkpt>
<trkpt lat="53.9738605" lon="16.5521424">
<ele>143</ele>
<time>2017-12-10T13:49:32Z</time>
</trkpt>
<trkpt lat="53.9738921" lon="16.5525049">
<ele>144</ele>
<time>2017-12-10T13:49:38Z</time>
</trkpt>
<trkpt lat="53.9735844" lon="16.5531021">
<ele>143</ele>
<time>2017-12-10T13:49:44Z</time>
</trkpt>
<trkpt lat="53.9731358" lon="16.5539545">
<ele>141</ele>
<time>2017-12-10T13:49:50Z</time>
</trkpt>
<trkpt lat="53.9726143" lon="16.5551659">
<ele>139</ele>
<time>2017-12-10T13:49:56Z</time>
</trkpt>
<trkpt lat="53.9720262" lon="16.5566160">
<ele>136</ele>
<time>2017-12-10T13:50:02Z</time>
</trkpt>
<trkpt lat="53.9713193" lon="16.5581527">
<ele>134</ele>
<time>2017-12-10T13:50:08Z</time>
</trkpt>
<trkpt lat="53.9704649" lon="16.5596696">
<ele>135</ele>
<time>2017-12-10T13:50:14Z</time>
</trkpt>
<trkpt lat="53.9695232" lon="16.5612038">
<ele>136</ele>
<time>2017-12-10T13:50:20Z</time>
</trkpt>
<trkpt lat="53.9685922" lon="16.5627579">
<ele>139</ele>
<time>2017-12-10T13:50:26Z</time>
</trkpt>
<trkpt lat="53.9679208" lon="16.5645701">
<ele>139</ele>
<time>2017-12-10T13:50:32Z</time>
</trkpt>
<trkpt lat="53.9675147" lon="16.5666795">
<ele>136</ele>
<time>2017-12-10T13:50:38Z</time>
</trkpt>
<trkpt lat="53.9671036" lon="16.5688853">
<ele>132</ele>
<time>2017-12-10T13:50:44Z</time>
</trkpt>
<trkpt lat="53.9664825" lon="16.5709951">
<ele>128</ele>
<time>2017-12-10T13:50:50Z</time>
</trkpt>
<trkpt lat="53.9657333" lon="16.5730636">
<ele>131</ele>
<time>2017-12-10T13:50:56Z</time>
</trkpt>
<trkpt lat="53.9650475" lon="16.5750255">
<ele>142</ele>
<time>2017-12-10T13:51:02Z</time>
</trkpt>
<trkpt lat="53.9644090" lon="16.5768048">
<ele>146</ele>
<time>2017-12-10T13:51:08Z</time>
</trkpt>
<trkpt lat="53.9638114" lon="16.5783214">
<ele>149</ele>
<time>2017-12-10T13:51:14Z</time>
</trkpt>
<trkpt lat="53.9631168" lon="16.5795319">
<ele>152</ele>
<time>2017-12-10T13:51:20Z</time>
</trkpt>
<trkpt lat="53.9623944" lon="16.5806490">
<ele>155</ele>
<time>2017-12-10T13:51:26Z</time>
</trkpt>
<trkpt lat="53.9616985" lon="16.5818302">
<ele>157</ele>
<time>2017-12-10T13:51:32Z</time>
</trkpt>
<trkpt lat="53.9609530" lon="16.5829012">
<ele>158</ele>
<time>2017-12-10T13:51:38Z</time>
</trkpt>
<trkpt lat="53.9600638" lon="16.5836628">
<ele>160</ele>
<time>2017-12-10T13:51:44Z</time>
</trkpt>
<trkpt lat="53.9592613" lon="16.5843736">
<ele>158</ele>
<time>2017-12-10T13:51:50Z</time>
</trkpt>
<trkpt lat="53.9585750" lon="16.5849762">
<ele>155</ele>
<time>2017-12-10T13:51:56Z</time>
</trkpt>
<trkpt lat="53.9580692" lon="16.5852151">
<ele>151</ele>
<time>2017-12-10T13:52:02Z</time>
</trkpt>
<trkpt lat="53.9575167" lon="16.5850106">
<ele>150</ele>
<time>2017-12-10T13:52:08Z</time>
</trkpt>
<trkpt lat="53.9569157" lon="16.5849061">
<ele>149</ele>
<time>2017-12-10T13:52:14Z</time>
</trkpt>
<trkpt lat="53.9563170" lon="16.5853585">
<ele>145</ele>
<time>2017-12-10T13:52:20Z</time>
</trkpt>
<trkpt lat="53.9557819" lon="16.5859799">
<ele>144</ele>
<time>2017-12-10T13:52:26Z</time>
</trkpt>
<trkpt lat="53.9554066" lon="16.5866660">
<ele>144</ele>
<time>2017-12-10T13:52:32Z</time>
</trkpt>
<trkpt lat="53.9551289" lon="16.5872043">
<ele>145</ele>
<time>2017-12-10T13:52:38Z</time>
</trkpt>
<trkpt lat="53.9549501" lon="16.5875217">
<ele>147</ele>
<time>2017-12-10T13:52:44Z</time>
</trkpt>
<trkpt lat="53.9547130" lon="16.5877057">
<ele>147</ele>
<time>2017-12-10T13:52:50Z</time>
</trkpt>
<trkpt lat="53.9544761" lon="16.5882931">
<ele>144</ele>
<time>2017-12-10T13:52:56Z</time>
</trkpt>
<trkpt lat="53.9539775" lon="16.5885895">
<ele>143</ele>
<time>2017-12-10T13:53:02Z</time>
</trkpt>
<trkpt lat="53.9533793" lon="16.5883746">
<ele>143</ele>
<time>2017-12-10T13:53:08Z</time>
</trkpt>
<trkpt lat="53.9528745" lon="16.5879247">
<ele>143</ele>
<time>2017-12-10T13:53:14Z</time>
</trkpt>
<trkpt lat="53.9525635" lon="16.5875019">
<ele>144</ele>
<time>2017-12-10T13:53:20Z</time>
</trkpt>
<trkpt lat="53.9523506" lon="16.5877517">
<ele>146</ele>
<time>2017-12-10T13:53:26Z</time>
</trkpt>
<trkpt lat="53.9521542" lon="16.5884398">
<ele>143</ele>
<time>2017-12-10T13:53:32Z</time>
</trkpt>
<trkpt lat="53.9517848" lon="16.5894118">
<ele>143</ele>
<time>2017-12-10T13:53:38Z</time>
</trkpt>
<trkpt lat="53.9513381" lon="16.5904249">
<ele>143</ele>
<time>2017-12-10T13:53:44Z</time>
</trkpt>
<trkpt lat="53.9511150" lon="16.5916058">
<ele>142</ele>
<time>2017-12-10T13:53:50Z</time>
</trkpt>
<trkpt lat="53.9510071" lon="16.5930026">
<ele>143</ele>
<time>2017-12-10T13:53:56Z</time>
</trkpt>
<trkpt lat="53.9505537" lon="16.5943732">
<ele>143</ele>
<time>2017-12-10T13:54:02Z</time>
</trkpt>
<trkpt lat="53.9500594" lon="16.5957931">
<ele>145</ele>
<time>2017-12-10T13:54:08Z</time>
</trkpt>
<trkpt lat="53.9495590" lon="16.5972604">
<ele>149</ele>
<time>2017-12-10T13:54:14Z</time>
</trkpt>
<trkpt lat="53.9490494" lon="16.5987398">
<ele>153</ele>
<time>2017-12-10T13:54:20Z</time>
</trkpt>
<trkpt lat="53.9485291" lon="16.6002109">
<ele>158</ele>
<time>2017-12-10T13:54:26Z</time>
</trkpt>
<trkpt lat="53.9479958" lon="16.6017252">
<ele>162</ele>
<time>2017-12-10T13:54:32Z</time>
</trkpt>
<trkpt lat="53.9473936" lon="16.6032512">
<ele>164</ele>
<time>2017-12-10T13:54:38Z</time>
</trkpt>
<trkpt lat="53.9467743" lon="16.6048555">
<ele>166</ele>
<time>2017-12-10T13:54:44Z</time>
</trkpt>
<trkpt lat="53.9461123" lon="16.6065005">
<ele>165</ele>
<time>2017-12-10T13:54:50Z</time>
</trkpt>
<trkpt lat="53.9452916" lon="16.6080311">
<ele>162</ele>
<time>2017-12-10T13:54:56Z</time>
</trkpt>
<trkpt lat="53.9442503" lon="16.6090802">
<ele>161</ele>
<time>2017-12-10T13:55:02Z</time>
</trkpt>
<trkpt lat="53.9415" lon="16.6122">
<ele>158</ele>
<time>2017-12-10T13:55:20Z</time>
</trkpt>
<trkpt lat="53.9412" lon="16.614">
<ele>158</ele>
<time>2017-12-10T13:55:26Z</time>
</trkpt>
<trkpt lat="53.9409" lon="16.6159">
<ele>158</ele>
<time>2017-12-10T13:55:32Z</time>
</trkpt>
<trkpt lat="53.9406" lon="16.6178">
<ele>158</ele>
<time>2017-12-10T13:55:38Z</time>
</trkpt>
<trkpt lat="53.9405" lon="16.6198">
<ele>157</ele>
<time>2017-12-10T13:55:44Z</time>
</trkpt>
<trkpt lat="53.9406" lon="16.6218">
<ele>161</ele>
<time>2017-12-10T13:55:50Z</time>
</trkpt>
<trkpt lat="53.9404" lon="16.6236">
<ele>161</ele>
<time>2017-12-10T13:55:56Z</time>
</trkpt>
<trkpt lat="53.9402" lon="16.6252">
<ele>162</ele>
<time>2017-12-10T13:56:02Z</time>
</trkpt>
<trkpt lat="53.9397" lon="16.6264">
<ele>161</ele>
<time>2017-12-10T13:56:08Z</time>
</trkpt>
<trkpt lat="53.9389" lon="16.6272">
<ele>161</ele>
<time>2017-12-10T13:56:14Z</time>
</trkpt>
<trkpt lat="53.938" lon="16.628">
<ele>162</ele>
<time>2017-12-10T13:56:20Z</time>
</trkpt>
<trkpt lat="53.9374" lon="16.6291">
<ele>168</ele>
<time>2017-12-10T13:56:26Z</time>
</trkpt>
<trkpt lat="53.9371189" lon="16.6307938">
<ele>171</ele>
<time>2017-12-10T13:56:32Z</time>
</trkpt>
<trkpt lat="53.9368684" lon="16.6325205">
<ele>174</ele>
<time>2017-12-10T13:56:38Z</time>
</trkpt>
<trkpt lat="53.9364746" lon="16.6342039">
<ele>178</ele>
<time>2017-12-10T13:56:44Z</time>
</trkpt>
<trkpt lat="53.9357638" lon="16.6356861">
<ele>178</ele>
<time>2017-12-10T13:56:50Z</time>
</trkpt>
<trkpt lat="53.9351917" lon="16.6373438">
<ele>182</ele>
<time>2017-12-10T13:56:56Z</time>
</trkpt>
<trkpt lat="53.9346886" lon="16.6391020">
<ele>187</ele>
<time>2017-12-10T13:57:02Z</time>
</trkpt>
<trkpt lat="53.9341160" lon="16.6407009">
<ele>191</ele>
<time>2017-12-10T13:57:08Z</time>
</trkpt>
<trkpt lat="53.9338408" lon="16.6425746">
<ele>190</ele>
<time>2017-12-10T13:57:14Z</time>
</trkpt>
<trkpt lat="53.9333381" lon="16.6443318">
<ele>190</ele>
<time>2017-12-10T13:57:20Z</time>
</trkpt>
<trkpt lat="53.9328109" lon="16.6460711">
<ele>192</ele>
<time>2017-12-10T13:57:26Z</time>
</trkpt>
<trkpt lat="53.9322585" lon="16.6476897">
<ele>197</ele>
<time>2017-12-10T13:57:32Z</time>
</trkpt>
<trkpt lat="53.9316587" lon="16.6491238">
<ele>197</ele>
<time>2017-12-10T13:57:38Z</time>
</trkpt>
<trkpt lat="53.9310897" lon="16.6505665">
<ele>195</ele>
<time>2017-12-10T13:57:44Z</time>
</trkpt>
<trkpt lat="53.9306797" lon="16.6522342">
<ele>196</ele>
<time>2017-12-10T13:57:50Z</time>
</trkpt>
<trkpt lat="53.9305266" lon="16.6540515">
<ele>201</ele>
<time>2017-12-10T13:57:56Z</time>
</trkpt>
<trkpt lat="53.9304958" lon="16.6558352">
<ele>205</ele>
<time>2017-12-10T13:58:02Z</time>
</trkpt>
<trkpt lat="53.9304519" lon="16.6576600">
<ele>207</ele>
<time>2017-12-10T13:58:08Z</time>
</trkpt>
<trkpt lat="53.9302314" lon="16.6594676">
<ele>208</ele>
<time>2017-12-10T13:58:14Z</time>
</trkpt>
<trkpt lat="53.9294800" lon="16.6611395">
<ele>204</ele>
<time>2017-12-10T13:58:20Z</time>
</trkpt>
<trkpt lat="53.9286682" lon="16.6626380">
<ele>201</ele>
<time>2017-12-10T13:58:26Z</time>
</trkpt>
<trkpt lat="53.9268" lon="16.6704">
<ele>191</ele>
<time>2017-12-10T13:58:50Z</time>
</trkpt>
<trkpt lat="53.9264" lon="16.6725">
<ele>190</ele>
<time>2017-12-10T13:58:56Z</time>
</trkpt>
<trkpt lat="53.926" lon="16.6746">
<ele>188</ele>
<time>2017-12-10T13:59:02Z</time>
</trkpt>
<trkpt lat="53.9255373" lon="16.6766741">
<ele>187</ele>
<time>2017-12-10T13:59:08Z</time>
</trkpt>
<trkpt lat="53.9251000" lon="16.6787559">
<ele>187</ele>
<time>2017-12-10T13:59:14Z</time>
</trkpt>
<trkpt lat="53.9166038" lon="16.7207827">
<ele>169</ele>
<time>2017-12-10T14:01:14Z</time>
</trkpt>
<trkpt lat="53.9161776" lon="16.7229363">
<ele>169</ele>
<time>2017-12-10T14:01:20Z</time>
</trkpt>
<trkpt lat="53.9157589" lon="16.7250423">
<ele>169</ele>
<time>2017-12-10T14:01:26Z</time>
</trkpt>
<trkpt lat="53.9153495" lon="16.7270936">
<ele>167</ele>
<time>2017-12-10T14:01:32Z</time>
</trkpt>
<trkpt lat="53.9149265" lon="16.7291403">
<ele>166</ele>
<time>2017-12-10T14:01:38Z</time>
</trkpt>
<trkpt lat="53.9131" lon="16.735">
<ele>178</ele>
<time>2017-12-10T14:01:56Z</time>
</trkpt>
<trkpt lat="53.9125" lon="16.7369">
<ele>184</ele>
<time>2017-12-10T14:02:02Z</time>
</trkpt>
<trkpt lat="53.9119" lon="16.7388">
<ele>187</ele>
<time>2017-12-10T14:02:08Z</time>
</trkpt>
<trkpt lat="53.9113" lon="16.7408">
<ele>186</ele>
<time>2017-12-10T14:02:14Z</time>
</trkpt>
<trkpt lat="53.9108" lon="16.7427">
<ele>186</ele>
<time>2017-12-10T14:02:20Z</time>
</trkpt>
<trkpt lat="53.9101" lon="16.7446">
<ele>189</ele>
<time>2017-12-10T14:02:26Z</time>
</trkpt>
<trkpt lat="53.9092182" lon="16.7462412">
<ele>193</ele>
<time>2017-12-10T14:02:32Z</time>
</trkpt>
<trkpt lat="53.9083164" lon="16.7477899">
<ele>196</ele>
<time>2017-12-10T14:02:38Z</time>
</trkpt>
<trkpt lat="53.9074562" lon="16.7492702">
<ele>199</ele>
<time>2017-12-10T14:02:44Z</time>
</trkpt>
<trkpt lat="53.9068110" lon="16.7509505">
<ele>199</ele>
<time>2017-12-10T14:02:50Z</time>
</trkpt>
<trkpt lat="53.9065673" lon="16.7529706">
<ele>199</ele>
<time>2017-12-10T14:02:56Z</time>
</trkpt>
<trkpt lat="53.9063458" lon="16.7550890">
<ele>201</ele>
<time>2017-12-10T14:03:02Z</time>
</trkpt>
<trkpt lat="53.9060923" lon="16.7572284">
<ele>202</ele>
<time>2017-12-10T14:03:08Z</time>
</trkpt>
<trkpt lat="53.9058129" lon="16.7593934">
<ele>204</ele>
<time>2017-12-10T14:03:14Z</time>
</trkpt>
<trkpt lat="53.9055437" lon="16.7615554">
<ele>204</ele>
<time>2017-12-10T14:03:20Z</time>
</trkpt>
<trkpt lat="53.9052788" lon="16.7637038">
<ele>203</ele>
<time>2017-12-10T14:03:26Z</time>
</trkpt>
<trkpt lat="53.9050382" lon="16.7657884">
<ele>205</ele>
<time>2017-12-10T14:03:32Z</time>
</trkpt>
<trkpt lat="53.9048032" lon="16.7678705">
<ele>206</ele>
<time>2017-12-10T14:03:38Z</time>
</trkpt>
<trkpt lat="53.9045596" lon="16.7699480">
<ele>207</ele>
<time>2017-12-10T14:03:44Z</time>
</trkpt>
<trkpt lat="53.9043210" lon="16.7720544">
<ele>208</ele>
<time>2017-12-10T14:03:50Z</time>
</trkpt>
<trkpt lat="53.9040606" lon="16.7742229">
<ele>206</ele>
<time>2017-12-10T14:03:56Z</time>
</trkpt>
<trkpt lat="53.9038039" lon="16.7764023">
<ele>206</ele>
<time>2017-12-10T14:04:02Z</time>
</trkpt>
<trkpt lat="53.9035457" lon="16.7785484">
<ele>205</ele>
<time>2017-12-10T14:04:08Z</time>
</trkpt>
<trkpt lat="53.9030128" lon="16.7829598">
<ele>205</ele>
<time>2017-12-10T14:04:20Z</time>
</trkpt>
<trkpt lat="53.9022" lon="16.7897">
<ele>206</ele>
<time>2017-12-10T14:04:38Z</time>
</trkpt>
<trkpt lat="53.9019" lon="16.7921">
<ele>201</ele>
<time>2017-12-10T14:04:44Z</time>
</trkpt>
<trkpt lat="53.9016" lon="16.7944">
<ele>200</ele>
<time>2017-12-10T14:04:50Z</time>
</trkpt>
<trkpt lat="53.9013522" lon="16.7967051">
<ele>201</ele>
<time>2017-12-10T14:04:56Z</time>
</trkpt>
<trkpt lat="53.9010845" lon="16.7988921">
<ele>204</ele>
<time>2017-12-10T14:05:02Z</time>
</trkpt>
<trkpt lat="53.9008279" lon="16.8010246">
<ele>206</ele>
<time>2017-12-10T14:05:08Z</time>
</trkpt>
<trkpt lat="53.9005836" lon="16.8031254">
<ele>208</ele>
<time>2017-12-10T14:05:14Z</time>
</trkpt>
<trkpt lat="53.9003331" lon="16.8052254">
<ele>210</ele>
<time>2017-12-10T14:05:20Z</time>
</trkpt>
<trkpt lat="53.9000881" lon="16.8073202">
<ele>211</ele>
<time>2017-12-10T14:05:26Z</time>
</trkpt>
<trkpt lat="53.8998382" lon="16.8094076">
<ele>212</ele>
<time>2017-12-10T14:05:32Z</time>
</trkpt>
<trkpt lat="53.8995874" lon="16.8114910">
<ele>213</ele>
<time>2017-12-10T14:05:38Z</time>
</trkpt>
<trkpt lat="53.8993353" lon="16.8135788">
<ele>213</ele>
<time>2017-12-10T14:05:44Z</time>
</trkpt>
<trkpt lat="53.8990855" lon="16.8156123">
<ele>214</ele>
<time>2017-12-10T14:05:50Z</time>
</trkpt>
<trkpt lat="53.8988319" lon="16.8177136">
<ele>214</ele>
<time>2017-12-10T14:05:56Z</time>
</trkpt>
<trkpt lat="53.8985828" lon="16.8198440">
<ele>214</ele>
<time>2017-12-10T14:06:02Z</time>
</trkpt>
<trkpt lat="53.8983302" lon="16.8219583">
<ele>214</ele>
<time>2017-12-10T14:06:08Z</time>
</trkpt>
<trkpt lat="53.8980885" lon="16.8240140">
<ele>214</ele>
<time>2017-12-10T14:06:14Z</time>
</trkpt>
<trkpt lat="53.8978563" lon="16.8259572">
<ele>213</ele>
<time>2017-12-10T14:06:20Z</time>
</trkpt>
<trkpt lat="53.8976551" lon="16.8275671">
<ele>204</ele>
<time>2017-12-10T14:06:26Z</time>
</trkpt>
<trkpt lat="53.8975188" lon="16.8286981">
<ele>203</ele>
<time>2017-12-10T14:06:32Z</time>
</trkpt>
<trkpt lat="53.8973283" lon="16.8298608">
<ele>200</ele>
<time>2017-12-10T14:06:38Z</time>
</trkpt>
<trkpt lat="53.8970565" lon="16.8308523">
<ele>199</ele>
<time>2017-12-10T14:06:44Z</time>
</trkpt>
<trkpt lat="53.8965329" lon="16.8314365">
<ele>196</ele>
<time>2017-12-10T14:06:50Z</time>
</trkpt>
<trkpt lat="53.8959439" lon="16.8319449">
<ele>192</ele>
<time>2017-12-10T14:06:56Z</time>
</trkpt>
<trkpt lat="53.8957740" lon="16.8327019">
<ele>189</ele>
<time>2017-12-10T14:07:02Z</time>
</trkpt>
<trkpt lat="53.8958965" lon="16.8334665">
<ele>192</ele>
<time>2017-12-10T14:07:08Z</time>
</trkpt>
<trkpt lat="53.8960835" lon="16.8342680">
<ele>195</ele>
<time>2017-12-10T14:07:14Z</time>
</trkpt>
<trkpt lat="53.8962661" lon="16.8349866">
<ele>196</ele>
<time>2017-12-10T14:07:20Z</time>
</trkpt>
<trkpt lat="53.8963474" lon="16.8354670">
<ele>194</ele>
<time>2017-12-10T14:07:26Z</time>
</trkpt>
<trkpt lat="53.8960500" lon="16.8356300">
<ele>192</ele>
<time>2017-12-10T14:07:32Z</time>
</trkpt>
<trkpt lat="53.8958814" lon="16.8361528">
<ele>192</ele>
<time>2017-12-10T14:07:38Z</time>
</trkpt>
<trkpt lat="53.8958540" lon="16.8367661">
<ele>193</ele>
<time>2017-12-10T14:07:44Z</time>
</trkpt>
<trkpt lat="53.8956968" lon="16.8373236">
<ele>197</ele>
<time>2017-12-10T14:07:50Z</time>
</trkpt>
<trkpt lat="53.8952300" lon="16.8376267">
<ele>197</ele>
<time>2017-12-10T14:07:56Z</time>
</trkpt>
<trkpt lat="53.8945929" lon="16.8379397">
<ele>196</ele>
<time>2017-12-10T14:08:02Z</time>
</trkpt>
<trkpt lat="53.8940206" lon="16.8382025">
<ele>198</ele>
<time>2017-12-10T14:08:08Z</time>
</trkpt>
<trkpt lat="53.8935851" lon="16.8387207">
<ele>199</ele>
<time>2017-12-10T14:08:14Z</time>
</trkpt>
<trkpt lat="53.8937521" lon="16.8396857">
<ele>204</ele>
<time>2017-12-10T14:08:20Z</time>
</trkpt>
<trkpt lat="53.8943181" lon="16.8398720">
<ele>204</ele>
<time>2017-12-10T14:08:26Z</time>
</trkpt>
<trkpt lat="53.8948130" lon="16.8402041">
<ele>205</ele>
<time>2017-12-10T14:08:32Z</time>
</trkpt>
<trkpt lat="53.8950771" lon="16.8411337">
<ele>210</ele>
<time>2017-12-10T14:08:38Z</time>
</trkpt>
<trkpt lat="53.8950655" lon="16.8420974">
<ele>211</ele>
<time>2017-12-10T14:08:44Z</time>
</trkpt>
<trkpt lat="53.8948801" lon="16.8430287">
<ele>211</ele>
<time>2017-12-10T14:08:50Z</time>
</trkpt>
<trkpt lat="53.8945894" lon="16.8437885">
<ele>212</ele>
<time>2017-12-10T14:08:56Z</time>
</trkpt>
<trkpt lat="53.8944834" lon="16.8440463">
<ele>213</ele>
<time>2017-12-10T14:09:02Z</time>
</trkpt>
<trkpt lat="53.8942746" lon="16.8443488">
<ele>213</ele>
<time>2017-12-10T14:09:08Z</time>
</trkpt>
<trkpt lat="53.8937465" lon="16.8449324">
<ele>214</ele>
<time>2017-12-10T14:09:14Z</time>
</trkpt>
<trkpt lat="53.8931710" lon="16.8455542">
<ele>214</ele>
<time>2017-12-10T14:09:20Z</time>
</trkpt>
<trkpt lat="53.8924633" lon="16.8463298">
<ele>214</ele>
<time>2017-12-10T14:09:26Z</time>
</trkpt>
<trkpt lat="53.8916937" lon="16.8471526">
<ele>213</ele>
<time>2017-12-10T14:09:32Z</time>
</trkpt>
<trkpt lat="53.8908484" lon="16.8480738">
<ele>213</ele>
<time>2017-12-10T14:09:38Z</time>
</trkpt>
<trkpt lat="53.8899957" lon="16.8489892">
<ele>212</ele>
<time>2017-12-10T14:09:44Z</time>
</trkpt>
<trkpt lat="53.8891437" lon="16.8499174">
<ele>211</ele>
<time>2017-12-10T14:09:50Z</time>
</trkpt>
<trkpt lat="53.8882347" lon="16.8508907">
<ele>210</ele>
<time>2017-12-10T14:09:56Z</time>
</trkpt>
<trkpt lat="53.8873367" lon="16.8518637">
<ele>209</ele>
<time>2017-12-10T14:10:02Z</time>
</trkpt>
<trkpt lat="53.8864338" lon="16.8528271">
<ele>209</ele>
<time>2017-12-10T14:10:08Z</time>
</trkpt>
<trkpt lat="53.8855237" lon="16.8538146">
<ele>207</ele>
<time>2017-12-10T14:10:14Z</time>
</trkpt>
<trkpt lat="53.8846334" lon="16.8548005">
<ele>208</ele>
<time>2017-12-10T14:10:20Z</time>
</trkpt>
<trkpt lat="53.8837318" lon="16.8557763">
<ele>206</ele>
<time>2017-12-10T14:10:26Z</time>
</trkpt>
<trkpt lat="53.8827481" lon="16.8568389">
<ele>205</ele>
<time>2017-12-10T14:10:32Z</time>
</trkpt>
<trkpt lat="53.8817146" lon="16.8579706">
<ele>204</ele>
<time>2017-12-10T14:10:38Z</time>
</trkpt>
<trkpt lat="53.8806508" lon="16.8591227">
<ele>203</ele>
<time>2017-12-10T14:10:44Z</time>
</trkpt>
<trkpt lat="53.8795514" lon="16.8603035">
<ele>201</ele>
<time>2017-12-10T14:10:50Z</time>
</trkpt>
<trkpt lat="53.8784256" lon="16.8615155">
<ele>201</ele>
<time>2017-12-10T14:10:56Z</time>
</trkpt>
<trkpt lat="53.8772950" lon="16.8627230">
<ele>201</ele>
<time>2017-12-10T14:11:02Z</time>
</trkpt>
<trkpt lat="53.8762031" lon="16.8639005">
<ele>200</ele>
<time>2017-12-10T14:11:08Z</time>
</trkpt>
<trkpt lat="53.8751043" lon="16.8650907">
<ele>200</ele>
<time>2017-12-10T14:11:14Z</time>
</trkpt>
<trkpt lat="53.8739890" lon="16.8663083">
<ele>200</ele>
<time>2017-12-10T14:11:20Z</time>
</trkpt>
<trkpt lat="53.8728647" lon="16.8675049">
<ele>200</ele>
<time>2017-12-10T14:11:26Z</time>
</trkpt>
<trkpt lat="53.8717422" lon="16.8687259">
<ele>200</ele>
<time>2017-12-10T14:11:32Z</time>
</trkpt>
<trkpt lat="53.8706393" lon="16.8699629">
<ele>199</ele>
<time>2017-12-10T14:11:38Z</time>
</trkpt>
<trkpt lat="53.8695569" lon="16.8711726">
<ele>199</ele>
<time>2017-12-10T14:11:44Z</time>
</trkpt>
<trkpt lat="53.8684945" lon="16.8723765">
<ele>199</ele>
<time>2017-12-10T14:11:50Z</time>
</trkpt>
<trkpt lat="53.8674228" lon="16.8735914">
<ele>201</ele>
<time>2017-12-10T14:11:56Z</time>
</trkpt>
<trkpt lat="53.8663371" lon="16.8747734">
<ele>201</ele>
<time>2017-12-10T14:12:02Z</time>
</trkpt>
<trkpt lat="53.8652863" lon="16.8759470">
<ele>201</ele>
<time>2017-12-10T14:12:08Z</time>
</trkpt>
<trkpt lat="53.8642374" lon="16.8771313">
<ele>200</ele>
<time>2017-12-10T14:12:14Z</time>
</trkpt>
<trkpt lat="53.8631883" lon="16.8783030">
<ele>200</ele>
<time>2017-12-10T14:12:20Z</time>
</trkpt>
<trkpt lat="53.8610930" lon="16.8806526">
<ele>198</ele>
<time>2017-12-10T14:12:32Z</time>
</trkpt>
<trkpt lat="53.8600374" lon="16.8818083">
<ele>199</ele>
<time>2017-12-10T14:12:38Z</time>
</trkpt>
<trkpt lat="53.8589688" lon="16.8829813">
<ele>199</ele>
<time>2017-12-10T14:12:44Z</time>
</trkpt>
<trkpt lat="53.8578939" lon="16.8841699">
<ele>200</ele>
<time>2017-12-10T14:12:50Z</time>
</trkpt>
<trkpt lat="53.8568243" lon="16.8853648">
<ele>199</ele>
<time>2017-12-10T14:12:56Z</time>
</trkpt>
<trkpt lat="53.8557697" lon="16.8865453">
<ele>198</ele>
<time>2017-12-10T14:13:02Z</time>
</trkpt>
<trkpt lat="53.8547204" lon="16.8877204">
<ele>197</ele>
<time>2017-12-10T14:13:08Z</time>
</trkpt>
<trkpt lat="53.8536605" lon="16.8889085">
<ele>196</ele>
<time>2017-12-10T14:13:14Z</time>
</trkpt>
<trkpt lat="53.8526012" lon="16.8901042">
<ele>195</ele>
<time>2017-12-10T14:13:20Z</time>
</trkpt>
<trkpt lat="53.8515297" lon="16.8913013">
<ele>195</ele>
<time>2017-12-10T14:13:26Z</time>
</trkpt>
<trkpt lat="53.8504447" lon="16.8924894">
<ele>194</ele>
<time>2017-12-10T14:13:32Z</time>
</trkpt>
<trkpt lat="53.8493561" lon="16.8937146">
<ele>193</ele>
<time>2017-12-10T14:13:38Z</time>
</trkpt>
<trkpt lat="53.8482769" lon="16.8949205">
<ele>192</ele>
<time>2017-12-10T14:13:44Z</time>
</trkpt>
<trkpt lat="53.8472011" lon="16.8960970">
<ele>192</ele>
<time>2017-12-10T14:13:50Z</time>
</trkpt>
<trkpt lat="53.8462167" lon="16.8973193">
<ele>191</ele>
<time>2017-12-10T14:13:56Z</time>
</trkpt>
<trkpt lat="53.8455118" lon="16.8990155">
<ele>193</ele>
<time>2017-12-10T14:14:02Z</time>
</trkpt>
<trkpt lat="53.8448049" lon="16.9008056">
<ele>192</ele>
<time>2017-12-10T14:14:08Z</time>
</trkpt>
<trkpt lat="53.8440865" lon="16.9026095">
<ele>192</ele>
<time>2017-12-10T14:14:14Z</time>
</trkpt>
<trkpt lat="53.8433567" lon="16.9044445">
<ele>191</ele>
<time>2017-12-10T14:14:20Z</time>
</trkpt>
<trkpt lat="53.8426025" lon="16.9063316">
<ele>189</ele>
<time>2017-12-10T14:14:26Z</time>
</trkpt>
<trkpt lat="53.8418492" lon="16.9082331">
<ele>188</ele>
<time>2017-12-10T14:14:32Z</time>
</trkpt>
<trkpt lat="53.8411129" lon="16.9101393">
<ele>188</ele>
<time>2017-12-10T14:14:38Z</time>
</trkpt>
<trkpt lat="53.8403804" lon="16.9119750">
<ele>187</ele>
<time>2017-12-10T14:14:44Z</time>
</trkpt>
<trkpt lat="53.8396988" lon="16.9136981">
<ele>186</ele>
<time>2017-12-10T14:14:50Z</time>
</trkpt>
<trkpt lat="53.8391890" lon="16.9152630">
<ele>185</ele>
<time>2017-12-10T14:14:56Z</time>
</trkpt>
<trkpt lat="53.8389032" lon="16.9168041">
<ele>186</ele>
<time>2017-12-10T14:15:02Z</time>
</trkpt>
<trkpt lat="53.8386247" lon="16.9181952">
<ele>187</ele>
<time>2017-12-10T14:15:08Z</time>
</trkpt>
<trkpt lat="53.8383193" lon="16.9194757">
<ele>187</ele>
<time>2017-12-10T14:15:14Z</time>
</trkpt>
<trkpt lat="53.8380124" lon="16.9207202">
<ele>186</ele>
<time>2017-12-10T14:15:20Z</time>
</trkpt>
<trkpt lat="53.8377472" lon="16.9220456">
<ele>186</ele>
<time>2017-12-10T14:15:26Z</time>
</trkpt>
<trkpt lat="53.8374781" lon="16.9232910">
<ele>187</ele>
<time>2017-12-10T14:15:32Z</time>
</trkpt>
<trkpt lat="53.8370372" lon="16.9244037">
<ele>187</ele>
<time>2017-12-10T14:15:38Z</time>
</trkpt>
<trkpt lat="53.8365785" lon="16.9255932">
<ele>188</ele>
<time>2017-12-10T14:15:44Z</time>
</trkpt>
<trkpt lat="53.8361384" lon="16.9268161">
<ele>190</ele>
<time>2017-12-10T14:15:50Z</time>
</trkpt>
<trkpt lat="53.8356946" lon="16.9280481">
<ele>191</ele>
<time>2017-12-10T14:15:56Z</time>
</trkpt>
<trkpt lat="53.8352396" lon="16.9292775">
<ele>192</ele>
<time>2017-12-10T14:16:02Z</time>
</trkpt>
<trkpt lat="53.8347835" lon="16.9305273">
<ele>191</ele>
<time>2017-12-10T14:16:08Z</time>
</trkpt>
<trkpt lat="53.8342305" lon="16.9317254">
<ele>188</ele>
<time>2017-12-10T14:16:14Z</time>
</trkpt>
<trkpt lat="53.8335280" lon="16.9327809">
<ele>186</ele>
<time>2017-12-10T14:16:20Z</time>
</trkpt>
<trkpt lat="53.8328073" lon="16.9339115">
<ele>184</ele>
<time>2017-12-10T14:16:26Z</time>
</trkpt>
<trkpt lat="53.8320459" lon="16.9351039">
<ele>184</ele>
<time>2017-12-10T14:16:32Z</time>
</trkpt>
<trkpt lat="53.8312512" lon="16.9362540">
<ele>184</ele>
<time>2017-12-10T14:16:38Z</time>
</trkpt>
<trkpt lat="53.8304087" lon="16.9373873">
<ele>184</ele>
<time>2017-12-10T14:16:44Z</time>
</trkpt>
<trkpt lat="53.8295442" lon="16.9385834">
<ele>184</ele>
<time>2017-12-10T14:16:50Z</time>
</trkpt>
<trkpt lat="53.8285899" lon="16.9398714">
<ele>182</ele>
<time>2017-12-10T14:16:56Z</time>
</trkpt>
<trkpt lat="53.8276517" lon="16.9411453">
<ele>183</ele>
<time>2017-12-10T14:17:02Z</time>
</trkpt>
<trkpt lat="53.8267016" lon="16.9424285">
<ele>183</ele>
<time>2017-12-10T14:17:08Z</time>
</trkpt>
<trkpt lat="53.8257439" lon="16.9437189">
<ele>184</ele>
<time>2017-12-10T14:17:14Z</time>
</trkpt>
<trkpt lat="53.8247878" lon="16.9450252">
<ele>184</ele>
<time>2017-12-10T14:17:20Z</time>
</trkpt>
<trkpt lat="53.8238110" lon="16.9463100">
<ele>185</ele>
<time>2017-12-10T14:17:26Z</time>
</trkpt>
<trkpt lat="53.8228598" lon="16.9475771">
<ele>184</ele>
<time>2017-12-10T14:17:32Z</time>
</trkpt>
<trkpt lat="53.8219372" lon="16.9488365">
<ele>184</ele>
<time>2017-12-10T14:17:38Z</time>
</trkpt>
<trkpt lat="53.8212371" lon="16.9503439">
<ele>185</ele>
<time>2017-12-10T14:17:44Z</time>
</trkpt>
<trkpt lat="53.8207785" lon="16.9522307">
<ele>182</ele>
<time>2017-12-10T14:17:50Z</time>
</trkpt>
<trkpt lat="53.8202687" lon="16.9541392">
<ele>182</ele>
<time>2017-12-10T14:17:56Z</time>
</trkpt>
<trkpt lat="53.8197525" lon="16.9560818">
<ele>182</ele>
<time>2017-12-10T14:18:02Z</time>
</trkpt>
<trkpt lat="53.8192328" lon="16.9580345">
<ele>183</ele>
<time>2017-12-10T14:18:08Z</time>
</trkpt>
<trkpt lat="53.8187137" lon="16.9600024">
<ele>183</ele>
<time>2017-12-10T14:18:14Z</time>
</trkpt>
<trkpt lat="53.8182013" lon="16.9619701">
<ele>182</ele>
<time>2017-12-10T14:18:20Z</time>
</trkpt>
<trkpt lat="53.8176942" lon="16.9639226">
<ele>182</ele>
<time>2017-12-10T14:18:26Z</time>
</trkpt>
<trkpt lat="53.8171765" lon="16.9658862">
<ele>182</ele>
<time>2017-12-10T14:18:32Z</time>
</trkpt>
<trkpt lat="53.8166574" lon="16.9678875">
<ele>182</ele>
<time>2017-12-10T14:18:38Z</time>
</trkpt>
<trkpt lat="53.8161326" lon="16.9698938">
<ele>183</ele>
<time>2017-12-10T14:18:44Z</time>
</trkpt>
<trkpt lat="53.8156043" lon="16.9719296">
<ele>182</ele>
<time>2017-12-10T14:18:50Z</time>
</trkpt>
<trkpt lat="53.8150716" lon="16.9740019">
<ele>182</ele>
<time>2017-12-10T14:18:56Z</time>
</trkpt>
<trkpt lat="53.8145340" lon="16.9760645">
<ele>181</ele>
<time>2017-12-10T14:19:02Z</time>
</trkpt>
<trkpt lat="53.8139903" lon="16.9781128">
<ele>182</ele>
<time>2017-12-10T14:19:08Z</time>
</trkpt>
<trkpt lat="53.8134379" lon="16.9801918">
<ele>181</ele>
<time>2017-12-10T14:19:14Z</time>
</trkpt>
<trkpt lat="53.8128926" lon="16.9822849">
<ele>181</ele>
<time>2017-12-10T14:19:20Z</time>
</trkpt>
<trkpt lat="53.8123422" lon="16.9844148">
<ele>180</ele>
<time>2017-12-10T14:19:26Z</time>
</trkpt>
<trkpt lat="53.8117891" lon="16.9865430">
<ele>179</ele>
<time>2017-12-10T14:19:32Z</time>
</trkpt>
<trkpt lat="53.8112627" lon="16.9885918">
<ele>179</ele>
<time>2017-12-10T14:19:38Z</time>
</trkpt>
<trkpt lat="53.8107173" lon="16.9906491">
<ele>179</ele>
<time>2017-12-10T14:19:44Z</time>
</trkpt>
<trkpt lat="53.8101781" lon="16.9927410">
<ele>179</ele>
<time>2017-12-10T14:19:50Z</time>
</trkpt>
<trkpt lat="53.8096382" lon="16.9948101">
<ele>179</ele>
<time>2017-12-10T14:19:56Z</time>
</trkpt>
<trkpt lat="53.8075833" lon="17.0027633">
<ele>178</ele>
<time>2017-12-10T14:20:20Z</time>
</trkpt>
<trkpt lat="53.8065606" lon="17.0066871">
<ele>178</ele>
<time>2017-12-10T14:20:32Z</time>
</trkpt>
<trkpt lat="53.8060601" lon="17.0086567">
<ele>178</ele>
<time>2017-12-10T14:20:38Z</time>
</trkpt>
<trkpt lat="53.805" lon="17.014">
<ele>178</ele>
<time>2017-12-10T14:20:56Z</time>
</trkpt>
<trkpt lat="53.8047" lon="17.0156">
<ele>178</ele>
<time>2017-12-10T14:21:02Z</time>
</trkpt>
<trkpt lat="53.8044" lon="17.0172">
<ele>178</ele>
<time>2017-12-10T14:21:08Z</time>
</trkpt>
<trkpt lat="53.8040717" lon="17.0186939">
<ele>177</ele>
<time>2017-12-10T14:21:14Z</time>
</trkpt>
<trkpt lat="53.8037401" lon="17.0203532">
<ele>178</ele>
<time>2017-12-10T14:21:20Z</time>
</trkpt>
<trkpt lat="53.8034137" lon="17.0220247">
<ele>179</ele>
<time>2017-12-10T14:21:26Z</time>
</trkpt>
<trkpt lat="53.8031247" lon="17.0237179">
<ele>180</ele>
<time>2017-12-10T14:21:32Z</time>
</trkpt>
<trkpt lat="53.8028995" lon="17.0255162">
<ele>180</ele>
<time>2017-12-10T14:21:38Z</time>
</trkpt>
<trkpt lat="53.8026431" lon="17.0273162">
<ele>181</ele>
<time>2017-12-10T14:21:44Z</time>
</trkpt>
<trkpt lat="53.8021839" lon="17.0290353">
<ele>182</ele>
<time>2017-12-10T14:21:50Z</time>
</trkpt>
<trkpt lat="53.8016079" lon="17.0308119">
<ele>181</ele>
<time>2017-12-10T14:21:56Z</time>
</trkpt>
<trkpt lat="53.8009871" lon="17.0326999">
<ele>182</ele>
<time>2017-12-10T14:22:02Z</time>
</trkpt>
<trkpt lat="53.8003732" lon="17.0346610">
<ele>180</ele>
<time>2017-12-10T14:22:08Z</time>
</trkpt>
<trkpt lat="53.7997369" lon="17.0366571">
<ele>179</ele>
<time>2017-12-10T14:22:14Z</time>
</trkpt>
<trkpt lat="53.7984392" lon="17.0407170">
<ele>180</ele>
<time>2017-12-10T14:22:26Z</time>
</trkpt>
<trkpt lat="53.7977837" lon="17.0427433">
<ele>179</ele>
<time>2017-12-10T14:22:32Z</time>
</trkpt>
<trkpt lat="53.7971346" lon="17.0447850">
<ele>179</ele>
<time>2017-12-10T14:22:38Z</time>
</trkpt>
<trkpt lat="53.7964785" lon="17.0468310">
<ele>178</ele>
<time>2017-12-10T14:22:44Z</time>
</trkpt>
<trkpt lat="53.7958308" lon="17.0488791">
<ele>178</ele>
<time>2017-12-10T14:22:50Z</time>
</trkpt>
<trkpt lat="53.7951811" lon="17.0508896">
<ele>177</ele>
<time>2017-12-10T14:22:56Z</time>
</trkpt>
<trkpt lat="53.7945414" lon="17.0528646">
<ele>176</ele>
<time>2017-12-10T14:23:02Z</time>
</trkpt>
<trkpt lat="53.7939166" lon="17.0547876">
<ele>177</ele>
<time>2017-12-10T14:23:08Z</time>
</trkpt>
<trkpt lat="53.7932922" lon="17.0567322">
<ele>176</ele>
<time>2017-12-10T14:23:14Z</time>
</trkpt>
<trkpt lat="53.7926172" lon="17.0586073">
<ele>175</ele>
<time>2017-12-10T14:23:20Z</time>
</trkpt>
<trkpt lat="53.7916625" lon="17.0601214">
<ele>177</ele>
<time>2017-12-10T14:23:26Z</time>
</trkpt>
<trkpt lat="53.7906791" lon="17.0616672">
<ele>179</ele>
<time>2017-12-10T14:23:32Z</time>
</trkpt>
<trkpt lat="53.7896921" lon="17.0632510">
<ele>178</ele>
<time>2017-12-10T14:23:38Z</time>
</trkpt>
<trkpt lat="53.7887050" lon="17.0648289">
<ele>178</ele>
<time>2017-12-10T14:23:44Z</time>
</trkpt>
<trkpt lat="53.7877028" lon="17.0664297">
<ele>177</ele>
<time>2017-12-10T14:23:50Z</time>
</trkpt>
<trkpt lat="53.7867009" lon="17.0680433">
<ele>176</ele>
<time>2017-12-10T14:23:56Z</time>
</trkpt>
<trkpt lat="53.7857017" lon="17.0696134">
<ele>177</ele>
<time>2017-12-10T14:24:02Z</time>
</trkpt>
<trkpt lat="53.7847262" lon="17.0711618">
<ele>176</ele>
<time>2017-12-10T14:24:08Z</time>
</trkpt>
<trkpt lat="53.7837529" lon="17.0726933">
<ele>177</ele>
<time>2017-12-10T14:24:14Z</time>
</trkpt>
<trkpt lat="53.7827726" lon="17.0742368">
<ele>177</ele>
<time>2017-12-10T14:24:20Z</time>
</trkpt>
<trkpt lat="53.7817946" lon="17.0758069">
<ele>178</ele>
<time>2017-12-10T14:24:26Z</time>
</trkpt>
<trkpt lat="53.7807953" lon="17.0773986">
<ele>178</ele>
<time>2017-12-10T14:24:32Z</time>
</trkpt>
<trkpt lat="53.7797870" lon="17.0790076">
<ele>178</ele>
<time>2017-12-10T14:24:38Z</time>
</trkpt>
<trkpt lat="53.7787853" lon="17.0805891">
<ele>179</ele>
<time>2017-12-10T14:24:44Z</time>
</trkpt>
<trkpt lat="53.7777756" lon="17.0821807">
<ele>180</ele>
<time>2017-12-10T14:24:50Z</time>
</trkpt>
<trkpt lat="53.7767816" lon="17.0837636">
<ele>180</ele>
<time>2017-12-10T14:24:56Z</time>
</trkpt>
<trkpt lat="53.7758137" lon="17.0852823">
<ele>182</ele>
<time>2017-12-10T14:25:02Z</time>
</trkpt>
<trkpt lat="53.7748570" lon="17.0868000">
<ele>183</ele>
<time>2017-12-10T14:25:08Z</time>
</trkpt>
<trkpt lat="53.7738983" lon="17.0883534">
<ele>182</ele>
<time>2017-12-10T14:25:14Z</time>
</trkpt>
<trkpt lat="53.7729415" lon="17.0898754">
<ele>184</ele>
<time>2017-12-10T14:25:20Z</time>
</trkpt>
<trkpt lat="53.7719774" lon="17.0914091">
<ele>187</ele>
<time>2017-12-10T14:25:26Z</time>
</trkpt>
<trkpt lat="53.7709914" lon="17.0929844">
<ele>186</ele>
<time>2017-12-10T14:25:32Z</time>
</trkpt>
<trkpt lat="53.7699807" lon="17.0945582">
<ele>186</ele>
<time>2017-12-10T14:25:38Z</time>
</trkpt>
<trkpt lat="53.7689412" lon="17.0961487">
<ele>188</ele>
<time>2017-12-10T14:25:44Z</time>
</trkpt>
<trkpt lat="53.7678832" lon="17.0977700">
<ele>190</ele>
<time>2017-12-10T14:25:50Z</time>
</trkpt>
<trkpt lat="53.7668456" lon="17.0994052">
<ele>192</ele>
<time>2017-12-10T14:25:56Z</time>
</trkpt>
<trkpt lat="53.7658250" lon="17.1009977">
<ele>192</ele>
<time>2017-12-10T14:26:02Z</time>
</trkpt>
<trkpt lat="53.7649105" lon="17.1024050">
<ele>191</ele>
<time>2017-12-10T14:26:08Z</time>
</trkpt>
<trkpt lat="53.7641400" lon="17.1036061">
<ele>189</ele>
<time>2017-12-10T14:26:14Z</time>
</trkpt>
<trkpt lat="53.7634702" lon="17.1046456">
<ele>188</ele>
<time>2017-12-10T14:26:20Z</time>
</trkpt>
<trkpt lat="53.7628847" lon="17.1055482">
<ele>187</ele>
<time>2017-12-10T14:26:26Z</time>
</trkpt>
<trkpt lat="53.7623458" lon="17.1063939">
<ele>187</ele>
<time>2017-12-10T14:26:32Z</time>
</trkpt>
<trkpt lat="53.7617322" lon="17.1071969">
<ele>185</ele>
<time>2017-12-10T14:26:38Z</time>
</trkpt>
<trkpt lat="53.7609538" lon="17.1075561">
<ele>185</ele>
<time>2017-12-10T14:26:44Z</time>
</trkpt>
<trkpt lat="53.7600908" lon="17.1075255">
<ele>184</ele>
<time>2017-12-10T14:26:50Z</time>
</trkpt>
<trkpt lat="53.7592670" lon="17.1074849">
<ele>183</ele>
<time>2017-12-10T14:26:56Z</time>
</trkpt>
<trkpt lat="53.7584261" lon="17.1075853">
<ele>184</ele>
<time>2017-12-10T14:27:02Z</time>
</trkpt>
<trkpt lat="53.7578848" lon="17.1076838">
<ele>182</ele>
<time>2017-12-10T14:27:08Z</time>
</trkpt>
<trkpt lat="53.7576061" lon="17.1077084">
<ele>184</ele>
<time>2017-12-10T14:27:14Z</time>
</trkpt>
<trkpt lat="53.7575874" lon="17.1083163">
<ele>189</ele>
<time>2017-12-10T14:27:20Z</time>
</trkpt>
<trkpt lat="53.7573604" lon="17.1090692">
<ele>187</ele>
<time>2017-12-10T14:27:26Z</time>
</trkpt>
<trkpt lat="53.7570530" lon="17.1101125">
<ele>185</ele>
<time>2017-12-10T14:27:32Z</time>
</trkpt>
<trkpt lat="53.7567803" lon="17.1113018">
<ele>185</ele>
<time>2017-12-10T14:27:38Z</time>
</trkpt>
<trkpt lat="53.7565617" lon="17.1125217">
<ele>186</ele>
<time>2017-12-10T14:27:44Z</time>
</trkpt>
<trkpt lat="53.7562586" lon="17.1138200">
<ele>186</ele>
<time>2017-12-10T14:27:50Z</time>
</trkpt>
<trkpt lat="53.7556724" lon="17.1149832">
<ele>186</ele>
<time>2017-12-10T14:27:56Z</time>
</trkpt>
<trkpt lat="53.7552308" lon="17.1163062">
<ele>189</ele>
<time>2017-12-10T14:28:02Z</time>
</trkpt>
<trkpt lat="53.7552434" lon="17.1177478">
<ele>189</ele>
<time>2017-12-10T14:28:08Z</time>
</trkpt>
<trkpt lat="53.7554304" lon="17.1190249">
<ele>188</ele>
<time>2017-12-10T14:28:14Z</time>
</trkpt>
<trkpt lat="53.7555968" lon="17.1201772">
<ele>189</ele>
<time>2017-12-10T14:28:20Z</time>
</trkpt>
<trkpt lat="53.7555184" lon="17.1212512">
<ele>188</ele>
<time>2017-12-10T14:28:26Z</time>
</trkpt>
<trkpt lat="53.7553161" lon="17.1223549">
<ele>189</ele>
<time>2017-12-10T14:28:32Z</time>
</trkpt>
<trkpt lat="53.7551137" lon="17.1235175">
<ele>190</ele>
<time>2017-12-10T14:28:38Z</time>
</trkpt>
<trkpt lat="53.7549019" lon="17.1247092">
<ele>191</ele>
<time>2017-12-10T14:28:44Z</time>
</trkpt>
<trkpt lat="53.7546794" lon="17.1260171">
<ele>192</ele>
<time>2017-12-10T14:28:50Z</time>
</trkpt>
<trkpt lat="53.7544289" lon="17.1274704">
<ele>193</ele>
<time>2017-12-10T14:28:56Z</time>
</trkpt>
<trkpt lat="53.7541479" lon="17.1290992">
<ele>194</ele>
<time>2017-12-10T14:29:02Z</time>
</trkpt>
<trkpt lat="53.7538628" lon="17.1308680">
<ele>195</ele>
<time>2017-12-10T14:29:08Z</time>
</trkpt>
<trkpt lat="53.7535587" lon="17.1326996">
<ele>196</ele>
<time>2017-12-10T14:29:14Z</time>
</trkpt>
<trkpt lat="53.7532473" lon="17.1345486">
<ele>196</ele>
<time>2017-12-10T14:29:20Z</time>
</trkpt>
<trkpt lat="53.7529333" lon="17.1364353">
<ele>196</ele>
<time>2017-12-10T14:29:26Z</time>
</trkpt>
<trkpt lat="53.7526256" lon="17.1382782">
<ele>196</ele>
<time>2017-12-10T14:29:32Z</time>
</trkpt>
<trkpt lat="53.7523108" lon="17.1401554">
<ele>195</ele>
<time>2017-12-10T14:29:38Z</time>
</trkpt>
<trkpt lat="53.7519851" lon="17.1420363">
<ele>195</ele>
<time>2017-12-10T14:29:44Z</time>
</trkpt>
<trkpt lat="53.7516447" lon="17.1439978">
<ele>195</ele>
<time>2017-12-10T14:29:50Z</time>
</trkpt>
<trkpt lat="53.7513105" lon="17.1460419">
<ele>193</ele>
<time>2017-12-10T14:29:56Z</time>
</trkpt>
<trkpt lat="53.7510299" lon="17.1481546">
<ele>193</ele>
<time>2017-12-10T14:30:02Z</time>
</trkpt>
<trkpt lat="53.7507716" lon="17.1502429">
<ele>192</ele>
<time>2017-12-10T14:30:08Z</time>
</trkpt>
<trkpt lat="53.7505119" lon="17.1523419">
<ele>192</ele>
<time>2017-12-10T14:30:14Z</time>
</trkpt>
<trkpt lat="53.7502528" lon="17.1544071">
<ele>193</ele>
<time>2017-12-10T14:30:20Z</time>
</trkpt>
<trkpt lat="53.7499900" lon="17.1564633">
<ele>195</ele>
<time>2017-12-10T14:30:26Z</time>
</trkpt>
<trkpt lat="53.7496924" lon="17.1584987">
<ele>191</ele>
<time>2017-12-10T14:30:32Z</time>
</trkpt>
<trkpt lat="53.7492829" lon="17.1604939">
<ele>193</ele>
<time>2017-12-10T14:30:38Z</time>
</trkpt>
<trkpt lat="53.7488728" lon="17.1624792">
<ele>194</ele>
<time>2017-12-10T14:30:44Z</time>
</trkpt>
<trkpt lat="53.7484646" lon="17.1644850">
<ele>194</ele>
<time>2017-12-10T14:30:50Z</time>
</trkpt>
<trkpt lat="53.7480574" lon="17.1664850">
<ele>195</ele>
<time>2017-12-10T14:30:56Z</time>
</trkpt>
<trkpt lat="53.7476696" lon="17.1684040">
<ele>196</ele>
<time>2017-12-10T14:31:02Z</time>
</trkpt>
<trkpt lat="53.7472914" lon="17.1703125">
<ele>194</ele>
<time>2017-12-10T14:31:08Z</time>
</trkpt>
<trkpt lat="53.7467745" lon="17.1720445">
<ele>190</ele>
<time>2017-12-10T14:31:14Z</time>
</trkpt>
<trkpt lat="53.7459065" lon="17.1732861">
<ele>191</ele>
<time>2017-12-10T14:31:20Z</time>
</trkpt>
<trkpt lat="53.7450171" lon="17.1745103">
<ele>191</ele>
<time>2017-12-10T14:31:26Z</time>
</trkpt>
<trkpt lat="53.7441182" lon="17.1757868">
<ele>190</ele>
<time>2017-12-10T14:31:32Z</time>
</trkpt>
<trkpt lat="53.7432122" lon="17.1770532">
<ele>189</ele>
<time>2017-12-10T14:31:38Z</time>
</trkpt>
<trkpt lat="53.7423308" lon="17.1783827">
<ele>190</ele>
<time>2017-12-10T14:31:44Z</time>
</trkpt>
<trkpt lat="53.7417170" lon="17.1800318">
<ele>190</ele>
<time>2017-12-10T14:31:50Z</time>
</trkpt>
<trkpt lat="53.7411877" lon="17.1817272">
<ele>190</ele>
<time>2017-12-10T14:31:56Z</time>
</trkpt>
<trkpt lat="53.7406553" lon="17.1833826">
<ele>191</ele>
<time>2017-12-10T14:32:02Z</time>
</trkpt>
<trkpt lat="53.7401287" lon="17.1850640">
<ele>191</ele>
<time>2017-12-10T14:32:08Z</time>
</trkpt>
<trkpt lat="53.7395950" lon="17.1867837">
<ele>192</ele>
<time>2017-12-10T14:32:14Z</time>
</trkpt>
<trkpt lat="53.7390618" lon="17.1884100">
<ele>192</ele>
<time>2017-12-10T14:32:20Z</time>
</trkpt>
<trkpt lat="53.7385481" lon="17.1897769">
<ele>190</ele>
<time>2017-12-10T14:32:26Z</time>
</trkpt>
<trkpt lat="53.7381713" lon="17.1911021">
<ele>188</ele>
<time>2017-12-10T14:32:32Z</time>
</trkpt>
<trkpt lat="53.7375901" lon="17.1921095">
<ele>185</ele>
<time>2017-12-10T14:32:38Z</time>
</trkpt>
<trkpt lat="53.7368585" lon="17.1926160">
<ele>184</ele>
<time>2017-12-10T14:32:44Z</time>
</trkpt>
<trkpt lat="53.7361785" lon="17.1931267">
<ele>184</ele>
<time>2017-12-10T14:32:50Z</time>
</trkpt>
<trkpt lat="53.7356869" lon="17.1942044">
<ele>184</ele>
<time>2017-12-10T14:32:56Z</time>
</trkpt>
<trkpt lat="53.7352548" lon="17.1954003">
<ele>182</ele>
<time>2017-12-10T14:33:02Z</time>
</trkpt>
<trkpt lat="53.7348028" lon="17.1964284">
<ele>188</ele>
<time>2017-12-10T14:33:08Z</time>
</trkpt>
<trkpt lat="53.7344864" lon="17.1976406">
<ele>185</ele>
<time>2017-12-10T14:33:14Z</time>
</trkpt>
<trkpt lat="53.7340173" lon="17.1987504">
<ele>185</ele>
<time>2017-12-10T14:33:20Z</time>
</trkpt>
<trkpt lat="53.7336268" lon="17.2000064">
<ele>186</ele>
<time>2017-12-10T14:33:26Z</time>
</trkpt>
<trkpt lat="53.7332342" lon="17.2013777">
<ele>186</ele>
<time>2017-12-10T14:33:32Z</time>
</trkpt>
<trkpt lat="53.7328036" lon="17.2028962">
<ele>185</ele>
<time>2017-12-10T14:33:38Z</time>
</trkpt>
<trkpt lat="53.7323587" lon="17.2044599">
<ele>184</ele>
<time>2017-12-10T14:33:44Z</time>
</trkpt>
<trkpt lat="53.7319378" lon="17.2059491">
<ele>183</ele>
<time>2017-12-10T14:33:50Z</time>
</trkpt>
<trkpt lat="53.7316818" lon="17.2074739">
<ele>182</ele>
<time>2017-12-10T14:33:56Z</time>
</trkpt>
<trkpt lat="53.7318447" lon="17.2091378">
<ele>176</ele>
<time>2017-12-10T14:34:02Z</time>
</trkpt>
<trkpt lat="53.7320196" lon="17.2109056">
<ele>172</ele>
<time>2017-12-10T14:34:08Z</time>
</trkpt>
<trkpt lat="53.7322122" lon="17.2127653">
<ele>168</ele>
<time>2017-12-10T14:34:14Z</time>
</trkpt>
<trkpt lat="53.7323767" lon="17.2144413">
<ele>172</ele>
<time>2017-12-10T14:34:20Z</time>
</trkpt>
<trkpt lat="53.7323657" lon="17.2159455">
<ele>171</ele>
<time>2017-12-10T14:34:26Z</time>
</trkpt>
<trkpt lat="53.7318903" lon="17.2171098">
<ele>173</ele>
<time>2017-12-10T14:34:32Z</time>
</trkpt>
<trkpt lat="53.7313692" lon="17.2183605">
<ele>174</ele>
<time>2017-12-10T14:34:38Z</time>
</trkpt>
<trkpt lat="53.7308234" lon="17.2196760">
<ele>175</ele>
<time>2017-12-10T14:34:44Z</time>
</trkpt>
<trkpt lat="53.7303490" lon="17.2211059">
<ele>181</ele>
<time>2017-12-10T14:34:50Z</time>
</trkpt>
<trkpt lat="53.7301581" lon="17.2226642">
<ele>185</ele>
<time>2017-12-10T14:34:56Z</time>
</trkpt>
<trkpt lat="53.7299837" lon="17.2241689">
<ele>189</ele>
<time>2017-12-10T14:35:02Z</time>
</trkpt>
<trkpt lat="53.7298204" lon="17.2256196">
<ele>194</ele>
<time>2017-12-10T14:35:08Z</time>
</trkpt>
<trkpt lat="53.7295459" lon="17.2269510">
<ele>196</ele>
<time>2017-12-10T14:35:14Z</time>
</trkpt>
<trkpt lat="53.7290388" lon="17.2280593">
<ele>201</ele>
<time>2017-12-10T14:35:20Z</time>
</trkpt>
<trkpt lat="53.7284630" lon="17.2293397">
<ele>202</ele>
<time>2017-12-10T14:35:26Z</time>
</trkpt>
<trkpt lat="53.7278240" lon="17.2307794">
<ele>203</ele>
<time>2017-12-10T14:35:32Z</time>
</trkpt>
<trkpt lat="53.7271222" lon="17.2323596">
<ele>204</ele>
<time>2017-12-10T14:35:38Z</time>
</trkpt>
<trkpt lat="53.7264072" lon="17.2340069">
<ele>205</ele>
<time>2017-12-10T14:35:44Z</time>
</trkpt>
<trkpt lat="53.7256802" lon="17.2356579">
<ele>204</ele>
<time>2017-12-10T14:35:50Z</time>
</trkpt>
<trkpt lat="53.7248152" lon="17.2369235">
<ele>207</ele>
<time>2017-12-10T14:35:56Z</time>
</trkpt>
<trkpt lat="53.7239186" lon="17.2381884">
<ele>205</ele>
<time>2017-12-10T14:36:02Z</time>
</trkpt>
<trkpt lat="53.7231756" lon="17.2396330">
<ele>202</ele>
<time>2017-12-10T14:36:08Z</time>
</trkpt>
<trkpt lat="53.7224413" lon="17.2411487">
<ele>200</ele>
<time>2017-12-10T14:36:14Z</time>
</trkpt>
<trkpt lat="53.7216529" lon="17.2426800">
<ele>200</ele>
<time>2017-12-10T14:36:20Z</time>
</trkpt>
<trkpt lat="53.7207562" lon="17.2441607">
<ele>202</ele>
<time>2017-12-10T14:36:26Z</time>
</trkpt>
<trkpt lat="53.7198819" lon="17.2456473">
<ele>203</ele>
<time>2017-12-10T14:36:32Z</time>
</trkpt>
<trkpt lat="53.7190817" lon="17.2468440">
<ele>207</ele>
<time>2017-12-10T14:36:38Z</time>
</trkpt>
<trkpt lat="53.7181645" lon="17.2473950">
<ele>206</ele>
<time>2017-12-10T14:36:44Z</time>
</trkpt>
<trkpt lat="53.7171435" lon="17.2480082">
<ele>208</ele>
<time>2017-12-10T14:36:50Z</time>
</trkpt>
<trkpt lat="53.7160789" lon="17.2486769">
<ele>209</ele>
<time>2017-12-10T14:36:56Z</time>
</trkpt>
<trkpt lat="53.7149633" lon="17.2493684">
<ele>210</ele>
<time>2017-12-10T14:37:02Z</time>
</trkpt>
<trkpt lat="53.7138747" lon="17.2500777">
<ele>211</ele>
<time>2017-12-10T14:37:08Z</time>
</trkpt>
<trkpt lat="53.7131104" lon="17.2512697">
<ele>211</ele>
<time>2017-12-10T14:37:14Z</time>
</trkpt>
<trkpt lat="53.7123762" lon="17.2527256">
<ele>209</ele>
<time>2017-12-10T14:37:20Z</time>
</trkpt>
<trkpt lat="53.7116128" lon="17.2541749">
<ele>209</ele>
<time>2017-12-10T14:37:26Z</time>
</trkpt>
<trkpt lat="53.7108541" lon="17.2556320">
<ele>208</ele>
<time>2017-12-10T14:37:32Z</time>
</trkpt>
<trkpt lat="53.7101559" lon="17.2569699">
<ele>207</ele>
<time>2017-12-10T14:37:38Z</time>
</trkpt>
<trkpt lat="53.7095668" lon="17.2581552">
<ele>206</ele>
<time>2017-12-10T14:37:44Z</time>
</trkpt>
<trkpt lat="53.7090523" lon="17.2591920">
<ele>205</ele>
<time>2017-12-10T14:37:50Z</time>
</trkpt>
<trkpt lat="53.7085304" lon="17.2602376">
<ele>203</ele>
<time>2017-12-10T14:37:56Z</time>
</trkpt>
<trkpt lat="53.7079498" lon="17.2613801">
<ele>202</ele>
<time>2017-12-10T14:38:02Z</time>
</trkpt>
<trkpt lat="53.7073130" lon="17.2626486">
<ele>199</ele>
<time>2017-12-10T14:38:08Z</time>
</trkpt>
<trkpt lat="53.7066145" lon="17.2640142">
<ele>196</ele>
<time>2017-12-10T14:38:14Z</time>
</trkpt>
<trkpt lat="53.7058792" lon="17.2654625">
<ele>195</ele>
<time>2017-12-10T14:38:20Z</time>
</trkpt>
<trkpt lat="53.7051284" lon="17.2669353">
<ele>193</ele>
<time>2017-12-10T14:38:26Z</time>
</trkpt>
<trkpt lat="53.7043728" lon="17.2684317">
<ele>192</ele>
<time>2017-12-10T14:38:32Z</time>
</trkpt>
<trkpt lat="53.7036083" lon="17.2699365">
<ele>191</ele>
<time>2017-12-10T14:38:38Z</time>
</trkpt>
<trkpt lat="53.7029691" lon="17.2713222">
<ele>191</ele>
<time>2017-12-10T14:38:44Z</time>
</trkpt>
<trkpt lat="53.7026983" lon="17.2729773">
<ele>191</ele>
<time>2017-12-10T14:38:50Z</time>
</trkpt>
<trkpt lat="53.7024634" lon="17.2747928">
<ele>192</ele>
<time>2017-12-10T14:38:56Z</time>
</trkpt>
<trkpt lat="53.7020683" lon="17.2764584">
<ele>192</ele>
<time>2017-12-10T14:39:02Z</time>
</trkpt>
<trkpt lat="53.7016435" lon="17.2782085">
<ele>193</ele>
<time>2017-12-10T14:39:08Z</time>
</trkpt>
<trkpt lat="53.7012090" lon="17.2800671">
<ele>194</ele>
<time>2017-12-10T14:39:14Z</time>
</trkpt>
<trkpt lat="53.7007430" lon="17.2819371">
<ele>194</ele>
<time>2017-12-10T14:39:20Z</time>
</trkpt>
<trkpt lat="53.7002552" lon="17.2838730">
<ele>193</ele>
<time>2017-12-10T14:39:26Z</time>
</trkpt>
<trkpt lat="53.6997973" lon="17.2858636">
<ele>193</ele>
<time>2017-12-10T14:39:32Z</time>
</trkpt>
<trkpt lat="53.6993190" lon="17.2878142">
<ele>194</ele>
<time>2017-12-10T14:39:38Z</time>
</trkpt>
<trkpt lat="53.6988651" lon="17.2895376">
<ele>194</ele>
<time>2017-12-10T14:39:44Z</time>
</trkpt>
<trkpt lat="53.6984775" lon="17.2910444">
<ele>194</ele>
<time>2017-12-10T14:39:50Z</time>
</trkpt>
<trkpt lat="53.6978700" lon="17.2922935">
<ele>195</ele>
<time>2017-12-10T14:39:56Z</time>
</trkpt>
<trkpt lat="53.6971354" lon="17.2935610">
<ele>196</ele>
<time>2017-12-10T14:40:02Z</time>
</trkpt>
<trkpt lat="53.6963612" lon="17.2949213">
<ele>198</ele>
<time>2017-12-10T14:40:08Z</time>
</trkpt>
<trkpt lat="53.6955274" lon="17.2963442">
<ele>200</ele>
<time>2017-12-10T14:40:14Z</time>
</trkpt>
<trkpt lat="53.6946641" lon="17.2978227">
<ele>201</ele>
<time>2017-12-10T14:40:20Z</time>
</trkpt>
<trkpt lat="53.6937763" lon="17.2993482">
<ele>203</ele>
<time>2017-12-10T14:40:26Z</time>
</trkpt>
<trkpt lat="53.6928685" lon="17.3008963">
<ele>202</ele>
<time>2017-12-10T14:40:32Z</time>
</trkpt>
<trkpt lat="53.6919689" lon="17.3024277">
<ele>204</ele>
<time>2017-12-10T14:40:38Z</time>
</trkpt>
<trkpt lat="53.6911657" lon="17.3040316">
<ele>202</ele>
<time>2017-12-10T14:40:44Z</time>
</trkpt>
<trkpt lat="53.6907642" lon="17.3058616">
<ele>200</ele>
<time>2017-12-10T14:40:50Z</time>
</trkpt>
<trkpt lat="53.6904130" lon="17.3074669">
<ele>200</ele>
<time>2017-12-10T14:40:56Z</time>
</trkpt>
<trkpt lat="53.6900670" lon="17.3090011">
<ele>200</ele>
<time>2017-12-10T14:41:02Z</time>
</trkpt>
<trkpt lat="53.6897243" lon="17.3105203">
<ele>200</ele>
<time>2017-12-10T14:41:08Z</time>
</trkpt>
<trkpt lat="53.6894032" lon="17.3120246">
<ele>200</ele>
<time>2017-12-10T14:41:14Z</time>
</trkpt>
<trkpt lat="53.6890750" lon="17.3135427">
<ele>201</ele>
<time>2017-12-10T14:41:20Z</time>
</trkpt>
<trkpt lat="53.6887248" lon="17.3151284">
<ele>201</ele>
<time>2017-12-10T14:41:26Z</time>
</trkpt>
<trkpt lat="53.6883540" lon="17.3168020">
<ele>200</ele>
<time>2017-12-10T14:41:32Z</time>
</trkpt>
<trkpt lat="53.6879729" lon="17.3185495">
<ele>199</ele>
<time>2017-12-10T14:41:38Z</time>
</trkpt>
<trkpt lat="53.6875752" lon="17.3202885">
<ele>197</ele>
<time>2017-12-10T14:41:44Z</time>
</trkpt>
<trkpt lat="53.6872135" lon="17.3219150">
<ele>196</ele>
<time>2017-12-10T14:41:50Z</time>
</trkpt>
<trkpt lat="53.6868710" lon="17.3234668">
<ele>196</ele>
<time>2017-12-10T14:41:56Z</time>
</trkpt>
<trkpt lat="53.6866521" lon="17.3249045">
<ele>196</ele>
<time>2017-12-10T14:42:02Z</time>
</trkpt>
<trkpt lat="53.6866505" lon="17.3263270">
<ele>194</ele>
<time>2017-12-10T14:42:08Z</time>
</trkpt>
<trkpt lat="53.6864276" lon="17.3276601">
<ele>194</ele>
<time>2017-12-10T14:42:14Z</time>
</trkpt>
<trkpt lat="53.6859513" lon="17.3286712">
<ele>195</ele>
<time>2017-12-10T14:42:20Z</time>
</trkpt>
<trkpt lat="53.6854267" lon="17.3296688">
<ele>197</ele>
<time>2017-12-10T14:42:26Z</time>
</trkpt>
<trkpt lat="53.6849086" lon="17.3306917">
<ele>198</ele>
<time>2017-12-10T14:42:32Z</time>
</trkpt>
<trkpt lat="53.6843645" lon="17.3317307">
<ele>198</ele>
<time>2017-12-10T14:42:38Z</time>
</trkpt>
<trkpt lat="53.6837876" lon="17.3327703">
<ele>199</ele>
<time>2017-12-10T14:42:44Z</time>
</trkpt>
<trkpt lat="53.6831179" lon="17.3337318">
<ele>198</ele>
<time>2017-12-10T14:42:50Z</time>
</trkpt>
<trkpt lat="53.6824318" lon="17.3347056">
<ele>197</ele>
<time>2017-12-10T14:42:56Z</time>
</trkpt>
<trkpt lat="53.6817354" lon="17.3356908">
<ele>197</ele>
<time>2017-12-10T14:43:02Z</time>
</trkpt>
<trkpt lat="53.6810374" lon="17.3366725">
<ele>198</ele>
<time>2017-12-10T14:43:08Z</time>
</trkpt>
<trkpt lat="53.6803338" lon="17.3376617">
<ele>198</ele>
<time>2017-12-10T14:43:14Z</time>
</trkpt>
<trkpt lat="53.6796330" lon="17.3386280">
<ele>200</ele>
<time>2017-12-10T14:43:20Z</time>
</trkpt>
<trkpt lat="53.6789469" lon="17.3395770">
<ele>201</ele>
<time>2017-12-10T14:43:26Z</time>
</trkpt>
<trkpt lat="53.6782578" lon="17.3405292">
<ele>201</ele>
<time>2017-12-10T14:43:32Z</time>
</trkpt>
<trkpt lat="53.6775917" lon="17.3414554">
<ele>202</ele>
<time>2017-12-10T14:43:38Z</time>
</trkpt>
<trkpt lat="53.6769222" lon="17.3423788">
<ele>202</ele>
<time>2017-12-10T14:43:44Z</time>
</trkpt>
<trkpt lat="53.6762406" lon="17.3433246">
<ele>202</ele>
<time>2017-12-10T14:43:50Z</time>
</trkpt>
<trkpt lat="53.6755754" lon="17.3442511">
<ele>203</ele>
<time>2017-12-10T14:43:56Z</time>
</trkpt>
<trkpt lat="53.6749344" lon="17.3451368">
<ele>206</ele>
<time>2017-12-10T14:44:02Z</time>
</trkpt>
<trkpt lat="53.6743480" lon="17.3459399">
<ele>205</ele>
<time>2017-12-10T14:44:08Z</time>
</trkpt>
<trkpt lat="53.6738103" lon="17.3466925">
<ele>203</ele>
<time>2017-12-10T14:44:14Z</time>
</trkpt>
<trkpt lat="53.6732956" lon="17.3474163">
<ele>203</ele>
<time>2017-12-10T14:44:20Z</time>
</trkpt>
<trkpt lat="53.6727566" lon="17.3481453">
<ele>203</ele>
<time>2017-12-10T14:44:26Z</time>
</trkpt>
<trkpt lat="53.6722096" lon="17.3489072">
<ele>204</ele>
<time>2017-12-10T14:44:32Z</time>
</trkpt>
<trkpt lat="53.6716703" lon="17.3496565">
<ele>205</ele>
<time>2017-12-10T14:44:38Z</time>
</trkpt>
<trkpt lat="53.6711350" lon="17.3504073">
<ele>205</ele>
<time>2017-12-10T14:44:44Z</time>
</trkpt>
<trkpt lat="53.6706614" lon="17.3510975">
<ele>207</ele>
<time>2017-12-10T14:44:50Z</time>
</trkpt>
<trkpt lat="53.6703656" lon="17.3515252">
<ele>206</ele>
<time>2017-12-10T14:44:56Z</time>
</trkpt>
<trkpt lat="53.6701960" lon="17.3517581">
<ele>206</ele>
<time>2017-12-10T14:45:02Z</time>
</trkpt>
<trkpt lat="53.6701717" lon="17.3517879">
<ele>205</ele>
<time>2017-12-10T14:45:08Z</time>
</trkpt>
<trkpt lat="53.6700080" lon="17.3520138">
<ele>204</ele>
<time>2017-12-10T14:45:14Z</time>
</trkpt>
<trkpt lat="53.6698240" lon="17.3524001">
<ele>204</ele>
<time>2017-12-10T14:45:20Z</time>
</trkpt>
<trkpt lat="53.6699642" lon="17.3530274">
<ele>207</ele>
<time>2017-12-10T14:45:26Z</time>
</trkpt>
<trkpt lat="53.6702837" lon="17.3538219">
<ele>208</ele>
<time>2017-12-10T14:45:32Z</time>
</trkpt>
<trkpt lat="53.6707419" lon="17.3547899">
<ele>207</ele>
<time>2017-12-10T14:45:38Z</time>
</trkpt>
<trkpt lat="53.6712540" lon="17.3557921">
<ele>207</ele>
<time>2017-12-10T14:45:44Z</time>
</trkpt>
<trkpt lat="53.6717625" lon="17.3568158">
<ele>206</ele>
<time>2017-12-10T14:45:50Z</time>
</trkpt>
<trkpt lat="53.6722308" lon="17.3577834">
<ele>206</ele>
<time>2017-12-10T14:45:56Z</time>
</trkpt>
<trkpt lat="53.6725787" lon="17.3585802">
<ele>204</ele>
<time>2017-12-10T14:46:02Z</time>
</trkpt>
<trkpt lat="53.6726542" lon="17.3588147">
<ele>203</ele>
<time>2017-12-10T14:46:08Z</time>
</trkpt>
<trkpt lat="53.6726496" lon="17.3588118">
<ele>202</ele>
<time>2017-12-10T14:46:14Z</time>
</trkpt>
<trkpt lat="53.6726956" lon="17.3589069">
<ele>202</ele>
<time>2017-12-10T14:46:20Z</time>
</trkpt>
<trkpt lat="53.6728560" lon="17.3593830">
<ele>202</ele>
<time>2017-12-10T14:46:26Z</time>
</trkpt>
<trkpt lat="53.6730457" lon="17.3601123">
<ele>201</ele>
<time>2017-12-10T14:46:32Z</time>
</trkpt>
<trkpt lat="53.6732082" lon="17.3609865">
<ele>200</ele>
<time>2017-12-10T14:46:38Z</time>
</trkpt>
<trkpt lat="53.6733185" lon="17.3621603">
<ele>199</ele>
<time>2017-12-10T14:46:44Z</time>
</trkpt>
<trkpt lat="53.6733341" lon="17.3634314">
<ele>201</ele>
<time>2017-12-10T14:46:50Z</time>
</trkpt>
<trkpt lat="53.6732690" lon="17.3648104">
<ele>201</ele>
<time>2017-12-10T14:46:56Z</time>
</trkpt>
<trkpt lat="53.6732048" lon="17.3662478">
<ele>201</ele>
<time>2017-12-10T14:47:02Z</time>
</trkpt>
<trkpt lat="53.6731684" lon="17.3673176">
<ele>204</ele>
<time>2017-12-10T14:47:08Z</time>
</trkpt>
<trkpt lat="53.6731649" lon="17.3676534">
<ele>204</ele>
<time>2017-12-10T14:47:14Z</time>
</trkpt>
<trkpt lat="53.6730781" lon="17.3680589">
<ele>206</ele>
<time>2017-12-10T14:47:20Z</time>
</trkpt>
<trkpt lat="53.6731908" lon="17.3686014">
<ele>204</ele>
<time>2017-12-10T14:47:26Z</time>
</trkpt>
<trkpt lat="53.6732668" lon="17.3693674">
<ele>205</ele>
<time>2017-12-10T14:47:32Z</time>
</trkpt>
<trkpt lat="53.6734090" lon="17.3702083">
<ele>205</ele>
<time>2017-12-10T14:47:38Z</time>
</trkpt>
<trkpt lat="53.6736468" lon="17.3713103">
<ele>204</ele>
<time>2017-12-10T14:47:44Z</time>
</trkpt>
<trkpt lat="53.6738892" lon="17.3725101">
<ele>204</ele>
<time>2017-12-10T14:47:50Z</time>
</trkpt>
<trkpt lat="53.6741554" lon="17.3738703">
<ele>205</ele>
<time>2017-12-10T14:47:56Z</time>
</trkpt>
<trkpt lat="53.6744484" lon="17.3753495">
<ele>207</ele>
<time>2017-12-10T14:48:02Z</time>
</trkpt>
<trkpt lat="53.6747545" lon="17.3768353">
<ele>207</ele>
<time>2017-12-10T14:48:08Z</time>
</trkpt>
<trkpt lat="53.6750464" lon="17.3782963">
<ele>209</ele>
<time>2017-12-10T14:48:14Z</time>
</trkpt>
<trkpt lat="53.6753416" lon="17.3796948">
<ele>208</ele>
<time>2017-12-10T14:48:20Z</time>
</trkpt>
<trkpt lat="53.6756278" lon="17.3811535">
<ele>210</ele>
<time>2017-12-10T14:48:26Z</time>
</trkpt>
<trkpt lat="53.6759110" lon="17.3826337">
<ele>212</ele>
<time>2017-12-10T14:48:32Z</time>
</trkpt>
<trkpt lat="53.6761957" lon="17.3840816">
<ele>212</ele>
<time>2017-12-10T14:48:38Z</time>
</trkpt>
<trkpt lat="53.6764133" lon="17.3850796">
<ele>211</ele>
<time>2017-12-10T14:48:44Z</time>
</trkpt>
<trkpt lat="53.6766452" lon="17.3862412">
<ele>211</ele>
<time>2017-12-10T14:48:50Z</time>
</trkpt>
<trkpt lat="53.6769149" lon="17.3876478">
<ele>212</ele>
<time>2017-12-10T14:48:56Z</time>
</trkpt>
<trkpt lat="53.6772171" lon="17.3891576">
<ele>212</ele>
<time>2017-12-10T14:49:02Z</time>
</trkpt>
<trkpt lat="53.6775451" lon="17.3907610">
<ele>208</ele>
<time>2017-12-10T14:49:08Z</time>
</trkpt>
<trkpt lat="53.6778811" lon="17.3923905">
<ele>205</ele>
<time>2017-12-10T14:49:14Z</time>
</trkpt>
<trkpt lat="53.6782266" lon="17.3940303">
<ele>203</ele>
<time>2017-12-10T14:49:20Z</time>
</trkpt>
<trkpt lat="53.6785859" lon="17.3958162">
<ele>202</ele>
<time>2017-12-10T14:49:26Z</time>
</trkpt>
<trkpt lat="53.6789656" lon="17.3976795">
<ele>202</ele>
<time>2017-12-10T14:49:32Z</time>
</trkpt>
<trkpt lat="53.6793356" lon="17.3995802">
<ele>202</ele>
<time>2017-12-10T14:49:38Z</time>
</trkpt>
<trkpt lat="53.6796953" lon="17.4013564">
<ele>206</ele>
<time>2017-12-10T14:49:44Z</time>
</trkpt>
<trkpt lat="53.6800597" lon="17.4031141">
<ele>208</ele>
<time>2017-12-10T14:49:50Z</time>
</trkpt>
<trkpt lat="53.6804347" lon="17.4050098">
<ele>207</ele>
<time>2017-12-10T14:49:56Z</time>
</trkpt>
<trkpt lat="53.6808113" lon="17.4069771">
<ele>205</ele>
<time>2017-12-10T14:50:02Z</time>
</trkpt>
<trkpt lat="53.6812040" lon="17.4089534">
<ele>204</ele>
<time>2017-12-10T14:50:08Z</time>
</trkpt>
<trkpt lat="53.6816018" lon="17.4109297">
<ele>204</ele>
<time>2017-12-10T14:50:14Z</time>
</trkpt>
<trkpt lat="53.6819968" lon="17.4128764">
<ele>205</ele>
<time>2017-12-10T14:50:20Z</time>
</trkpt>
<trkpt lat="53.6823952" lon="17.4147755">
<ele>207</ele>
<time>2017-12-10T14:50:26Z</time>
</trkpt>
<trkpt lat="53.6827881" lon="17.4167355">
<ele>207</ele>
<time>2017-12-10T14:50:32Z</time>
</trkpt>
<trkpt lat="53.6831924" lon="17.4186889">
<ele>209</ele>
<time>2017-12-10T14:50:38Z</time>
</trkpt>
<trkpt lat="53.6835864" lon="17.4205633">
<ele>205</ele>
<time>2017-12-10T14:50:44Z</time>
</trkpt>
<trkpt lat="53.6839310" lon="17.4222389">
<ele>204</ele>
<time>2017-12-10T14:50:50Z</time>
</trkpt>
<trkpt lat="53.6841823" lon="17.4234658">
<ele>205</ele>
<time>2017-12-10T14:50:56Z</time>
</trkpt>
<trkpt lat="53.6843945" lon="17.4245228">
<ele>204</ele>
<time>2017-12-10T14:51:02Z</time>
</trkpt>
<trkpt lat="53.6845474" lon="17.4253203">
<ele>203</ele>
<time>2017-12-10T14:51:08Z</time>
</trkpt>
<trkpt lat="53.6846548" lon="17.4260913">
<ele>203</ele>
<time>2017-12-10T14:51:14Z</time>
</trkpt>
<trkpt lat="53.6847458" lon="17.4270504">
<ele>204</ele>
<time>2017-12-10T14:51:20Z</time>
</trkpt>
<trkpt lat="53.6848534" lon="17.4281021">
<ele>204</ele>
<time>2017-12-10T14:51:26Z</time>
</trkpt>
<trkpt lat="53.6849761" lon="17.4293432">
<ele>203</ele>
<time>2017-12-10T14:51:32Z</time>
</trkpt>
<trkpt lat="53.6851068" lon="17.4307313">
<ele>203</ele>
<time>2017-12-10T14:51:38Z</time>
</trkpt>
<trkpt lat="53.6852518" lon="17.4323349">
<ele>201</ele>
<time>2017-12-10T14:51:44Z</time>
</trkpt>
<trkpt lat="53.6854266" lon="17.4340835">
<ele>202</ele>
<time>2017-12-10T14:51:50Z</time>
</trkpt>
<trkpt lat="53.6856118" lon="17.4359597">
<ele>202</ele>
<time>2017-12-10T14:51:56Z</time>
</trkpt>
<trkpt lat="53.6858026" lon="17.4379677">
<ele>202</ele>
<time>2017-12-10T14:52:02Z</time>
</trkpt>
<trkpt lat="53.6860065" lon="17.4400325">
<ele>206</ele>
<time>2017-12-10T14:52:08Z</time>
</trkpt>
<trkpt lat="53.6862146" lon="17.4420931">
<ele>209</ele>
<time>2017-12-10T14:52:14Z</time>
</trkpt>
<trkpt lat="53.6864253" lon="17.4442003">
<ele>211</ele>
<time>2017-12-10T14:52:20Z</time>
</trkpt>
<trkpt lat="53.6866328" lon="17.4463383">
<ele>212</ele>
<time>2017-12-10T14:52:26Z</time>
</trkpt>
<trkpt lat="53.6868317" lon="17.4484573">
<ele>214</ele>
<time>2017-12-10T14:52:32Z</time>
</trkpt>
<trkpt lat="53.6870481" lon="17.4505696">
<ele>213</ele>
<time>2017-12-10T14:52:38Z</time>
</trkpt>
<trkpt lat="53.6872751" lon="17.4527591">
<ele>211</ele>
<time>2017-12-10T14:52:44Z</time>
</trkpt>
<trkpt lat="53.6874921" lon="17.4549898">
<ele>215</ele>
<time>2017-12-10T14:52:50Z</time>
</trkpt>
<trkpt lat="53.6876965" lon="17.4571729">
<ele>215</ele>
<time>2017-12-10T14:52:56Z</time>
</trkpt>
<trkpt lat="53.6879299" lon="17.4594154">
<ele>213</ele>
<time>2017-12-10T14:53:02Z</time>
</trkpt>
<trkpt lat="53.6881603" lon="17.4616318">
<ele>214</ele>
<time>2017-12-10T14:53:08Z</time>
</trkpt>
<trkpt lat="53.6883783" lon="17.4638369">
<ele>213</ele>
<time>2017-12-10T14:53:14Z</time>
</trkpt>
<trkpt lat="53.6885927" lon="17.4660281">
<ele>212</ele>
<time>2017-12-10T14:53:20Z</time>
</trkpt>
<trkpt lat="53.6887716" lon="17.4680309">
<ele>212</ele>
<time>2017-12-10T14:53:26Z</time>
</trkpt>
<trkpt lat="53.6888445" lon="17.4697669">
<ele>212</ele>
<time>2017-12-10T14:53:32Z</time>
</trkpt>
<trkpt lat="53.6888429" lon="17.4712638">
<ele>212</ele>
<time>2017-12-10T14:53:38Z</time>
</trkpt>
<trkpt lat="53.6887928" lon="17.4726765">
<ele>211</ele>
<time>2017-12-10T14:53:44Z</time>
</trkpt>
<trkpt lat="53.6886689" lon="17.4741054">
<ele>211</ele>
<time>2017-12-10T14:53:50Z</time>
</trkpt>
<trkpt lat="53.6884955" lon="17.4755452">
<ele>211</ele>
<time>2017-12-10T14:53:56Z</time>
</trkpt>
<trkpt lat="53.6882287" lon="17.4771203">
<ele>211</ele>
<time>2017-12-10T14:54:02Z</time>
</trkpt>
<trkpt lat="53.6878427" lon="17.4787865">
<ele>210</ele>
<time>2017-12-10T14:54:08Z</time>
</trkpt>
<trkpt lat="53.6873713" lon="17.4805762">
<ele>210</ele>
<time>2017-12-10T14:54:14Z</time>
</trkpt>
<trkpt lat="53.6868584" lon="17.4824880">
<ele>210</ele>
<time>2017-12-10T14:54:20Z</time>
</trkpt>
<trkpt lat="53.6863529" lon="17.4845475">
<ele>210</ele>
<time>2017-12-10T14:54:26Z</time>
</trkpt>
<trkpt lat="53.6858941" lon="17.4866507">
<ele>207</ele>
<time>2017-12-10T14:54:32Z</time>
</trkpt>
<trkpt lat="53.6855125" lon="17.4888146">
<ele>206</ele>
<time>2017-12-10T14:54:38Z</time>
</trkpt>
<trkpt lat="53.6852209" lon="17.4910597">
<ele>205</ele>
<time>2017-12-10T14:54:44Z</time>
</trkpt>
<trkpt lat="53.6849696" lon="17.4933659">
<ele>205</ele>
<time>2017-12-10T14:54:50Z</time>
</trkpt>
<trkpt lat="53.6847834" lon="17.4956655">
<ele>204</ele>
<time>2017-12-10T14:54:56Z</time>
</trkpt>
<trkpt lat="53.6846687" lon="17.4979149">
<ele>203</ele>
<time>2017-12-10T14:55:02Z</time>
</trkpt>
<trkpt lat="53.6845619" lon="17.5001471">
<ele>204</ele>
<time>2017-12-10T14:55:08Z</time>
</trkpt>
<trkpt lat="53.6844583" lon="17.5022917">
<ele>206</ele>
<time>2017-12-10T14:55:14Z</time>
</trkpt>
<trkpt lat="53.6843549" lon="17.5044231">
<ele>207</ele>
<time>2017-12-10T14:55:20Z</time>
</trkpt>
<trkpt lat="53.6842507" lon="17.5065812">
<ele>207</ele>
<time>2017-12-10T14:55:26Z</time>
</trkpt>
<trkpt lat="53.6841389" lon="17.5087931">
<ele>206</ele>
<time>2017-12-10T14:55:32Z</time>
</trkpt>
<trkpt lat="53.6840206" lon="17.5110390">
<ele>205</ele>
<time>2017-12-10T14:55:38Z</time>
</trkpt>
<trkpt lat="53.6839027" lon="17.5133003">
<ele>205</ele>
<time>2017-12-10T14:55:44Z</time>
</trkpt>
<trkpt lat="53.6837878" lon="17.5155725">
<ele>203</ele>
<time>2017-12-10T14:55:50Z</time>
</trkpt>
<trkpt lat="53.6836674" lon="17.5177474">
<ele>202</ele>
<time>2017-12-10T14:55:56Z</time>
</trkpt>
<trkpt lat="53.6835471" lon="17.5199015">
<ele>200</ele>
<time>2017-12-10T14:56:02Z</time>
</trkpt>
<trkpt lat="53.6834427" lon="17.5220571">
<ele>200</ele>
<time>2017-12-10T14:56:08Z</time>
</trkpt>
<trkpt lat="53.6833391" lon="17.5242388">
<ele>199</ele>
<time>2017-12-10T14:56:14Z</time>
</trkpt>
<trkpt lat="53.6832221" lon="17.5264308">
<ele>197</ele>
<time>2017-12-10T14:56:20Z</time>
</trkpt>
<trkpt lat="53.6830707" lon="17.5286275">
<ele>195</ele>
<time>2017-12-10T14:56:26Z</time>
</trkpt>
<trkpt lat="53.6828651" lon="17.5308208">
<ele>195</ele>
<time>2017-12-10T14:56:32Z</time>
</trkpt>
<trkpt lat="53.6826191" lon="17.5329765">
<ele>196</ele>
<time>2017-12-10T14:56:38Z</time>
</trkpt>
<trkpt lat="53.6823540" lon="17.5351049">
<ele>197</ele>
<time>2017-12-10T14:56:44Z</time>
</trkpt>
<trkpt lat="53.6820848" lon="17.5372004">
<ele>198</ele>
<time>2017-12-10T14:56:50Z</time>
</trkpt>
<trkpt lat="53.6818297" lon="17.5392818">
<ele>199</ele>
<time>2017-12-10T14:56:56Z</time>
</trkpt>
<trkpt lat="53.6815835" lon="17.5413808">
<ele>199</ele>
<time>2017-12-10T14:57:02Z</time>
</trkpt>
<trkpt lat="53.6813087" lon="17.5435268">
<ele>198</ele>
<time>2017-12-10T14:57:08Z</time>
</trkpt>
<trkpt lat="53.6810393" lon="17.5457458">
<ele>196</ele>
<time>2017-12-10T14:57:14Z</time>
</trkpt>
<trkpt lat="53.6807623" lon="17.5479770">
<ele>195</ele>
<time>2017-12-10T14:57:20Z</time>
</trkpt>
<trkpt lat="53.6804892" lon="17.5501981">
<ele>193</ele>
<time>2017-12-10T14:57:26Z</time>
</trkpt>
<trkpt lat="53.6802839" lon="17.5524489">
<ele>191</ele>
<time>2017-12-10T14:57:32Z</time>
</trkpt>
<trkpt lat="53.6802174" lon="17.5547195">
<ele>190</ele>
<time>2017-12-10T14:57:38Z</time>
</trkpt>
<trkpt lat="53.6802913" lon="17.5569337">
<ele>188</ele>
<time>2017-12-10T14:57:44Z</time>
</trkpt>
<trkpt lat="53.6804047" lon="17.5591341">
<ele>186</ele>
<time>2017-12-10T14:57:50Z</time>
</trkpt>
<trkpt lat="53.6805127" lon="17.5613442">
<ele>186</ele>
<time>2017-12-10T14:57:56Z</time>
</trkpt>
<trkpt lat="53.6806155" lon="17.5635759">
<ele>187</ele>
<time>2017-12-10T14:58:02Z</time>
</trkpt>
<trkpt lat="53.6806426" lon="17.5658084">
<ele>188</ele>
<time>2017-12-10T14:58:08Z</time>
</trkpt>
<trkpt lat="53.6805396" lon="17.5680467">
<ele>189</ele>
<time>2017-12-10T14:58:14Z</time>
</trkpt>
<trkpt lat="53.6803003" lon="17.5703054">
<ele>192</ele>
<time>2017-12-10T14:58:20Z</time>
</trkpt>
<trkpt lat="53.6799503" lon="17.5725015">
<ele>192</ele>
<time>2017-12-10T14:58:26Z</time>
</trkpt>
<trkpt lat="53.6796012" lon="17.5746214">
<ele>193</ele>
<time>2017-12-10T14:58:32Z</time>
</trkpt>
<trkpt lat="53.6792802" lon="17.5767448">
<ele>194</ele>
<time>2017-12-10T14:58:38Z</time>
</trkpt>
<trkpt lat="53.6790163" lon="17.5789353">
<ele>194</ele>
<time>2017-12-10T14:58:44Z</time>
</trkpt>
<trkpt lat="53.6788504" lon="17.5811838">
<ele>195</ele>
<time>2017-12-10T14:58:50Z</time>
</trkpt>
<trkpt lat="53.6788020" lon="17.5833768">
<ele>196</ele>
<time>2017-12-10T14:58:56Z</time>
</trkpt>
<trkpt lat="53.6788595" lon="17.5855461">
<ele>197</ele>
<time>2017-12-10T14:59:02Z</time>
</trkpt>
<trkpt lat="53.6790133" lon="17.5877182">
<ele>198</ele>
<time>2017-12-10T14:59:08Z</time>
</trkpt>
<trkpt lat="53.6792670" lon="17.5898046">
<ele>200</ele>
<time>2017-12-10T14:59:14Z</time>
</trkpt>
<trkpt lat="53.6796243" lon="17.5918592">
<ele>201</ele>
<time>2017-12-10T14:59:20Z</time>
</trkpt>
<trkpt lat="53.6800750" lon="17.5938704">
<ele>203</ele>
<time>2017-12-10T14:59:26Z</time>
</trkpt>
<trkpt lat="53.6805879" lon="17.5957403">
<ele>205</ele>
<time>2017-12-10T14:59:32Z</time>
</trkpt>
<trkpt lat="53.6811727" lon="17.5975142">
<ele>206</ele>
<time>2017-12-10T14:59:38Z</time>
</trkpt>
<trkpt lat="53.6818103" lon="17.5992935">
<ele>207</ele>
<time>2017-12-10T14:59:44Z</time>
</trkpt>
<trkpt lat="53.6824759" lon="17.6011129">
<ele>209</ele>
<time>2017-12-10T14:59:50Z</time>
</trkpt>
<trkpt lat="53.6831539" lon="17.6029535">
<ele>210</ele>
<time>2017-12-10T14:59:56Z</time>
</trkpt>
<trkpt lat="53.6838227" lon="17.6048185">
<ele>212</ele>
<time>2017-12-10T15:00:02Z</time>
</trkpt>
<trkpt lat="53.6844683" lon="17.6067143">
<ele>213</ele>
<time>2017-12-10T15:00:08Z</time>
</trkpt>
<trkpt lat="53.6851197" lon="17.6086033">
<ele>213</ele>
<time>2017-12-10T15:00:14Z</time>
</trkpt>
<trkpt lat="53.6857835" lon="17.6105032">
<ele>214</ele>
<time>2017-12-10T15:00:20Z</time>
</trkpt>
<trkpt lat="53.6864415" lon="17.6123382">
<ele>213</ele>
<time>2017-12-10T15:00:26Z</time>
</trkpt>
<trkpt lat="53.6870287" lon="17.6140747">
<ele>212</ele>
<time>2017-12-10T15:00:32Z</time>
</trkpt>
<trkpt lat="53.6876243" lon="17.6156669">
<ele>209</ele>
<time>2017-12-10T15:00:38Z</time>
</trkpt>
<trkpt lat="53.6881176" lon="17.6169621">
<ele>207</ele>
<time>2017-12-10T15:00:44Z</time>
</trkpt>
<trkpt lat="53.6881496" lon="17.6183488">
<ele>207</ele>
<time>2017-12-10T15:00:50Z</time>
</trkpt>
<trkpt lat="53.6882348" lon="17.6195036">
<ele>206</ele>
<time>2017-12-10T15:00:56Z</time>
</trkpt>
<trkpt lat="53.6888297" lon="17.6199006">
<ele>208</ele>
<time>2017-12-10T15:01:02Z</time>
</trkpt>
<trkpt lat="53.6890950" lon="17.6201301">
<ele>207</ele>
<time>2017-12-10T15:01:08Z</time>
</trkpt>
<trkpt lat="53.6890867" lon="17.6204648">
<ele>207</ele>
<time>2017-12-10T15:01:14Z</time>
</trkpt>
<trkpt lat="53.6888994" lon="17.6212017">
<ele>207</ele>
<time>2017-12-10T15:01:20Z</time>
</trkpt>
<trkpt lat="53.6886565" lon="17.6222742">
<ele>205</ele>
<time>2017-12-10T15:01:26Z</time>
</trkpt>
<trkpt lat="53.6883667" lon="17.6235275">
<ele>204</ele>
<time>2017-12-10T15:01:32Z</time>
</trkpt>
<trkpt lat="53.6880367" lon="17.6249705">
<ele>202</ele>
<time>2017-12-10T15:01:38Z</time>
</trkpt>
<trkpt lat="53.6876465" lon="17.6264406">
<ele>201</ele>
<time>2017-12-10T15:01:44Z</time>
</trkpt>
<trkpt lat="53.6871718" lon="17.6279363">
<ele>201</ele>
<time>2017-12-10T15:01:50Z</time>
</trkpt>
<trkpt lat="53.6860958" lon="17.6308020">
<ele>199</ele>
<time>2017-12-10T15:02:02Z</time>
</trkpt>
<trkpt lat="53.6854159" lon="17.6320080">
<ele>199</ele>
<time>2017-12-10T15:02:08Z</time>
</trkpt>
<trkpt lat="53.6846454" lon="17.6330240">
<ele>199</ele>
<time>2017-12-10T15:02:14Z</time>
</trkpt>
<trkpt lat="53.6839491" lon="17.6341002">
<ele>198</ele>
<time>2017-12-10T15:02:20Z</time>
</trkpt>
<trkpt lat="53.6834093" lon="17.6353988">
<ele>197</ele>
<time>2017-12-10T15:02:26Z</time>
</trkpt>
<trkpt lat="53.6828864" lon="17.6366854">
<ele>196</ele>
<time>2017-12-10T15:02:32Z</time>
</trkpt>
<trkpt lat="53.6823531" lon="17.6379756">
<ele>194</ele>
<time>2017-12-10T15:02:38Z</time>
</trkpt>
<trkpt lat="53.6818319" lon="17.6392157">
<ele>194</ele>
<time>2017-12-10T15:02:44Z</time>
</trkpt>
<trkpt lat="53.6813081" lon="17.6403835">
<ele>196</ele>
<time>2017-12-10T15:02:50Z</time>
</trkpt>
<trkpt lat="53.6806396" lon="17.6413145">
<ele>196</ele>
<time>2017-12-10T15:02:56Z</time>
</trkpt>
<trkpt lat="53.6798673" lon="17.6421222">
<ele>196</ele>
<time>2017-12-10T15:03:02Z</time>
</trkpt>
<trkpt lat="53.6790736" lon="17.6429795">
<ele>196</ele>
<time>2017-12-10T15:03:08Z</time>
</trkpt>
<trkpt lat="53.6782488" lon="17.6438485">
<ele>199</ele>
<time>2017-12-10T15:03:14Z</time>
</trkpt>
<trkpt lat="53.6774195" lon="17.6447286">
<ele>203</ele>
<time>2017-12-10T15:03:20Z</time>
</trkpt>
<trkpt lat="53.6766375" lon="17.6458052">
<ele>205</ele>
<time>2017-12-10T15:03:26Z</time>
</trkpt>
<trkpt lat="53.6759078" lon="17.6472322">
<ele>202</ele>
<time>2017-12-10T15:03:32Z</time>
</trkpt>
<trkpt lat="53.6743510" lon="17.6501647">
<ele>196</ele>
<time>2017-12-10T15:03:44Z</time>
</trkpt>
<trkpt lat="53.6735696" lon="17.6516428">
<ele>194</ele>
<time>2017-12-10T15:03:50Z</time>
</trkpt>
<trkpt lat="53.6727778" lon="17.6531365">
<ele>190</ele>
<time>2017-12-10T15:03:56Z</time>
</trkpt>
<trkpt lat="53.6719670" lon="17.6546651">
<ele>188</ele>
<time>2017-12-10T15:04:02Z</time>
</trkpt>
<trkpt lat="53.6711404" lon="17.6562168">
<ele>186</ele>
<time>2017-12-10T15:04:08Z</time>
</trkpt>
<trkpt lat="53.6703163" lon="17.6577951">
<ele>184</ele>
<time>2017-12-10T15:04:14Z</time>
</trkpt>
<trkpt lat="53.6694747" lon="17.6593967">
<ele>183</ele>
<time>2017-12-10T15:04:20Z</time>
</trkpt>
<trkpt lat="53.6686505" lon="17.6609348">
<ele>183</ele>
<time>2017-12-10T15:04:26Z</time>
</trkpt>
<trkpt lat="53.6678831" lon="17.6623747">
<ele>183</ele>
<time>2017-12-10T15:04:32Z</time>
</trkpt>
<trkpt lat="53.6671304" lon="17.6638361">
<ele>183</ele>
<time>2017-12-10T15:04:38Z</time>
</trkpt>
<trkpt lat="53.6663492" lon="17.6653316">
<ele>184</ele>
<time>2017-12-10T15:04:44Z</time>
</trkpt>
<trkpt lat="53.6655202" lon="17.6668793">
<ele>183</ele>
<time>2017-12-10T15:04:50Z</time>
</trkpt>
<trkpt lat="53.6646752" lon="17.6684752">
<ele>182</ele>
<time>2017-12-10T15:04:56Z</time>
</trkpt>
<trkpt lat="53.6638219" lon="17.6700705">
<ele>181</ele>
<time>2017-12-10T15:05:02Z</time>
</trkpt>
<trkpt lat="53.6631090" lon="17.6718432">
<ele>182</ele>
<time>2017-12-10T15:05:08Z</time>
</trkpt>
<trkpt lat="53.6625988" lon="17.6738088">
<ele>184</ele>
<time>2017-12-10T15:05:14Z</time>
</trkpt>
<trkpt lat="53.6620865" lon="17.6757808">
<ele>184</ele>
<time>2017-12-10T15:05:20Z</time>
</trkpt>
<trkpt lat="53.6615848" lon="17.6777322">
<ele>184</ele>
<time>2017-12-10T15:05:26Z</time>
</trkpt>
<trkpt lat="53.6610836" lon="17.6797019">
<ele>183</ele>
<time>2017-12-10T15:05:32Z</time>
</trkpt>
<trkpt lat="53.6605727" lon="17.6816507">
<ele>183</ele>
<time>2017-12-10T15:05:38Z</time>
</trkpt>
<trkpt lat="53.6597982" lon="17.6833153">
<ele>182</ele>
<time>2017-12-10T15:05:44Z</time>
</trkpt>
<trkpt lat="53.6588436" lon="17.6848432">
<ele>179</ele>
<time>2017-12-10T15:05:50Z</time>
</trkpt>
<trkpt lat="53.6579031" lon="17.6864623">
<ele>178</ele>
<time>2017-12-10T15:05:56Z</time>
</trkpt>
<trkpt lat="53.6569819" lon="17.6880780">
<ele>176</ele>
<time>2017-12-10T15:06:02Z</time>
</trkpt>
<trkpt lat="53.6560743" lon="17.6896286">
<ele>174</ele>
<time>2017-12-10T15:06:08Z</time>
</trkpt>
<trkpt lat="53.6552539" lon="17.6910488">
<ele>173</ele>
<time>2017-12-10T15:06:14Z</time>
</trkpt>
<trkpt lat="53.6545252" lon="17.6923766">
<ele>172</ele>
<time>2017-12-10T15:06:20Z</time>
</trkpt>
<trkpt lat="53.6538445" lon="17.6935001">
<ele>172</ele>
<time>2017-12-10T15:06:26Z</time>
</trkpt>
<trkpt lat="53.6532026" lon="17.6946579">
<ele>171</ele>
<time>2017-12-10T15:06:32Z</time>
</trkpt>
<trkpt lat="53.6525595" lon="17.6958100">
<ele>171</ele>
<time>2017-12-10T15:06:38Z</time>
</trkpt>
<trkpt lat="53.6519041" lon="17.6969426">
<ele>171</ele>
<time>2017-12-10T15:06:44Z</time>
</trkpt>
<trkpt lat="53.6512671" lon="17.6980460">
<ele>171</ele>
<time>2017-12-10T15:06:50Z</time>
</trkpt>
<trkpt lat="53.6506723" lon="17.6992696">
<ele>169</ele>
<time>2017-12-10T15:06:56Z</time>
</trkpt>
<trkpt lat="53.6501177" lon="17.7005286">
<ele>168</ele>
<time>2017-12-10T15:07:02Z</time>
</trkpt>
<trkpt lat="53.6495974" lon="17.7017922">
<ele>166</ele>
<time>2017-12-10T15:07:08Z</time>
</trkpt>
<trkpt lat="53.6491502" lon="17.7030658">
<ele>165</ele>
<time>2017-12-10T15:07:14Z</time>
</trkpt>
<trkpt lat="53.6487164" lon="17.7041850">
<ele>166</ele>
<time>2017-12-10T15:07:20Z</time>
</trkpt>
<trkpt lat="53.6482219" lon="17.7052608">
<ele>166</ele>
<time>2017-12-10T15:07:26Z</time>
</trkpt>
<trkpt lat="53.6477419" lon="17.7063261">
<ele>167</ele>
<time>2017-12-10T15:07:32Z</time>
</trkpt>
<trkpt lat="53.6473072" lon="17.7073165">
<ele>165</ele>
<time>2017-12-10T15:07:38Z</time>
</trkpt>
<trkpt lat="53.6468042" lon="17.7081987">
<ele>164</ele>
<time>2017-12-10T15:07:44Z</time>
</trkpt>
<trkpt lat="53.6462869" lon="17.7091811">
<ele>164</ele>
<time>2017-12-10T15:07:50Z</time>
</trkpt>
<trkpt lat="53.6458163" lon="17.7103241">
<ele>163</ele>
<time>2017-12-10T15:07:56Z</time>
</trkpt>
<trkpt lat="53.6453704" lon="17.7114789">
<ele>163</ele>
<time>2017-12-10T15:08:02Z</time>
</trkpt>
<trkpt lat="53.6448828" lon="17.7126858">
<ele>163</ele>
<time>2017-12-10T15:08:08Z</time>
</trkpt>
<trkpt lat="53.6442869" lon="17.7139304">
<ele>164</ele>
<time>2017-12-10T15:08:14Z</time>
</trkpt>
<trkpt lat="53.6435971" lon="17.7152225">
<ele>163</ele>
<time>2017-12-10T15:08:20Z</time>
</trkpt>
<trkpt lat="53.6428681" lon="17.7166259">
<ele>163</ele>
<time>2017-12-10T15:08:26Z</time>
</trkpt>
<trkpt lat="53.6421071" lon="17.7180917">
<ele>161</ele>
<time>2017-12-10T15:08:32Z</time>
</trkpt>
<trkpt lat="53.6414299" lon="17.7198078">
<ele>158</ele>
<time>2017-12-10T15:08:38Z</time>
</trkpt>
<trkpt lat="53.6408528" lon="17.7216790">
<ele>155</ele>
<time>2017-12-10T15:08:44Z</time>
</trkpt>
<trkpt lat="53.6403551" lon="17.7235334">
<ele>155</ele>
<time>2017-12-10T15:08:50Z</time>
</trkpt>
<trkpt lat="53.6400674" lon="17.7255360">
<ele>155</ele>
<time>2017-12-10T15:08:56Z</time>
</trkpt>
<trkpt lat="53.6396759" lon="17.7274420">
<ele>159</ele>
<time>2017-12-10T15:09:02Z</time>
</trkpt>
<trkpt lat="53.6390047" lon="17.7290733">
<ele>162</ele>
<time>2017-12-10T15:09:08Z</time>
</trkpt>
<trkpt lat="53.6384095" lon="17.7306102">
<ele>162</ele>
<time>2017-12-10T15:09:14Z</time>
</trkpt>
<trkpt lat="53.6378224" lon="17.7321652">
<ele>162</ele>
<time>2017-12-10T15:09:20Z</time>
</trkpt>
<trkpt lat="53.6372252" lon="17.7337743">
<ele>163</ele>
<time>2017-12-10T15:09:26Z</time>
</trkpt>
<trkpt lat="53.6366123" lon="17.7354169">
<ele>164</ele>
<time>2017-12-10T15:09:32Z</time>
</trkpt>
<trkpt lat="53.6359888" lon="17.7370899">
<ele>164</ele>
<time>2017-12-10T15:09:38Z</time>
</trkpt>
<trkpt lat="53.6353501" lon="17.7387942">
<ele>165</ele>
<time>2017-12-10T15:09:44Z</time>
</trkpt>
<trkpt lat="53.6347004" lon="17.7404945">
<ele>165</ele>
<time>2017-12-10T15:09:50Z</time>
</trkpt>
<trkpt lat="53.6340051" lon="17.7422239">
<ele>164</ele>
<time>2017-12-10T15:09:56Z</time>
</trkpt>
<trkpt lat="53.6332948" lon="17.7440027">
<ele>165</ele>
<time>2017-12-10T15:10:02Z</time>
</trkpt>
<trkpt lat="53.6325652" lon="17.7458075">
<ele>166</ele>
<time>2017-12-10T15:10:08Z</time>
</trkpt>
<trkpt lat="53.6318207" lon="17.7476381">
<ele>167</ele>
<time>2017-12-10T15:10:14Z</time>
</trkpt>
<trkpt lat="53.6310694" lon="17.7494837">
<ele>166</ele>
<time>2017-12-10T15:10:20Z</time>
</trkpt>
<trkpt lat="53.6303262" lon="17.7513256">
<ele>166</ele>
<time>2017-12-10T15:10:26Z</time>
</trkpt>
<trkpt lat="53.6296036" lon="17.7531313">
<ele>167</ele>
<time>2017-12-10T15:10:32Z</time>
</trkpt>
<trkpt lat="53.6288702" lon="17.7549450">
<ele>169</ele>
<time>2017-12-10T15:10:38Z</time>
</trkpt>
<trkpt lat="53.6281425" lon="17.7567732">
<ele>169</ele>
<time>2017-12-10T15:10:44Z</time>
</trkpt>
<trkpt lat="53.6273875" lon="17.7586546">
<ele>169</ele>
<time>2017-12-10T15:10:50Z</time>
</trkpt>
<trkpt lat="53.6266515" lon="17.7604752">
<ele>169</ele>
<time>2017-12-10T15:10:56Z</time>
</trkpt>
<trkpt lat="53.6259678" lon="17.7623131">
<ele>168</ele>
<time>2017-12-10T15:11:02Z</time>
</trkpt>
<trkpt lat="53.6252636" lon="17.7641889">
<ele>164</ele>
<time>2017-12-10T15:11:08Z</time>
</trkpt>
<trkpt lat="53.6245404" lon="17.7660147">
<ele>167</ele>
<time>2017-12-10T15:11:14Z</time>
</trkpt>
<trkpt lat="53.6235483" lon="17.7669336">
<ele>169</ele>
<time>2017-12-10T15:11:20Z</time>
</trkpt>
<trkpt lat="53.6224309" lon="17.7676322">
<ele>165</ele>
<time>2017-12-10T15:11:26Z</time>
</trkpt>
<trkpt lat="53.6213153" lon="17.7683758">
<ele>164</ele>
<time>2017-12-10T15:11:32Z</time>
</trkpt>
<trkpt lat="53.6203059" lon="17.7690393">
<ele>163</ele>
<time>2017-12-10T15:11:38Z</time>
</trkpt>
<trkpt lat="53.6194356" lon="17.7696036">
<ele>163</ele>
<time>2017-12-10T15:11:44Z</time>
</trkpt>
<trkpt lat="53.6186694" lon="17.7701107">
<ele>165</ele>
<time>2017-12-10T15:11:50Z</time>
</trkpt>
<trkpt lat="53.6178772" lon="17.7706035">
<ele>169</ele>
<time>2017-12-10T15:11:56Z</time>
</trkpt>
<trkpt lat="53.6170764" lon="17.7711231">
<ele>171</ele>
<time>2017-12-10T15:12:02Z</time>
</trkpt>
<trkpt lat="53.6162711" lon="17.7716352">
<ele>172</ele>
<time>2017-12-10T15:12:08Z</time>
</trkpt>
<trkpt lat="53.6155016" lon="17.7721370">
<ele>172</ele>
<time>2017-12-10T15:12:14Z</time>
</trkpt>
<trkpt lat="53.6150247" lon="17.7724629">
<ele>171</ele>
<time>2017-12-10T15:12:20Z</time>
</trkpt>
<trkpt lat="53.6148073" lon="17.7726661">
<ele>171</ele>
<time>2017-12-10T15:12:26Z</time>
</trkpt>
<trkpt lat="53.6144512" lon="17.7732188">
<ele>171</ele>
<time>2017-12-10T15:12:32Z</time>
</trkpt>
<trkpt lat="53.6140471" lon="17.7741671">
<ele>172</ele>
<time>2017-12-10T15:12:38Z</time>
</trkpt>
<trkpt lat="53.6135655" lon="17.7752973">
<ele>174</ele>
<time>2017-12-10T15:12:44Z</time>
</trkpt>
<trkpt lat="53.6130117" lon="17.7765570">
<ele>177</ele>
<time>2017-12-10T15:12:50Z</time>
</trkpt>
<trkpt lat="53.6124933" lon="17.7778622">
<ele>181</ele>
<time>2017-12-10T15:12:56Z</time>
</trkpt>
<trkpt lat="53.6120207" lon="17.7792925">
<ele>182</ele>
<time>2017-12-10T15:13:02Z</time>
</trkpt>
<trkpt lat="53.6114829" lon="17.7808950">
<ele>182</ele>
<time>2017-12-10T15:13:08Z</time>
</trkpt>
<trkpt lat="53.6109242" lon="17.7825748">
<ele>182</ele>
<time>2017-12-10T15:13:14Z</time>
</trkpt>
<trkpt lat="53.6103453" lon="17.7843427">
<ele>183</ele>
<time>2017-12-10T15:13:20Z</time>
</trkpt>
<trkpt lat="53.6097449" lon="17.7861613">
<ele>182</ele>
<time>2017-12-10T15:13:26Z</time>
</trkpt>
<trkpt lat="53.6091174" lon="17.7880576">
<ele>181</ele>
<time>2017-12-10T15:13:32Z</time>
</trkpt>
<trkpt lat="53.6084835" lon="17.7900328">
<ele>180</ele>
<time>2017-12-10T15:13:38Z</time>
</trkpt>
<trkpt lat="53.6078301" lon="17.7920228">
<ele>181</ele>
<time>2017-12-10T15:13:44Z</time>
</trkpt>
<trkpt lat="53.6071794" lon="17.7940336">
<ele>182</ele>
<time>2017-12-10T15:13:50Z</time>
</trkpt>
<trkpt lat="53.6065197" lon="17.7960419">
<ele>183</ele>
<time>2017-12-10T15:13:56Z</time>
</trkpt>
<trkpt lat="53.6059596" lon="17.7981060">
<ele>183</ele>
<time>2017-12-10T15:14:02Z</time>
</trkpt>
<trkpt lat="53.6055161" lon="17.8002751">
<ele>183</ele>
<time>2017-12-10T15:14:08Z</time>
</trkpt>
<trkpt lat="53.6050691" lon="17.8023766">
<ele>185</ele>
<time>2017-12-10T15:14:14Z</time>
</trkpt>
<trkpt lat="53.6046292" lon="17.8044509">
<ele>185</ele>
<time>2017-12-10T15:14:20Z</time>
</trkpt>
<trkpt lat="53.6041916" lon="17.8064620">
<ele>185</ele>
<time>2017-12-10T15:14:26Z</time>
</trkpt>
<trkpt lat="53.6033769" lon="17.8079877">
<ele>187</ele>
<time>2017-12-10T15:14:32Z</time>
</trkpt>
<trkpt lat="53.6023722" lon="17.8092844">
<ele>185</ele>
<time>2017-12-10T15:14:38Z</time>
</trkpt>
<trkpt lat="53.6014649" lon="17.8105241">
<ele>183</ele>
<time>2017-12-10T15:14:44Z</time>
</trkpt>
<trkpt lat="53.6006225" lon="17.8116577">
<ele>182</ele>
<time>2017-12-10T15:14:50Z</time>
</trkpt>
<trkpt lat="53.5998172" lon="17.8127420">
<ele>180</ele>
<time>2017-12-10T15:14:56Z</time>
</trkpt>
<trkpt lat="53.5990758" lon="17.8137655">
<ele>181</ele>
<time>2017-12-10T15:15:02Z</time>
</trkpt>
<trkpt lat="53.5984126" lon="17.8146701">
<ele>180</ele>
<time>2017-12-10T15:15:08Z</time>
</trkpt>
<trkpt lat="53.5977721" lon="17.8154783">
<ele>179</ele>
<time>2017-12-10T15:15:14Z</time>
</trkpt>
<trkpt lat="53.5970808" lon="17.8160766">
<ele>179</ele>
<time>2017-12-10T15:15:20Z</time>
</trkpt>
<trkpt lat="53.5963565" lon="17.8166575">
<ele>176</ele>
<time>2017-12-10T15:15:26Z</time>
</trkpt>
<trkpt lat="53.5956540" lon="17.8172634">
<ele>174</ele>
<time>2017-12-10T15:15:32Z</time>
</trkpt>
<trkpt lat="53.5950803" lon="17.8181508">
<ele>173</ele>
<time>2017-12-10T15:15:38Z</time>
</trkpt>
<trkpt lat="53.5949882" lon="17.8193081">
<ele>172</ele>
<time>2017-12-10T15:15:44Z</time>
</trkpt>
<trkpt lat="53.5953287" lon="17.8204772">
<ele>174</ele>
<time>2017-12-10T15:15:50Z</time>
</trkpt>
<trkpt lat="53.5954992" lon="17.8217460">
<ele>174</ele>
<time>2017-12-10T15:15:56Z</time>
</trkpt>
<trkpt lat="53.5955842" lon="17.8231613">
<ele>174</ele>
<time>2017-12-10T15:16:02Z</time>
</trkpt>
<trkpt lat="53.5956353" lon="17.8247841">
<ele>173</ele>
<time>2017-12-10T15:16:08Z</time>
</trkpt>
<trkpt lat="53.5956807" lon="17.8264617">
<ele>171</ele>
<time>2017-12-10T15:16:14Z</time>
</trkpt>
<trkpt lat="53.5957351" lon="17.8282758">
<ele>168</ele>
<time>2017-12-10T15:16:20Z</time>
</trkpt>
<trkpt lat="53.5957992" lon="17.8302002">
<ele>166</ele>
<time>2017-12-10T15:16:26Z</time>
</trkpt>
<trkpt lat="53.5958675" lon="17.8322277">
<ele>163</ele>
<time>2017-12-10T15:16:32Z</time>
</trkpt>
<trkpt lat="53.5959421" lon="17.8343115">
<ele>162</ele>
<time>2017-12-10T15:16:38Z</time>
</trkpt>
<trkpt lat="53.5960149" lon="17.8363640">
<ele>162</ele>
<time>2017-12-10T15:16:44Z</time>
</trkpt>
<trkpt lat="53.5960516" lon="17.8383685">
<ele>159</ele>
<time>2017-12-10T15:16:50Z</time>
</trkpt>
<trkpt lat="53.5960758" lon="17.8404425">
<ele>157</ele>
<time>2017-12-10T15:16:56Z</time>
</trkpt>
<trkpt lat="53.5960941" lon="17.8425113">
<ele>157</ele>
<time>2017-12-10T15:17:02Z</time>
</trkpt>
<trkpt lat="53.5961136" lon="17.8444155">
<ele>156</ele>
<time>2017-12-10T15:17:08Z</time>
</trkpt>
<trkpt lat="53.5961150" lon="17.8461585">
<ele>155</ele>
<time>2017-12-10T15:17:14Z</time>
</trkpt>
<trkpt lat="53.5961076" lon="17.8476827">
<ele>155</ele>
<time>2017-12-10T15:17:20Z</time>
</trkpt>
<trkpt lat="53.5957703" lon="17.8489006">
<ele>156</ele>
<time>2017-12-10T15:17:26Z</time>
</trkpt>
<trkpt lat="53.5953189" lon="17.8501530">
<ele>155</ele>
<time>2017-12-10T15:17:32Z</time>
</trkpt>
<trkpt lat="53.5948612" lon="17.8514690">
<ele>155</ele>
<time>2017-12-10T15:17:38Z</time>
</trkpt>
<trkpt lat="53.5944134" lon="17.8527277">
<ele>153</ele>
<time>2017-12-10T15:17:44Z</time>
</trkpt>
<trkpt lat="53.5939962" lon="17.8539041">
<ele>152</ele>
<time>2017-12-10T15:17:50Z</time>
</trkpt>
<trkpt lat="53.5936069" lon="17.8549986">
<ele>151</ele>
<time>2017-12-10T15:17:56Z</time>
</trkpt>
<trkpt lat="53.5931" lon="17.8581">
<ele>152</ele>
<time>2017-12-10T15:18:14Z</time>
</trkpt>
<trkpt lat="53.5932" lon="17.8592">
<ele>154</ele>
<time>2017-12-10T15:18:20Z</time>
</trkpt>
<trkpt lat="53.5932" lon="17.8604">
<ele>155</ele>
<time>2017-12-10T15:18:26Z</time>
</trkpt>
<trkpt lat="53.5932" lon="17.8615">
<ele>156</ele>
<time>2017-12-10T15:18:32Z</time>
</trkpt>
<trkpt lat="53.5931" lon="17.8627">
<ele>154</ele>
<time>2017-12-10T15:18:38Z</time>
</trkpt>
<trkpt lat="53.5931715" lon="17.8638628">
<ele>153</ele>
<time>2017-12-10T15:18:44Z</time>
</trkpt>
<trkpt lat="53.5930827" lon="17.8649743">
<ele>154</ele>
<time>2017-12-10T15:18:50Z</time>
</trkpt>
<trkpt lat="53.5928716" lon="17.8657623">
<ele>156</ele>
<time>2017-12-10T15:18:56Z</time>
</trkpt>
<trkpt lat="53.5924554" lon="17.8662098">
<ele>156</ele>
<time>2017-12-10T15:19:02Z</time>
</trkpt>
<trkpt lat="53.5920214" lon="17.8660252">
<ele>157</ele>
<time>2017-12-10T15:19:08Z</time>
</trkpt>
<trkpt lat="53.5915807" lon="17.8656009">
<ele>156</ele>
<time>2017-12-10T15:19:14Z</time>
</trkpt>
<trkpt lat="53.5911442" lon="17.8651182">
<ele>155</ele>
<time>2017-12-10T15:19:20Z</time>
</trkpt>
<trkpt lat="53.5908169" lon="17.8647626">
<ele>149</ele>
<time>2017-12-10T15:19:26Z</time>
</trkpt>
<trkpt lat="53.5905245" lon="17.8651487">
<ele>148</ele>
<time>2017-12-10T15:19:32Z</time>
</trkpt>
<trkpt lat="53.5901697" lon="17.8657307">
<ele>146</ele>
<time>2017-12-10T15:19:38Z</time>
</trkpt>
<trkpt lat="53.5896685" lon="17.8664220">
<ele>146</ele>
<time>2017-12-10T15:19:44Z</time>
</trkpt>
<trkpt lat="53.5891871" lon="17.8671613">
<ele>148</ele>
<time>2017-12-10T15:19:50Z</time>
</trkpt>
<trkpt lat="53.5888096" lon="17.8678587">
<ele>150</ele>
<time>2017-12-10T15:19:56Z</time>
</trkpt>
<trkpt lat="53.5884298" lon="17.8685575">
<ele>150</ele>
<time>2017-12-10T15:20:02Z</time>
</trkpt>
<trkpt lat="53.5880355" lon="17.8692908">
<ele>151</ele>
<time>2017-12-10T15:20:08Z</time>
</trkpt>
<trkpt lat="53.5876632" lon="17.8699863">
<ele>151</ele>
<time>2017-12-10T15:20:14Z</time>
</trkpt>
<trkpt lat="53.5873143" lon="17.8706245">
<ele>152</ele>
<time>2017-12-10T15:20:20Z</time>
</trkpt>
<trkpt lat="53.5870648" lon="17.8711558">
<ele>153</ele>
<time>2017-12-10T15:20:26Z</time>
</trkpt>
<trkpt lat="53.5869630" lon="17.8715009">
<ele>154</ele>
<time>2017-12-10T15:20:32Z</time>
</trkpt>
<trkpt lat="53.5871151" lon="17.8717273">
<ele>154</ele>
<time>2017-12-10T15:20:38Z</time>
</trkpt>
<trkpt lat="53.5870973" lon="17.8717908">
<ele>153</ele>
<time>2017-12-10T15:20:44Z</time>
</trkpt>
<trkpt lat="53.5870973" lon="17.8717908">
<ele>153</ele>
<time>2017-12-10T15:20:50Z</time>
</trkpt>
<trkpt lat="53.5870973" lon="17.8717908">
<ele>153</ele>
<time>2017-12-10T15:20:56Z</time>
</trkpt>
<trkpt lat="53.5870973" lon="17.8717908">
<ele>153</ele>
<time>2017-12-10T15:21:02Z</time>
</trkpt>
<trkpt lat="53.5870973" lon="17.8717908">
<ele>153</ele>
<time>2017-12-10T15:21:08Z</time>
</trkpt>
<trkpt lat="53.5870973" lon="17.8717908">
<ele>153</ele>
<time>2017-12-10T15:21:14Z</time>
</trkpt>
<trkpt lat="53.5870973" lon="17.8717908">
<ele>153</ele>
<time>2017-12-10T15:21:20Z</time>
</trkpt>
<trkpt lat="53.5870973" lon="17.8717908">
<ele>153</ele>
<time>2017-12-10T15:21:26Z</time>
</trkpt>
<trkpt lat="53.5870973" lon="17.8717908">
<ele>153</ele>
<time>2017-12-10T15:21:32Z</time>
</trkpt>
<trkpt lat="53.5870973" lon="17.8717908">
<ele>153</ele>
<time>2017-12-10T15:21:38Z</time>
</trkpt>
<trkpt lat="53.5870973" lon="17.8717908">
<ele>153</ele>
<time>2017-12-10T15:21:44Z</time>
</trkpt>
<trkpt lat="53.5870973" lon="17.8717908">
<ele>153</ele>
<time>2017-12-10T15:21:50Z</time>
</trkpt>
<trkpt lat="53.5870973" lon="17.8717908">
<ele>153</ele>
<time>2017-12-10T15:21:56Z</time>
</trkpt>
<trkpt lat="53.5870973" lon="17.8717908">
<ele>153</ele>
<time>2017-12-10T15:22:02Z</time>
</trkpt>
<trkpt lat="53.5871023" lon="17.8717756">
<ele>152</ele>
<time>2017-12-10T15:22:08Z</time>
</trkpt>
<trkpt lat="53.5870995" lon="17.8717822">
<ele>152</ele>
<time>2017-12-10T15:22:14Z</time>
</trkpt>
<trkpt lat="53.5870995" lon="17.8717822">
<ele>152</ele>
<time>2017-12-10T15:22:20Z</time>
</trkpt>
<trkpt lat="53.5870995" lon="17.8717822">
<ele>152</ele>
<time>2017-12-10T15:22:26Z</time>
</trkpt>
<trkpt lat="53.5870995" lon="17.8717822">
<ele>152</ele>
<time>2017-12-10T15:22:32Z</time>
</trkpt>
<trkpt lat="53.5870995" lon="17.8717822">
<ele>152</ele>
<time>2017-12-10T15:22:38Z</time>
</trkpt>
<trkpt lat="53.5870995" lon="17.8717822">
<ele>152</ele>
<time>2017-12-10T15:22:44Z</time>
</trkpt>
<trkpt lat="53.5870995" lon="17.8717822">
<ele>152</ele>
<time>2017-12-10T15:22:50Z</time>
</trkpt>
<trkpt lat="53.5870995" lon="17.8717822">
<ele>152</ele>
<time>2017-12-10T15:22:56Z</time>
</trkpt>
<trkpt lat="53.5870995" lon="17.8717822">
<ele>152</ele>
<time>2017-12-10T15:23:02Z</time>
</trkpt>
<trkpt lat="53.5870995" lon="17.8717822">
<ele>152</ele>
<time>2017-12-10T15:23:08Z</time>
</trkpt>
<trkpt lat="53.5870995" lon="17.8717822">
<ele>152</ele>
<time>2017-12-10T15:23:14Z</time>
</trkpt>
<trkpt lat="53.5870995" lon="17.8717822">
<ele>152</ele>
<time>2017-12-10T15:23:20Z</time>
</trkpt>
<trkpt lat="53.5871011" lon="17.8717503">
<ele>152</ele>
<time>2017-12-10T15:23:26Z</time>
</trkpt>
<trkpt lat="53.5871331" lon="17.8716853">
<ele>152</ele>
<time>2017-12-10T15:23:32Z</time>
</trkpt>
<trkpt lat="53.5871487" lon="17.8716090">
<ele>152</ele>
<time>2017-12-10T15:23:38Z</time>
</trkpt>
<trkpt lat="53.5871663" lon="17.8715167">
<ele>151</ele>
<time>2017-12-10T15:23:44Z</time>
</trkpt>
<trkpt lat="53.5872074" lon="17.8714655">
<ele>150</ele>
<time>2017-12-10T15:23:50Z</time>
</trkpt>
<trkpt lat="53.5872309" lon="17.8714011">
<ele>149</ele>
<time>2017-12-10T15:23:56Z</time>
</trkpt>
<trkpt lat="53.5872458" lon="17.8713645">
<ele>147</ele>
<time>2017-12-10T15:24:02Z</time>
</trkpt>
<trkpt lat="53.5872556" lon="17.8713104">
<ele>147</ele>
<time>2017-12-10T15:24:08Z</time>
</trkpt>
<trkpt lat="53.5872816" lon="17.8713074">
<ele>146</ele>
<time>2017-12-10T15:24:14Z</time>
</trkpt>
<trkpt lat="53.5873067" lon="17.8713078">
<ele>146</ele>
<time>2017-12-10T15:24:20Z</time>
</trkpt>
<trkpt lat="53.5872950" lon="17.8713571">
<ele>146</ele>
<time>2017-12-10T15:24:26Z</time>
</trkpt>
<trkpt lat="53.5872471" lon="17.8712692">
<ele>146</ele>
<time>2017-12-10T15:24:32Z</time>
</trkpt>
<trkpt lat="53.5872126" lon="17.8710929">
<ele>146</ele>
<time>2017-12-10T15:24:38Z</time>
</trkpt>
<trkpt lat="53.5872049" lon="17.8710609">
<ele>146</ele>
<time>2017-12-10T15:24:44Z</time>
</trkpt>
<trkpt lat="53.5872626" lon="17.8711159">
<ele>146</ele>
<time>2017-12-10T15:24:50Z</time>
</trkpt>
<trkpt lat="53.5873345" lon="17.8711570">
<ele>147</ele>
<time>2017-12-10T15:24:56Z</time>
</trkpt>
<trkpt lat="53.5875006" lon="17.8709609">
<ele>147</ele>
<time>2017-12-10T15:25:02Z</time>
</trkpt>
<trkpt lat="53.5876310" lon="17.8709014">
<ele>147</ele>
<time>2017-12-10T15:25:08Z</time>
</trkpt>
<trkpt lat="53.5877289" lon="17.8708357">
<ele>147</ele>
<time>2017-12-10T15:25:14Z</time>
</trkpt>
<trkpt lat="53.5878555" lon="17.8708080">
<ele>147</ele>
<time>2017-12-10T15:25:20Z</time>
</trkpt>
<trkpt lat="53.5879880" lon="17.8708089">
<ele>147</ele>
<time>2017-12-10T15:25:26Z</time>
</trkpt>
<trkpt lat="53.5880486" lon="17.8708341">
<ele>147</ele>
<time>2017-12-10T15:25:32Z</time>
</trkpt>
<trkpt lat="53.5881148" lon="17.8708785">
<ele>147</ele>
<time>2017-12-10T15:25:38Z</time>
</trkpt>
<trkpt lat="53.5880961" lon="17.8708314">
<ele>147</ele>
<time>2017-12-10T15:25:44Z</time>
</trkpt>
<trkpt lat="53.5881346" lon="17.8708262">
<ele>148</ele>
<time>2017-12-10T15:25:50Z</time>
</trkpt>
<trkpt lat="53.5876976" lon="17.8713413">
<ele>147</ele>
<time>2017-12-10T15:25:56Z</time>
</trkpt>
<trkpt lat="53.5877021" lon="17.8713578">
<ele>145</ele>
<time>2017-12-10T15:26:02Z</time>
</trkpt>
<trkpt lat="53.5877991" lon="17.8715183">
<ele>149</ele>
<time>2017-12-10T15:26:08Z</time>
</trkpt>
<trkpt lat="53.5878655" lon="17.8715842">
<ele>150</ele>
<time>2017-12-10T15:26:14Z</time>
</trkpt>
<trkpt lat="53.5878760" lon="17.8715811">
<ele>151</ele>
<time>2017-12-10T15:26:20Z</time>
</trkpt>
<trkpt lat="53.5878349" lon="17.8715426">
<ele>152</ele>
<time>2017-12-10T15:26:26Z</time>
</trkpt>
<trkpt lat="53.5878189" lon="17.8715219">
<ele>153</ele>
<time>2017-12-10T15:26:32Z</time>
</trkpt>
<trkpt lat="53.5878193" lon="17.8714994">
<ele>153</ele>
<time>2017-12-10T15:26:38Z</time>
</trkpt>
<trkpt lat="53.5878194" lon="17.8714980">
<ele>153</ele>
<time>2017-12-10T15:26:44Z</time>
</trkpt>
<trkpt lat="53.5878201" lon="17.8714960">
<ele>153</ele>
<time>2017-12-10T15:26:50Z</time>
</trkpt>
<trkpt lat="53.5878257" lon="17.8714905">
<ele>153</ele>
<time>2017-12-10T15:26:56Z</time>
</trkpt>
<trkpt lat="53.5878257" lon="17.8714905">
<ele>153</ele>
<time>2017-12-10T15:27:02Z</time>
</trkpt>
<trkpt lat="53.5878276" lon="17.8714997">
<ele>153</ele>
<time>2017-12-10T15:27:08Z</time>
</trkpt>
<trkpt lat="53.5878022" lon="17.8715030">
<ele>152</ele>
<time>2017-12-10T15:27:14Z</time>
</trkpt>
<trkpt lat="53.5877122" lon="17.8714286">
<ele>151</ele>
<time>2017-12-10T15:27:20Z</time>
</trkpt>
<trkpt lat="53.5877313" lon="17.8714268">
<ele>152</ele>
<time>2017-12-10T15:27:26Z</time>
</trkpt>
<trkpt lat="53.5877859" lon="17.8714027">
<ele>153</ele>
<time>2017-12-10T15:27:32Z</time>
</trkpt>
<trkpt lat="53.5877821" lon="17.8713483">
<ele>152</ele>
<time>2017-12-10T15:27:38Z</time>
</trkpt>
<trkpt lat="53.5876324" lon="17.8715053">
<ele>149</ele>
<time>2017-12-10T15:27:44Z</time>
</trkpt>
<trkpt lat="53.5876324" lon="17.8715053">
<ele>149</ele>
<time>2017-12-10T15:27:50Z</time>
</trkpt>
<trkpt lat="53.5876324" lon="17.8715053">
<ele>149</ele>
<time>2017-12-10T15:27:56Z</time>
</trkpt>
<trkpt lat="53.5876324" lon="17.8715053">
<ele>149</ele>
<time>2017-12-10T15:28:02Z</time>
</trkpt>
<trkpt lat="53.5876324" lon="17.8715053">
<ele>149</ele>
<time>2017-12-10T15:28:08Z</time>
</trkpt>
<trkpt lat="53.5876324" lon="17.8715053">
<ele>149</ele>
<time>2017-12-10T15:28:14Z</time>
</trkpt>
<trkpt lat="53.5876426" lon="17.8715065">
<ele>150</ele>
<time>2017-12-10T15:28:20Z</time>
</trkpt>
<trkpt lat="53.5876451" lon="17.8715172">
<ele>150</ele>
<time>2017-12-10T15:28:26Z</time>
</trkpt>
<trkpt lat="53.5876451" lon="17.8715172">
<ele>150</ele>
<time>2017-12-10T15:28:32Z</time>
</trkpt>
<trkpt lat="53.5876451" lon="17.8715172">
<ele>150</ele>
<time>2017-12-10T15:28:38Z</time>
</trkpt>
<trkpt lat="53.5876451" lon="17.8715172">
<ele>150</ele>
<time>2017-12-10T15:28:44Z</time>
</trkpt>
<trkpt lat="53.5876451" lon="17.8715172">
<ele>150</ele>
<time>2017-12-10T15:28:50Z</time>
</trkpt>
<trkpt lat="53.5876451" lon="17.8715172">
<ele>150</ele>
<time>2017-12-10T15:28:56Z</time>
</trkpt>
<trkpt lat="53.5876451" lon="17.8715172">
<ele>150</ele>
<time>2017-12-10T15:29:02Z</time>
</trkpt>
<trkpt lat="53.5876451" lon="17.8715172">
<ele>150</ele>
<time>2017-12-10T15:29:08Z</time>
</trkpt>
<trkpt lat="53.5876451" lon="17.8715172">
<ele>150</ele>
<time>2017-12-10T15:29:14Z</time>
</trkpt>
<trkpt lat="53.5876451" lon="17.8715172">
<ele>150</ele>
<time>2017-12-10T15:29:20Z</time>
</trkpt>
<trkpt lat="53.5876451" lon="17.8715172">
<ele>150</ele>
<time>2017-12-10T15:29:26Z</time>
</trkpt>
<trkpt lat="53.5876451" lon="17.8715172">
<ele>150</ele>
<time>2017-12-10T15:29:32Z</time>
</trkpt>
<trkpt lat="53.5876451" lon="17.8715172">
<ele>150</ele>
<time>2017-12-10T15:29:38Z</time>
</trkpt>
<trkpt lat="53.5876451" lon="17.8715172">
<ele>150</ele>
<time>2017-12-10T15:29:44Z</time>
</trkpt>
<trkpt lat="53.5876451" lon="17.8715172">
<ele>150</ele>
<time>2017-12-10T15:29:50Z</time>
</trkpt>
<trkpt lat="53.5876451" lon="17.8715172">
<ele>150</ele>
<time>2017-12-10T15:29:56Z</time>
</trkpt>
<trkpt lat="53.5876451" lon="17.8715172">
<ele>150</ele>
<time>2017-12-10T15:30:02Z</time>
</trkpt>
<trkpt lat="53.5876451" lon="17.8715172">
<ele>150</ele>
<time>2017-12-10T15:30:08Z</time>
</trkpt>
<trkpt lat="53.5876451" lon="17.8715172">
<ele>150</ele>
<time>2017-12-10T15:30:14Z</time>
</trkpt>
<trkpt lat="53.5876451" lon="17.8715172">
<ele>150</ele>
<time>2017-12-10T15:30:20Z</time>
</trkpt>
<trkpt lat="53.5876451" lon="17.8715172">
<ele>150</ele>
<time>2017-12-10T15:30:26Z</time>
</trkpt>
<trkpt lat="53.5876451" lon="17.8715172">
<ele>150</ele>
<time>2017-12-10T15:30:32Z</time>
</trkpt>
<trkpt lat="53.5876451" lon="17.8715172">
<ele>150</ele>
<time>2017-12-10T15:30:38Z</time>
</trkpt>
<trkpt lat="53.5876451" lon="17.8715172">
<ele>150</ele>
<time>2017-12-10T15:30:44Z</time>
</trkpt>
<trkpt lat="53.5876451" lon="17.8715172">
<ele>150</ele>
<time>2017-12-10T15:30:50Z</time>
</trkpt>
<trkpt lat="53.5876451" lon="17.8715172">
<ele>150</ele>
<time>2017-12-10T15:30:56Z</time>
</trkpt>
<trkpt lat="53.5876451" lon="17.8715172">
<ele>150</ele>
<time>2017-12-10T15:31:02Z</time>
</trkpt>
<trkpt lat="53.5876451" lon="17.8715172">
<ele>150</ele>
<time>2017-12-10T15:31:08Z</time>
</trkpt>
<trkpt lat="53.5876451" lon="17.8715172">
<ele>150</ele>
<time>2017-12-10T15:31:14Z</time>
</trkpt>
<trkpt lat="53.5876451" lon="17.8715172">
<ele>150</ele>
<time>2017-12-10T15:31:20Z</time>
</trkpt>
<trkpt lat="53.5876451" lon="17.8715172">
<ele>150</ele>
<time>2017-12-10T15:31:26Z</time>
</trkpt>
<trkpt lat="53.5876451" lon="17.8715172">
<ele>150</ele>
<time>2017-12-10T15:31:32Z</time>
</trkpt>
<trkpt lat="53.5876451" lon="17.8715172">
<ele>150</ele>
<time>2017-12-10T15:31:38Z</time>
</trkpt>
<trkpt lat="53.5876451" lon="17.8715172">
<ele>150</ele>
<time>2017-12-10T15:31:44Z</time>
</trkpt>
<trkpt lat="53.5876451" lon="17.8715172">
<ele>150</ele>
<time>2017-12-10T15:31:50Z</time>
</trkpt>
<trkpt lat="53.5876451" lon="17.8715172">
<ele>150</ele>
<time>2017-12-10T15:31:56Z</time>
</trkpt>
<trkpt lat="53.5876451" lon="17.8715172">
<ele>150</ele>
<time>2017-12-10T15:32:02Z</time>
</trkpt>
<trkpt lat="53.5876329" lon="17.8714958">
<ele>150</ele>
<time>2017-12-10T15:32:08Z</time>
</trkpt>
<trkpt lat="53.5876300" lon="17.8715153">
<ele>149</ele>
<time>2017-12-10T15:32:14Z</time>
</trkpt>
<trkpt lat="53.5876340" lon="17.8715175">
<ele>150</ele>
<time>2017-12-10T15:32:20Z</time>
</trkpt>
<trkpt lat="53.5876340" lon="17.8715175">
<ele>150</ele>
<time>2017-12-10T15:32:26Z</time>
</trkpt>
<trkpt lat="53.5876340" lon="17.8715175">
<ele>150</ele>
<time>2017-12-10T15:32:32Z</time>
</trkpt>
<trkpt lat="53.5876340" lon="17.8715175">
<ele>150</ele>
<time>2017-12-10T15:32:38Z</time>
</trkpt>
<trkpt lat="53.5876828" lon="17.8714814">
<ele>149</ele>
<time>2017-12-10T15:32:44Z</time>
</trkpt>
<trkpt lat="53.5876903" lon="17.8714657">
<ele>149</ele>
<time>2017-12-10T15:32:50Z</time>
</trkpt>
<trkpt lat="53.5876689" lon="17.8713973">
<ele>150</ele>
<time>2017-12-10T15:32:56Z</time>
</trkpt>
<trkpt lat="53.5876689" lon="17.8713973">
<ele>150</ele>
<time>2017-12-10T15:33:02Z</time>
</trkpt>
<trkpt lat="53.5876689" lon="17.8713973">
<ele>150</ele>
<time>2017-12-10T15:33:08Z</time>
</trkpt>
<trkpt lat="53.5876689" lon="17.8713973">
<ele>150</ele>
<time>2017-12-10T15:33:14Z</time>
</trkpt>
<trkpt lat="53.5876689" lon="17.8713973">
<ele>150</ele>
<time>2017-12-10T15:33:20Z</time>
</trkpt>
<trkpt lat="53.5876689" lon="17.8713973">
<ele>150</ele>
<time>2017-12-10T15:33:26Z</time>
</trkpt>
<trkpt lat="53.5876689" lon="17.8713973">
<ele>150</ele>
<time>2017-12-10T15:33:32Z</time>
</trkpt>
<trkpt lat="53.5876689" lon="17.8713973">
<ele>150</ele>
<time>2017-12-10T15:33:38Z</time>
</trkpt>
<trkpt lat="53.5876689" lon="17.8713973">
<ele>150</ele>
<time>2017-12-10T15:33:44Z</time>
</trkpt>
<trkpt lat="53.5876689" lon="17.8713973">
<ele>150</ele>
<time>2017-12-10T15:33:50Z</time>
</trkpt>
<trkpt lat="53.5876689" lon="17.8713973">
<ele>150</ele>
<time>2017-12-10T15:33:56Z</time>
</trkpt>
<trkpt lat="53.5876689" lon="17.8713973">
<ele>150</ele>
<time>2017-12-10T15:34:02Z</time>
</trkpt>
<trkpt lat="53.5876689" lon="17.8713973">
<ele>150</ele>
<time>2017-12-10T15:34:08Z</time>
</trkpt>
<trkpt lat="53.5876689" lon="17.8713973">
<ele>150</ele>
<time>2017-12-10T15:34:14Z</time>
</trkpt>
<trkpt lat="53.5876689" lon="17.8713973">
<ele>150</ele>
<time>2017-12-10T15:34:20Z</time>
</trkpt>
<trkpt lat="53.5876689" lon="17.8713973">
<ele>150</ele>
<time>2017-12-10T15:34:26Z</time>
</trkpt>
<trkpt lat="53.5875170" lon="17.8713679">
<ele>150</ele>
<time>2017-12-10T15:34:32Z</time>
</trkpt>
<trkpt lat="53.5874873" lon="17.8713945">
<ele>150</ele>
<time>2017-12-10T15:34:38Z</time>
</trkpt>
<trkpt lat="53.5875131" lon="17.8713790">
<ele>150</ele>
<time>2017-12-10T15:34:44Z</time>
</trkpt>
<trkpt lat="53.5875131" lon="17.8713790">
<ele>150</ele>
<time>2017-12-10T15:34:50Z</time>
</trkpt>
<trkpt lat="53.5875131" lon="17.8713790">
<ele>150</ele>
<time>2017-12-10T15:34:56Z</time>
</trkpt>
<trkpt lat="53.5875131" lon="17.8713790">
<ele>150</ele>
<time>2017-12-10T15:35:02Z</time>
</trkpt>
<trkpt lat="53.5875131" lon="17.8713790">
<ele>150</ele>
<time>2017-12-10T15:35:08Z</time>
</trkpt>
<trkpt lat="53.5875028" lon="17.8713482">
<ele>151</ele>
<time>2017-12-10T15:35:14Z</time>
</trkpt>
<trkpt lat="53.5875028" lon="17.8713482">
<ele>151</ele>
<time>2017-12-10T15:35:20Z</time>
</trkpt>
<trkpt lat="53.5875028" lon="17.8713482">
<ele>151</ele>
<time>2017-12-10T15:35:26Z</time>
</trkpt>
<trkpt lat="53.5875028" lon="17.8713482">
<ele>151</ele>
<time>2017-12-10T15:35:32Z</time>
</trkpt>
<trkpt lat="53.5875028" lon="17.8713482">
<ele>151</ele>
<time>2017-12-10T15:35:38Z</time>
</trkpt>
<trkpt lat="53.5875173" lon="17.8712908">
<ele>151</ele>
<time>2017-12-10T15:35:44Z</time>
</trkpt>
<trkpt lat="53.5875173" lon="17.8712908">
<ele>151</ele>
<time>2017-12-10T15:35:50Z</time>
</trkpt>
<trkpt lat="53.5875173" lon="17.8712908">
<ele>151</ele>
<time>2017-12-10T15:35:56Z</time>
</trkpt>
<trkpt lat="53.5875173" lon="17.8712908">
<ele>151</ele>
<time>2017-12-10T15:36:02Z</time>
</trkpt>
<trkpt lat="53.5875173" lon="17.8712908">
<ele>151</ele>
<time>2017-12-10T15:36:08Z</time>
</trkpt>
<trkpt lat="53.5875266" lon="17.8712161">
<ele>151</ele>
<time>2017-12-10T15:36:14Z</time>
</trkpt>
<trkpt lat="53.5875194" lon="17.8711223">
<ele>150</ele>
<time>2017-12-10T15:36:20Z</time>
</trkpt>
<trkpt lat="53.5875196" lon="17.8711331">
<ele>149</ele>
<time>2017-12-10T15:36:26Z</time>
</trkpt>
<trkpt lat="53.5874951" lon="17.8711587">
<ele>149</ele>
<time>2017-12-10T15:36:32Z</time>
</trkpt>
<trkpt lat="53.5875799" lon="17.8712585">
<ele>150</ele>
<time>2017-12-10T15:36:38Z</time>
</trkpt>
<trkpt lat="53.5877505" lon="17.8712712">
<ele>149</ele>
<time>2017-12-10T15:36:44Z</time>
</trkpt>
<trkpt lat="53.5878172" lon="17.8712435">
<ele>151</ele>
<time>2017-12-10T15:36:50Z</time>
</trkpt>
<trkpt lat="53.5878246" lon="17.8711841">
<ele>152</ele>
<time>2017-12-10T15:36:56Z</time>
</trkpt>
<trkpt lat="53.5878710" lon="17.8711879">
<ele>152</ele>
<time>2017-12-10T15:37:02Z</time>
</trkpt>
<trkpt lat="53.5877783" lon="17.8711979">
<ele>149</ele>
<time>2017-12-10T15:37:08Z</time>
</trkpt>
<trkpt lat="53.5876678" lon="17.8709900">
<ele>146</ele>
<time>2017-12-10T15:37:14Z</time>
</trkpt>
<trkpt lat="53.5876734" lon="17.8710973">
<ele>144</ele>
<time>2017-12-10T15:37:20Z</time>
</trkpt>
<trkpt lat="53.5876940" lon="17.8711229">
<ele>143</ele>
<time>2017-12-10T15:37:26Z</time>
</trkpt>
<trkpt lat="53.5877536" lon="17.8710937">
<ele>143</ele>
<time>2017-12-10T15:37:32Z</time>
</trkpt>
<trkpt lat="53.5877799" lon="17.8712060">
<ele>146</ele>
<time>2017-12-10T15:37:38Z</time>
</trkpt>
<trkpt lat="53.5877177" lon="17.8712615">
<ele>144</ele>
<time>2017-12-10T15:37:44Z</time>
</trkpt>
<trkpt lat="53.5877029" lon="17.8712480">
<ele>143</ele>
<time>2017-12-10T15:37:50Z</time>
</trkpt>
<trkpt lat="53.5875926" lon="17.8711764">
<ele>143</ele>
<time>2017-12-10T15:37:56Z</time>
</trkpt>
<trkpt lat="53.5875605" lon="17.8711705">
<ele>146</ele>
<time>2017-12-10T15:38:02Z</time>
</trkpt>
<trkpt lat="53.5875617" lon="17.8711782">
<ele>148</ele>
<time>2017-12-10T15:38:08Z</time>
</trkpt>
<trkpt lat="53.5875431" lon="17.8712415">
<ele>142</ele>
<time>2017-12-10T15:38:14Z</time>
</trkpt>
<trkpt lat="53.5872014" lon="17.8711626">
<ele>140</ele>
<time>2017-12-10T15:38:20Z</time>
</trkpt>
<trkpt lat="53.5871376" lon="17.8710621">
<ele>149</ele>
<time>2017-12-10T15:38:26Z</time>
</trkpt>
<trkpt lat="53.5870667" lon="17.8710154">
<ele>149</ele>
<time>2017-12-10T15:38:32Z</time>
</trkpt>
<trkpt lat="53.5870022" lon="17.8710693">
<ele>152</ele>
<time>2017-12-10T15:38:38Z</time>
</trkpt>
<trkpt lat="53.5869909" lon="17.8711996">
<ele>152</ele>
<time>2017-12-10T15:38:44Z</time>
</trkpt>
<trkpt lat="53.5869083" lon="17.8712173">
<ele>153</ele>
<time>2017-12-10T15:38:50Z</time>
</trkpt>
<trkpt lat="53.5868884" lon="17.8713693">
<ele>154</ele>
<time>2017-12-10T15:38:56Z</time>
</trkpt>
<trkpt lat="53.5868780" lon="17.8715289">
<ele>156</ele>
<time>2017-12-10T15:39:02Z</time>
</trkpt>
<trkpt lat="53.5868998" lon="17.8716046">
<ele>156</ele>
<time>2017-12-10T15:39:08Z</time>
</trkpt>
<trkpt lat="53.5869066" lon="17.8716029">
<ele>156</ele>
<time>2017-12-10T15:39:14Z</time>
</trkpt>
<trkpt lat="53.5869066" lon="17.8716029">
<ele>156</ele>
<time>2017-12-10T15:39:20Z</time>
</trkpt>
<trkpt lat="53.5869066" lon="17.8716029">
<ele>156</ele>
<time>2017-12-10T15:39:26Z</time>
</trkpt>
<trkpt lat="53.5869066" lon="17.8716029">
<ele>156</ele>
<time>2017-12-10T15:39:32Z</time>
</trkpt>
<trkpt lat="53.5869066" lon="17.8716029">
<ele>156</ele>
<time>2017-12-10T15:39:38Z</time>
</trkpt>
<trkpt lat="53.5869066" lon="17.8716029">
<ele>156</ele>
<time>2017-12-10T15:39:44Z</time>
</trkpt>
<trkpt lat="53.5869066" lon="17.8716029">
<ele>156</ele>
<time>2017-12-10T15:39:50Z</time>
</trkpt>
<trkpt lat="53.5869066" lon="17.8716029">
<ele>156</ele>
<time>2017-12-10T15:39:56Z</time>
</trkpt>
<trkpt lat="53.5869066" lon="17.8716029">
<ele>156</ele>
<time>2017-12-10T15:40:02Z</time>
</trkpt>
<trkpt lat="53.5869066" lon="17.8716029">
<ele>156</ele>
<time>2017-12-10T15:40:08Z</time>
</trkpt>
<trkpt lat="53.5869066" lon="17.8716029">
<ele>156</ele>
<time>2017-12-10T15:40:14Z</time>
</trkpt>
<trkpt lat="53.5869066" lon="17.8716029">
<ele>156</ele>
<time>2017-12-10T15:40:20Z</time>
</trkpt>
<trkpt lat="53.5869066" lon="17.8716029">
<ele>156</ele>
<time>2017-12-10T15:40:26Z</time>
</trkpt>
<trkpt lat="53.5869066" lon="17.8716029">
<ele>156</ele>
<time>2017-12-10T15:40:32Z</time>
</trkpt>
<trkpt lat="53.5869066" lon="17.8716029">
<ele>156</ele>
<time>2017-12-10T15:40:38Z</time>
</trkpt>
<trkpt lat="53.5869066" lon="17.8716029">
<ele>156</ele>
<time>2017-12-10T15:40:44Z</time>
</trkpt>
<trkpt lat="53.5869066" lon="17.8716029">
<ele>156</ele>
<time>2017-12-10T15:40:50Z</time>
</trkpt>
<trkpt lat="53.5869066" lon="17.8716029">
<ele>156</ele>
<time>2017-12-10T15:40:56Z</time>
</trkpt>
<trkpt lat="53.5869066" lon="17.8716029">
<ele>156</ele>
<time>2017-12-10T15:41:02Z</time>
</trkpt>
<trkpt lat="53.5869066" lon="17.8716029">
<ele>156</ele>
<time>2017-12-10T15:41:08Z</time>
</trkpt>
<trkpt lat="53.5869066" lon="17.8716029">
<ele>156</ele>
<time>2017-12-10T15:41:14Z</time>
</trkpt>
<trkpt lat="53.5869066" lon="17.8716029">
<ele>156</ele>
<time>2017-12-10T15:41:20Z</time>
</trkpt>
<trkpt lat="53.5869066" lon="17.8716029">
<ele>156</ele>
<time>2017-12-10T15:41:26Z</time>
</trkpt>
<trkpt lat="53.5869066" lon="17.8716029">
<ele>156</ele>
<time>2017-12-10T15:41:32Z</time>
</trkpt>
<trkpt lat="53.5869066" lon="17.8716029">
<ele>156</ele>
<time>2017-12-10T15:41:38Z</time>
</trkpt>
<trkpt lat="53.5869066" lon="17.8716029">
<ele>156</ele>
<time>2017-12-10T15:41:44Z</time>
</trkpt>
<trkpt lat="53.5869066" lon="17.8716029">
<ele>156</ele>
<time>2017-12-10T15:41:50Z</time>
</trkpt>
<trkpt lat="53.5869066" lon="17.8716029">
<ele>156</ele>
<time>2017-12-10T15:41:56Z</time>
</trkpt>
<trkpt lat="53.5869066" lon="17.8716029">
<ele>156</ele>
<time>2017-12-10T15:42:02Z</time>
</trkpt>
<trkpt lat="53.5869066" lon="17.8716029">
<ele>156</ele>
<time>2017-12-10T15:42:08Z</time>
</trkpt>
<trkpt lat="53.5869066" lon="17.8716029">
<ele>156</ele>
<time>2017-12-10T15:42:14Z</time>
</trkpt>
<trkpt lat="53.5869066" lon="17.8716029">
<ele>156</ele>
<time>2017-12-10T15:42:20Z</time>
</trkpt>
<trkpt lat="53.5869066" lon="17.8716029">
<ele>156</ele>
<time>2017-12-10T15:42:26Z</time>
</trkpt>
<trkpt lat="53.5869066" lon="17.8716029">
<ele>156</ele>
<time>2017-12-10T15:42:32Z</time>
</trkpt>
<trkpt lat="53.5869066" lon="17.8716029">
<ele>156</ele>
<time>2017-12-10T15:42:38Z</time>
</trkpt>
<trkpt lat="53.5869066" lon="17.8716029">
<ele>156</ele>
<time>2017-12-10T15:42:44Z</time>
</trkpt>
<trkpt lat="53.5869066" lon="17.8716029">
<ele>156</ele>
<time>2017-12-10T15:42:50Z</time>
</trkpt>
<trkpt lat="53.5869066" lon="17.8716029">
<ele>156</ele>
<time>2017-12-10T15:42:56Z</time>
</trkpt>
<trkpt lat="53.5869066" lon="17.8716029">
<ele>156</ele>
<time>2017-12-10T15:43:02Z</time>
</trkpt>
<trkpt lat="53.5869066" lon="17.8716029">
<ele>156</ele>
<time>2017-12-10T15:43:08Z</time>
</trkpt>
<trkpt lat="53.5869066" lon="17.8716029">
<ele>156</ele>
<time>2017-12-10T15:43:14Z</time>
</trkpt>
<trkpt lat="53.5869066" lon="17.8716029">
<ele>156</ele>
<time>2017-12-10T15:43:20Z</time>
</trkpt>
<trkpt lat="53.5869066" lon="17.8716029">
<ele>156</ele>
<time>2017-12-10T15:43:26Z</time>
</trkpt>
<trkpt lat="53.5869066" lon="17.8716029">
<ele>156</ele>
<time>2017-12-10T15:43:32Z</time>
</trkpt>
<trkpt lat="53.5869066" lon="17.8716029">
<ele>156</ele>
<time>2017-12-10T15:43:38Z</time>
</trkpt>
<trkpt lat="53.5869066" lon="17.8716029">
<ele>156</ele>
<time>2017-12-10T15:43:44Z</time>
</trkpt>
<trkpt lat="53.5869066" lon="17.8716029">
<ele>156</ele>
<time>2017-12-10T15:43:50Z</time>
</trkpt>
<trkpt lat="53.5869066" lon="17.8716029">
<ele>156</ele>
<time>2017-12-10T15:43:56Z</time>
</trkpt>
<trkpt lat="53.5869066" lon="17.8716029">
<ele>156</ele>
<time>2017-12-10T15:44:02Z</time>
</trkpt>
<trkpt lat="53.5869066" lon="17.8716029">
<ele>156</ele>
<time>2017-12-10T15:44:08Z</time>
</trkpt>
<trkpt lat="53.5869066" lon="17.8716029">
<ele>156</ele>
<time>2017-12-10T15:44:14Z</time>
</trkpt>
<trkpt lat="53.5869066" lon="17.8716029">
<ele>156</ele>
<time>2017-12-10T15:44:20Z</time>
</trkpt>
<trkpt lat="53.5869066" lon="17.8716029">
<ele>156</ele>
<time>2017-12-10T15:44:26Z</time>
</trkpt>
<trkpt lat="53.5869066" lon="17.8716029">
<ele>156</ele>
<time>2017-12-10T15:44:32Z</time>
</trkpt>
<trkpt lat="53.5869066" lon="17.8716029">
<ele>156</ele>
<time>2017-12-10T15:44:38Z</time>
</trkpt>
<trkpt lat="53.5869066" lon="17.8716029">
<ele>156</ele>
<time>2017-12-10T15:44:44Z</time>
</trkpt>
<trkpt lat="53.5869066" lon="17.8716029">
<ele>156</ele>
<time>2017-12-10T15:44:50Z</time>
</trkpt>
<trkpt lat="53.5869066" lon="17.8716029">
<ele>156</ele>
<time>2017-12-10T15:44:56Z</time>
</trkpt>
<trkpt lat="53.5869066" lon="17.8716029">
<ele>156</ele>
<time>2017-12-10T15:45:02Z</time>
</trkpt>
<trkpt lat="53.5869066" lon="17.8716029">
<ele>156</ele>
<time>2017-12-10T15:45:08Z</time>
</trkpt>
<trkpt lat="53.5869066" lon="17.8716029">
<ele>156</ele>
<time>2017-12-10T15:45:14Z</time>
</trkpt>
<trkpt lat="53.5869066" lon="17.8716029">
<ele>156</ele>
<time>2017-12-10T15:45:20Z</time>
</trkpt>
<trkpt lat="53.5869066" lon="17.8716029">
<ele>156</ele>
<time>2017-12-10T15:45:26Z</time>
</trkpt>
<trkpt lat="53.5869066" lon="17.8716029">
<ele>156</ele>
<time>2017-12-10T15:45:32Z</time>
</trkpt>
<trkpt lat="53.5869066" lon="17.8716029">
<ele>156</ele>
<time>2017-12-10T15:45:38Z</time>
</trkpt>
<trkpt lat="53.5869066" lon="17.8716029">
<ele>156</ele>
<time>2017-12-10T15:45:44Z</time>
</trkpt>
<trkpt lat="53.5869066" lon="17.8716029">
<ele>156</ele>
<time>2017-12-10T15:45:50Z</time>
</trkpt>
<trkpt lat="53.5869066" lon="17.8716029">
<ele>156</ele>
<time>2017-12-10T15:45:56Z</time>
</trkpt>
<trkpt lat="53.5869066" lon="17.8716029">
<ele>156</ele>
<time>2017-12-10T15:46:02Z</time>
</trkpt>
<trkpt lat="53.5869066" lon="17.8716029">
<ele>156</ele>
<time>2017-12-10T15:46:08Z</time>
</trkpt>
<trkpt lat="53.5869066" lon="17.8716029">
<ele>156</ele>
<time>2017-12-10T15:46:14Z</time>
</trkpt>
<trkpt lat="53.5869066" lon="17.8716029">
<ele>156</ele>
<time>2017-12-10T15:46:20Z</time>
</trkpt>
<trkpt lat="53.5869066" lon="17.8716029">
<ele>156</ele>
<time>2017-12-10T15:46:26Z</time>
</trkpt>
<trkpt lat="53.5869066" lon="17.8716029">
<ele>156</ele>
<time>2017-12-10T15:46:32Z</time>
</trkpt>
<trkpt lat="53.5869066" lon="17.8716029">
<ele>156</ele>
<time>2017-12-10T15:46:38Z</time>
</trkpt>
<trkpt lat="53.5869066" lon="17.8716029">
<ele>156</ele>
<time>2017-12-10T15:46:44Z</time>
</trkpt>
<trkpt lat="53.5869066" lon="17.8716029">
<ele>156</ele>
<time>2017-12-10T15:46:50Z</time>
</trkpt>
<trkpt lat="53.5869066" lon="17.8716029">
<ele>156</ele>
<time>2017-12-10T15:46:56Z</time>
</trkpt>
<trkpt lat="53.5869066" lon="17.8716029">
<ele>156</ele>
<time>2017-12-10T15:47:02Z</time>
</trkpt>
<trkpt lat="53.5869066" lon="17.8716029">
<ele>156</ele>
<time>2017-12-10T15:47:08Z</time>
</trkpt>
<trkpt lat="53.5869066" lon="17.8716029">
<ele>156</ele>
<time>2017-12-10T15:47:14Z</time>
</trkpt>
<trkpt lat="53.5869066" lon="17.8716029">
<ele>156</ele>
<time>2017-12-10T15:47:20Z</time>
</trkpt>
<trkpt lat="53.5869066" lon="17.8716029">
<ele>156</ele>
<time>2017-12-10T15:47:26Z</time>
</trkpt>
<trkpt lat="53.5869066" lon="17.8716029">
<ele>156</ele>
<time>2017-12-10T15:47:32Z</time>
</trkpt>
<trkpt lat="53.5869066" lon="17.8716029">
<ele>156</ele>
<time>2017-12-10T15:47:38Z</time>
</trkpt>
<trkpt lat="53.5869066" lon="17.8716029">
<ele>156</ele>
<time>2017-12-10T15:47:44Z</time>
</trkpt>
<trkpt lat="53.5869066" lon="17.8716029">
<ele>156</ele>
<time>2017-12-10T15:47:50Z</time>
</trkpt>
<trkpt lat="53.5869066" lon="17.8716029">
<ele>156</ele>
<time>2017-12-10T15:47:56Z</time>
</trkpt>
<trkpt lat="53.5869066" lon="17.8716029">
<ele>156</ele>
<time>2017-12-10T15:48:02Z</time>
</trkpt>
<trkpt lat="53.5869066" lon="17.8716029">
<ele>156</ele>
<time>2017-12-10T15:48:08Z</time>
</trkpt>
<trkpt lat="53.5869066" lon="17.8716029">
<ele>156</ele>
<time>2017-12-10T15:48:14Z</time>
</trkpt>
<trkpt lat="53.5869066" lon="17.8716029">
<ele>156</ele>
<time>2017-12-10T15:48:20Z</time>
</trkpt>
<trkpt lat="53.5869066" lon="17.8716029">
<ele>156</ele>
<time>2017-12-10T15:48:26Z</time>
</trkpt>
<trkpt lat="53.5869066" lon="17.8716029">
<ele>156</ele>
<time>2017-12-10T15:48:32Z</time>
</trkpt>
<trkpt lat="53.5869066" lon="17.8716029">
<ele>156</ele>
<time>2017-12-10T15:48:38Z</time>
</trkpt>
<trkpt lat="53.5869066" lon="17.8716029">
<ele>156</ele>
<time>2017-12-10T15:48:44Z</time>
</trkpt>
<trkpt lat="53.5869066" lon="17.8716029">
<ele>156</ele>
<time>2017-12-10T15:48:50Z</time>
</trkpt>
<trkpt lat="53.5869066" lon="17.8716029">
<ele>156</ele>
<time>2017-12-10T15:48:56Z</time>
</trkpt>
<trkpt lat="53.5869066" lon="17.8716029">
<ele>156</ele>
<time>2017-12-10T15:49:02Z</time>
</trkpt>
<trkpt lat="53.5869066" lon="17.8716029">
<ele>156</ele>
<time>2017-12-10T15:49:08Z</time>
</trkpt>
<trkpt lat="53.5869066" lon="17.8716029">
<ele>156</ele>
<time>2017-12-10T15:49:14Z</time>
</trkpt>
<trkpt lat="53.5869066" lon="17.8716029">
<ele>156</ele>
<time>2017-12-10T15:49:20Z</time>
</trkpt>
<trkpt lat="53.5869066" lon="17.8716029">
<ele>156</ele>
<time>2017-12-10T15:49:26Z</time>
</trkpt>
<trkpt lat="53.5869066" lon="17.8716029">
<ele>156</ele>
<time>2017-12-10T15:49:32Z</time>
</trkpt>
<trkpt lat="53.5869066" lon="17.8716029">
<ele>156</ele>
<time>2017-12-10T15:49:38Z</time>
</trkpt>
<trkpt lat="53.5869066" lon="17.8716029">
<ele>156</ele>
<time>2017-12-10T15:49:44Z</time>
</trkpt>
<trkpt lat="53.5869066" lon="17.8716029">
<ele>156</ele>
<time>2017-12-10T15:49:50Z</time>
</trkpt>
<trkpt lat="53.5869066" lon="17.8716029">
<ele>156</ele>
<time>2017-12-10T15:49:56Z</time>
</trkpt>
<trkpt lat="53.5869066" lon="17.8716029">
<ele>156</ele>
<time>2017-12-10T15:50:02Z</time>
</trkpt>
<trkpt lat="53.5869066" lon="17.8716029">
<ele>156</ele>
<time>2017-12-10T15:50:08Z</time>
</trkpt>
<trkpt lat="53.5869066" lon="17.8716029">
<ele>156</ele>
<time>2017-12-10T15:50:14Z</time>
</trkpt>
<trkpt lat="53.5869066" lon="17.8716029">
<ele>156</ele>
<time>2017-12-10T15:50:20Z</time>
</trkpt>
<trkpt lat="53.5869066" lon="17.8716029">
<ele>156</ele>
<time>2017-12-10T15:50:26Z</time>
</trkpt>
<trkpt lat="53.5869066" lon="17.8716029">
<ele>156</ele>
<time>2017-12-10T15:50:32Z</time>
</trkpt>
<trkpt lat="53.5869066" lon="17.8716029">
<ele>156</ele>
<time>2017-12-10T15:50:38Z</time>
</trkpt>
<trkpt lat="53.5869066" lon="17.8716029">
<ele>156</ele>
<time>2017-12-10T15:50:44Z</time>
</trkpt>
<trkpt lat="53.5869066" lon="17.8716029">
<ele>156</ele>
<time>2017-12-10T15:50:50Z</time>
</trkpt>
<trkpt lat="53.5869066" lon="17.8716029">
<ele>156</ele>
<time>2017-12-10T15:50:56Z</time>
</trkpt>
<trkpt lat="53.5869066" lon="17.8716029">
<ele>156</ele>
<time>2017-12-10T15:51:02Z</time>
</trkpt>
<trkpt lat="53.5869066" lon="17.8716029">
<ele>156</ele>
<time>2017-12-10T15:51:08Z</time>
</trkpt>
<trkpt lat="53.5869066" lon="17.8716029">
<ele>156</ele>
<time>2017-12-10T15:51:14Z</time>
</trkpt>
<trkpt lat="53.5869066" lon="17.8716029">
<ele>156</ele>
<time>2017-12-10T15:51:20Z</time>
</trkpt>
<trkpt lat="53.5869066" lon="17.8716029">
<ele>156</ele>
<time>2017-12-10T15:51:26Z</time>
</trkpt>
<trkpt lat="53.5869066" lon="17.8716029">
<ele>156</ele>
<time>2017-12-10T15:51:32Z</time>
</trkpt>
<trkpt lat="53.5869066" lon="17.8716029">
<ele>156</ele>
<time>2017-12-10T15:51:38Z</time>
</trkpt>
<trkpt lat="53.5869066" lon="17.8716029">
<ele>156</ele>
<time>2017-12-10T15:51:44Z</time>
</trkpt>
<trkpt lat="53.5869066" lon="17.8716029">
<ele>156</ele>
<time>2017-12-10T15:51:50Z</time>
</trkpt>
<trkpt lat="53.5869066" lon="17.8716029">
<ele>156</ele>
<time>2017-12-10T15:51:56Z</time>
</trkpt>
<trkpt lat="53.5869066" lon="17.8716029">
<ele>156</ele>
<time>2017-12-10T15:52:02Z</time>
</trkpt>
<trkpt lat="53.5869066" lon="17.8716029">
<ele>156</ele>
<time>2017-12-10T15:52:08Z</time>
</trkpt>
<trkpt lat="53.5869066" lon="17.8716029">
<ele>156</ele>
<time>2017-12-10T15:52:14Z</time>
</trkpt>
<trkpt lat="53.5869066" lon="17.8716029">
<ele>156</ele>
<time>2017-12-10T15:52:20Z</time>
</trkpt>
<trkpt lat="53.5869066" lon="17.8716029">
<ele>156</ele>
<time>2017-12-10T15:52:26Z</time>
</trkpt>
<trkpt lat="53.5869066" lon="17.8716029">
<ele>156</ele>
<time>2017-12-10T15:52:32Z</time>
</trkpt>
<trkpt lat="53.5869066" lon="17.8716029">
<ele>156</ele>
<time>2017-12-10T15:52:38Z</time>
</trkpt>
<trkpt lat="53.5869066" lon="17.8716029">
<ele>156</ele>
<time>2017-12-10T15:52:44Z</time>
</trkpt>
<trkpt lat="53.5869066" lon="17.8716029">
<ele>156</ele>
<time>2017-12-10T15:52:50Z</time>
</trkpt>
<trkpt lat="53.5869066" lon="17.8716029">
<ele>156</ele>
<time>2017-12-10T15:52:56Z</time>
</trkpt>
<trkpt lat="53.5869066" lon="17.8716029">
<ele>156</ele>
<time>2017-12-10T15:53:02Z</time>
</trkpt>
<trkpt lat="53.5869066" lon="17.8716029">
<ele>156</ele>
<time>2017-12-10T15:53:08Z</time>
</trkpt>
<trkpt lat="53.5869066" lon="17.8716029">
<ele>156</ele>
<time>2017-12-10T15:53:14Z</time>
</trkpt>
<trkpt lat="53.5869066" lon="17.8716029">
<ele>156</ele>
<time>2017-12-10T15:53:20Z</time>
</trkpt>
<trkpt lat="53.5869066" lon="17.8716029">
<ele>156</ele>
<time>2017-12-10T15:53:26Z</time>
</trkpt>
<trkpt lat="53.5869066" lon="17.8716029">
<ele>156</ele>
<time>2017-12-10T15:53:32Z</time>
</trkpt>
<trkpt lat="53.5869066" lon="17.8716029">
<ele>156</ele>
<time>2017-12-10T15:53:38Z</time>
</trkpt>
<trkpt lat="53.5869066" lon="17.8716029">
<ele>156</ele>
<time>2017-12-10T15:53:44Z</time>
</trkpt>
<trkpt lat="53.5869066" lon="17.8716029">
<ele>156</ele>
<time>2017-12-10T15:53:50Z</time>
</trkpt>
<trkpt lat="53.5869066" lon="17.8716029">
<ele>156</ele>
<time>2017-12-10T15:53:56Z</time>
</trkpt>
<trkpt lat="53.5869066" lon="17.8716029">
<ele>156</ele>
<time>2017-12-10T15:54:02Z</time>
</trkpt>
<trkpt lat="53.5869066" lon="17.8716029">
<ele>156</ele>
<time>2017-12-10T15:54:08Z</time>
</trkpt>
<trkpt lat="53.5869066" lon="17.8716029">
<ele>156</ele>
<time>2017-12-10T15:54:14Z</time>
</trkpt>
<trkpt lat="53.5869066" lon="17.8716029">
<ele>156</ele>
<time>2017-12-10T15:54:20Z</time>
</trkpt>
<trkpt lat="53.5869066" lon="17.8716029">
<ele>156</ele>
<time>2017-12-10T15:54:26Z</time>
</trkpt>
<trkpt lat="53.5869066" lon="17.8716029">
<ele>156</ele>
<time>2017-12-10T15:54:32Z</time>
</trkpt>
<trkpt lat="53.5869066" lon="17.8716029">
<ele>156</ele>
<time>2017-12-10T15:54:38Z</time>
</trkpt>
<trkpt lat="53.5869066" lon="17.8716029">
<ele>156</ele>
<time>2017-12-10T15:54:44Z</time>
</trkpt>
<trkpt lat="53.5869066" lon="17.8716029">
<ele>156</ele>
<time>2017-12-10T15:54:50Z</time>
</trkpt>
<trkpt lat="53.5869066" lon="17.8716029">
<ele>156</ele>
<time>2017-12-10T15:54:56Z</time>
</trkpt>
<trkpt lat="53.5869066" lon="17.8716029">
<ele>156</ele>
<time>2017-12-10T15:55:02Z</time>
</trkpt>
<trkpt lat="53.5869066" lon="17.8716029">
<ele>156</ele>
<time>2017-12-10T15:55:08Z</time>
</trkpt>
<trkpt lat="53.5869066" lon="17.8716029">
<ele>156</ele>
<time>2017-12-10T15:55:14Z</time>
</trkpt>
<trkpt lat="53.5869066" lon="17.8716029">
<ele>156</ele>
<time>2017-12-10T15:55:20Z</time>
</trkpt>
<trkpt lat="53.5869066" lon="17.8716029">
<ele>156</ele>
<time>2017-12-10T15:55:26Z</time>
</trkpt>
<trkpt lat="53.5869066" lon="17.8716029">
<ele>156</ele>
<time>2017-12-10T15:55:32Z</time>
</trkpt>
<trkpt lat="53.5869066" lon="17.8716029">
<ele>156</ele>
<time>2017-12-10T15:55:38Z</time>
</trkpt>
<trkpt lat="53.5869" lon="17.8716">
<ele>156</ele>
<time>2017-12-10T15:55:56Z</time>
</trkpt>
<trkpt lat="53.5869" lon="17.8716">
<ele>156</ele>
<time>2017-12-10T15:56:02Z</time>
</trkpt>
<trkpt lat="53.5869" lon="17.8716">
<ele>156</ele>
<time>2017-12-10T15:56:08Z</time>
</trkpt>
<trkpt lat="53.5869" lon="17.8716">
<ele>156</ele>
<time>2017-12-10T15:56:14Z</time>
</trkpt>
<trkpt lat="53.5869" lon="17.8716">
<ele>156</ele>
<time>2017-12-10T15:56:20Z</time>
</trkpt>
<trkpt lat="53.5869" lon="17.8716">
<ele>156</ele>
<time>2017-12-10T15:56:26Z</time>
</trkpt>
<trkpt lat="53.5869" lon="17.8716">
<ele>156</ele>
<time>2017-12-10T15:56:32Z</time>
</trkpt>
<trkpt lat="53.5869" lon="17.8716">
<ele>156</ele>
<time>2017-12-10T15:56:38Z</time>
</trkpt>
<trkpt lat="53.5869" lon="17.8716">
<ele>156</ele>
<time>2017-12-10T15:56:44Z</time>
</trkpt>
<trkpt lat="53.5869" lon="17.8716">
<ele>156</ele>
<time>2017-12-10T15:56:50Z</time>
</trkpt>
<trkpt lat="53.5869" lon="17.8716">
<ele>156</ele>
<time>2017-12-10T15:56:56Z</time>
</trkpt>
<trkpt lat="53.5869" lon="17.8716">
<ele>156</ele>
<time>2017-12-10T15:57:02Z</time>
</trkpt>
<trkpt lat="53.5869" lon="17.8716">
<ele>156</ele>
<time>2017-12-10T15:57:08Z</time>
</trkpt>
<trkpt lat="53.5869" lon="17.8716">
<ele>156</ele>
<time>2017-12-10T15:57:14Z</time>
</trkpt>
<trkpt lat="53.5869" lon="17.8716">
<ele>156</ele>
<time>2017-12-10T15:57:20Z</time>
</trkpt>
<trkpt lat="53.5869" lon="17.8716">
<ele>156</ele>
<time>2017-12-10T15:57:26Z</time>
</trkpt>
<trkpt lat="53.5869066" lon="17.8716029">
<ele>156</ele>
<time>2017-12-10T15:57:32Z</time>
</trkpt>
<trkpt lat="53.5869066" lon="17.8716029">
<ele>156</ele>
<time>2017-12-10T15:57:38Z</time>
</trkpt>
<trkpt lat="53.5869066" lon="17.8716029">
<ele>156</ele>
<time>2017-12-10T15:57:44Z</time>
</trkpt>
<trkpt lat="53.5869066" lon="17.8716029">
<ele>156</ele>
<time>2017-12-10T15:57:50Z</time>
</trkpt>
<trkpt lat="53.5869066" lon="17.8716029">
<ele>156</ele>
<time>2017-12-10T15:57:56Z</time>
</trkpt>
<trkpt lat="53.5869066" lon="17.8716029">
<ele>156</ele>
<time>2017-12-10T15:58:02Z</time>
</trkpt>
<trkpt lat="53.5869386" lon="17.8716502">
<ele>154</ele>
<time>2017-12-10T15:58:08Z</time>
</trkpt>
<trkpt lat="53.5869386" lon="17.8716502">
<ele>154</ele>
<time>2017-12-10T15:58:14Z</time>
</trkpt>
<trkpt lat="53.5869386" lon="17.8716502">
<ele>154</ele>
<time>2017-12-10T15:58:20Z</time>
</trkpt>
<trkpt lat="53.5869386" lon="17.8716502">
<ele>154</ele>
<time>2017-12-10T15:58:26Z</time>
</trkpt>
<trkpt lat="53.5869602" lon="17.8716591">
<ele>153</ele>
<time>2017-12-10T15:58:32Z</time>
</trkpt>
<trkpt lat="53.5869709" lon="17.8716674">
<ele>153</ele>
<time>2017-12-10T15:58:38Z</time>
</trkpt>
<trkpt lat="53.5870120" lon="17.8716654">
<ele>153</ele>
<time>2017-12-10T15:58:44Z</time>
</trkpt>
<trkpt lat="53.5870228" lon="17.8716683">
<ele>153</ele>
<time>2017-12-10T15:58:50Z</time>
</trkpt>
<trkpt lat="53.5870249" lon="17.8716726">
<ele>153</ele>
<time>2017-12-10T15:58:56Z</time>
</trkpt>
<trkpt lat="53.5869860" lon="17.8715704">
<ele>154</ele>
<time>2017-12-10T15:59:02Z</time>
</trkpt>
<trkpt lat="53.5869016" lon="17.8714859">
<ele>154</ele>
<time>2017-12-10T15:59:08Z</time>
</trkpt>
<trkpt lat="53.5867155" lon="17.8718252">
<ele>153</ele>
<time>2017-12-10T15:59:14Z</time>
</trkpt>
<trkpt lat="53.5864982" lon="17.8724499">
<ele>153</ele>
<time>2017-12-10T15:59:20Z</time>
</trkpt>
<trkpt lat="53.5862542" lon="17.8731919">
<ele>152</ele>
<time>2017-12-10T15:59:26Z</time>
</trkpt>
<trkpt lat="53.5859739" lon="17.8739919">
<ele>153</ele>
<time>2017-12-10T15:59:32Z</time>
</trkpt>
<trkpt lat="53.5857174" lon="17.8748654">
<ele>152</ele>
<time>2017-12-10T15:59:38Z</time>
</trkpt>
<trkpt lat="53.5854461" lon="17.8755938">
<ele>152</ele>
<time>2017-12-10T15:59:44Z</time>
</trkpt>
<trkpt lat="53.5851222" lon="17.8759837">
<ele>152</ele>
<time>2017-12-10T15:59:50Z</time>
</trkpt>
<trkpt lat="53.5847715" lon="17.8755641">
<ele>153</ele>
<time>2017-12-10T15:59:56Z</time>
</trkpt>
<trkpt lat="53.5844848" lon="17.8751507">
<ele>156</ele>
<time>2017-12-10T16:00:02Z</time>
</trkpt>
<trkpt lat="53.5841636" lon="17.8747175">
<ele>155</ele>
<time>2017-12-10T16:00:08Z</time>
</trkpt>
<trkpt lat="53.5838225" lon="17.8742993">
<ele>154</ele>
<time>2017-12-10T16:00:14Z</time>
</trkpt>
<trkpt lat="53.5834695" lon="17.8738607">
<ele>153</ele>
<time>2017-12-10T16:00:20Z</time>
</trkpt>
<trkpt lat="53.5830966" lon="17.8733797">
<ele>151</ele>
<time>2017-12-10T16:00:26Z</time>
</trkpt>
<trkpt lat="53.5827212" lon="17.8729093">
<ele>150</ele>
<time>2017-12-10T16:00:32Z</time>
</trkpt>
<trkpt lat="53.5823260" lon="17.8724073">
<ele>149</ele>
<time>2017-12-10T16:00:38Z</time>
</trkpt>
<trkpt lat="53.5819173" lon="17.8718813">
<ele>149</ele>
<time>2017-12-10T16:00:44Z</time>
</trkpt>
<trkpt lat="53.5816014" lon="17.8714644">
<ele>149</ele>
<time>2017-12-10T16:00:50Z</time>
</trkpt>
<trkpt lat="53.5814336" lon="17.8711505">
<ele>149</ele>
<time>2017-12-10T16:00:56Z</time>
</trkpt>
<trkpt lat="53.5812678" lon="17.8712239">
<ele>149</ele>
<time>2017-12-10T16:01:02Z</time>
</trkpt>
<trkpt lat="53.5810668" lon="17.8716709">
<ele>150</ele>
<time>2017-12-10T16:01:08Z</time>
</trkpt>
<trkpt lat="53.5808648" lon="17.8721296">
<ele>150</ele>
<time>2017-12-10T16:01:14Z</time>
</trkpt>
<trkpt lat="53.5805918" lon="17.8726533">
<ele>150</ele>
<time>2017-12-10T16:01:20Z</time>
</trkpt>
<trkpt lat="53.5803145" lon="17.8731794">
<ele>149</ele>
<time>2017-12-10T16:01:26Z</time>
</trkpt>
<trkpt lat="53.5800346" lon="17.8738200">
<ele>148</ele>
<time>2017-12-10T16:01:32Z</time>
</trkpt>
<trkpt lat="53.5797410" lon="17.8745458">
<ele>149</ele>
<time>2017-12-10T16:01:38Z</time>
</trkpt>
<trkpt lat="53.5794170" lon="17.8753341">
<ele>149</ele>
<time>2017-12-10T16:01:44Z</time>
</trkpt>
<trkpt lat="53.5790574" lon="17.8761624">
<ele>148</ele>
<time>2017-12-10T16:01:50Z</time>
</trkpt>
<trkpt lat="53.5786917" lon="17.8769972">
<ele>147</ele>
<time>2017-12-10T16:01:56Z</time>
</trkpt>
<trkpt lat="53.5782738" lon="17.8777257">
<ele>147</ele>
<time>2017-12-10T16:02:02Z</time>
</trkpt>
<trkpt lat="53.5777720" lon="17.8784292">
<ele>146</ele>
<time>2017-12-10T16:02:08Z</time>
</trkpt>
<trkpt lat="53.5772149" lon="17.8792367">
<ele>145</ele>
<time>2017-12-10T16:02:14Z</time>
</trkpt>
<trkpt lat="53.5765946" lon="17.8801395">
<ele>145</ele>
<time>2017-12-10T16:02:20Z</time>
</trkpt>
<trkpt lat="53.5759330" lon="17.8811024">
<ele>146</ele>
<time>2017-12-10T16:02:26Z</time>
</trkpt>
<trkpt lat="53.5752651" lon="17.8820809">
<ele>145</ele>
<time>2017-12-10T16:02:32Z</time>
</trkpt>
<trkpt lat="53.5745966" lon="17.8830736">
<ele>146</ele>
<time>2017-12-10T16:02:38Z</time>
</trkpt>
<trkpt lat="53.5739171" lon="17.8840812">
<ele>146</ele>
<time>2017-12-10T16:02:44Z</time>
</trkpt>
<trkpt lat="53.5732260" lon="17.8851026">
<ele>145</ele>
<time>2017-12-10T16:02:50Z</time>
</trkpt>
<trkpt lat="53.5725224" lon="17.8861188">
<ele>144</ele>
<time>2017-12-10T16:02:56Z</time>
</trkpt>
<trkpt lat="53.5718124" lon="17.8871669">
<ele>143</ele>
<time>2017-12-10T16:03:02Z</time>
</trkpt>
<trkpt lat="53.5711564" lon="17.8881370">
<ele>144</ele>
<time>2017-12-10T16:03:08Z</time>
</trkpt>
<trkpt lat="53.5705534" lon="17.8890176">
<ele>142</ele>
<time>2017-12-10T16:03:14Z</time>
</trkpt>
<trkpt lat="53.5700110" lon="17.8898444">
<ele>142</ele>
<time>2017-12-10T16:03:20Z</time>
</trkpt>
<trkpt lat="53.5694948" lon="17.8906052">
<ele>142</ele>
<time>2017-12-10T16:03:26Z</time>
</trkpt>
<trkpt lat="53.5689980" lon="17.8913669">
<ele>142</ele>
<time>2017-12-10T16:03:32Z</time>
</trkpt>
<trkpt lat="53.5684939" lon="17.8921225">
<ele>142</ele>
<time>2017-12-10T16:03:38Z</time>
</trkpt>
<trkpt lat="53.5679649" lon="17.8928916">
<ele>142</ele>
<time>2017-12-10T16:03:44Z</time>
</trkpt>
<trkpt lat="53.5674071" lon="17.8937078">
<ele>141</ele>
<time>2017-12-10T16:03:50Z</time>
</trkpt>
<trkpt lat="53.5668146" lon="17.8945883">
<ele>138</ele>
<time>2017-12-10T16:03:56Z</time>
</trkpt>
<trkpt lat="53.5662106" lon="17.8954829">
<ele>136</ele>
<time>2017-12-10T16:04:02Z</time>
</trkpt>
<trkpt lat="53.5656476" lon="17.8963384">
<ele>135</ele>
<time>2017-12-10T16:04:08Z</time>
</trkpt>
<trkpt lat="53.5650793" lon="17.8971626">
<ele>134</ele>
<time>2017-12-10T16:04:14Z</time>
</trkpt>
<trkpt lat="53.5645287" lon="17.8979592">
<ele>132</ele>
<time>2017-12-10T16:04:20Z</time>
</trkpt>
<trkpt lat="53.5640028" lon="17.8987983">
<ele>131</ele>
<time>2017-12-10T16:04:26Z</time>
</trkpt>
<trkpt lat="53.5636266" lon="17.8997819">
<ele>130</ele>
<time>2017-12-10T16:04:32Z</time>
</trkpt>
<trkpt lat="53.5632214" lon="17.9006816">
<ele>131</ele>
<time>2017-12-10T16:04:38Z</time>
</trkpt>
<trkpt lat="53.5625343" lon="17.9008983">
<ele>131</ele>
<time>2017-12-10T16:04:44Z</time>
</trkpt>
<trkpt lat="53.5603" lon="17.9015">
<ele>134</ele>
<time>2017-12-10T16:05:02Z</time>
</trkpt>
<trkpt lat="53.5595" lon="17.9017">
<ele>137</ele>
<time>2017-12-10T16:05:08Z</time>
</trkpt>
<trkpt lat="53.5586" lon="17.9015">
<ele>140</ele>
<time>2017-12-10T16:05:14Z</time>
</trkpt>
<trkpt lat="53.5578" lon="17.9014">
<ele>141</ele>
<time>2017-12-10T16:05:20Z</time>
</trkpt>
<trkpt lat="53.5568" lon="17.9012">
<ele>141</ele>
<time>2017-12-10T16:05:26Z</time>
</trkpt>
<trkpt lat="53.5559" lon="17.9011">
<ele>140</ele>
<time>2017-12-10T16:05:32Z</time>
</trkpt>
<trkpt lat="53.5549622" lon="17.9013295">
<ele>140</ele>
<time>2017-12-10T16:05:38Z</time>
</trkpt>
<trkpt lat="53.5544064" lon="17.9026444">
<ele>136</ele>
<time>2017-12-10T16:05:44Z</time>
</trkpt>
<trkpt lat="53.5542630" lon="17.9043859">
<ele>138</ele>
<time>2017-12-10T16:05:50Z</time>
</trkpt>
<trkpt lat="53.5544241" lon="17.9060199">
<ele>141</ele>
<time>2017-12-10T16:05:56Z</time>
</trkpt>
<trkpt lat="53.5544632" lon="17.9075944">
<ele>143</ele>
<time>2017-12-10T16:06:02Z</time>
</trkpt>
<trkpt lat="53.5542016" lon="17.9090433">
<ele>143</ele>
<time>2017-12-10T16:06:08Z</time>
</trkpt>
<trkpt lat="53.5539103" lon="17.9105061">
<ele>145</ele>
<time>2017-12-10T16:06:14Z</time>
</trkpt>
<trkpt lat="53.5536152" lon="17.9120198">
<ele>145</ele>
<time>2017-12-10T16:06:20Z</time>
</trkpt>
<trkpt lat="53.5533321" lon="17.9135866">
<ele>143</ele>
<time>2017-12-10T16:06:26Z</time>
</trkpt>
<trkpt lat="53.5530404" lon="17.9152102">
<ele>142</ele>
<time>2017-12-10T16:06:32Z</time>
</trkpt>
<trkpt lat="53.5527356" lon="17.9168664">
<ele>140</ele>
<time>2017-12-10T16:06:38Z</time>
</trkpt>
<trkpt lat="53.5524046" lon="17.9185015">
<ele>141</ele>
<time>2017-12-10T16:06:44Z</time>
</trkpt>
<trkpt lat="53.5520887" lon="17.9200000">
<ele>142</ele>
<time>2017-12-10T16:06:50Z</time>
</trkpt>
<trkpt lat="53.5518144" lon="17.9212607">
<ele>143</ele>
<time>2017-12-10T16:06:56Z</time>
</trkpt>
<trkpt lat="53.5516059" lon="17.9221222">
<ele>144</ele>
<time>2017-12-10T16:07:02Z</time>
</trkpt>
<trkpt lat="53.5514471" lon="17.9228597">
<ele>143</ele>
<time>2017-12-10T16:07:08Z</time>
</trkpt>
<trkpt lat="53.5511943" lon="17.9236013">
<ele>140</ele>
<time>2017-12-10T16:07:14Z</time>
</trkpt>
<trkpt lat="53.5507381" lon="17.9243851">
<ele>138</ele>
<time>2017-12-10T16:07:20Z</time>
</trkpt>
<trkpt lat="53.5500969" lon="17.9251834">
<ele>135</ele>
<time>2017-12-10T16:07:26Z</time>
</trkpt>
<trkpt lat="53.5493224" lon="17.9260602">
<ele>135</ele>
<time>2017-12-10T16:07:32Z</time>
</trkpt>
<trkpt lat="53.5485914" lon="17.9268744">
<ele>139</ele>
<time>2017-12-10T16:07:38Z</time>
</trkpt>
<trkpt lat="53.5479177" lon="17.9276479">
<ele>141</ele>
<time>2017-12-10T16:07:44Z</time>
</trkpt>
<trkpt lat="53.5472878" lon="17.9283756">
<ele>142</ele>
<time>2017-12-10T16:07:50Z</time>
</trkpt>
<trkpt lat="53.5466302" lon="17.9291414">
<ele>142</ele>
<time>2017-12-10T16:07:56Z</time>
</trkpt>
<trkpt lat="53.5459089" lon="17.9299503">
<ele>142</ele>
<time>2017-12-10T16:08:02Z</time>
</trkpt>
<trkpt lat="53.5451452" lon="17.9308106">
<ele>142</ele>
<time>2017-12-10T16:08:08Z</time>
</trkpt>
<trkpt lat="53.5443350" lon="17.9317238">
<ele>144</ele>
<time>2017-12-10T16:08:14Z</time>
</trkpt>
<trkpt lat="53.5434942" lon="17.9326602">
<ele>145</ele>
<time>2017-12-10T16:08:20Z</time>
</trkpt>
<trkpt lat="53.5426910" lon="17.9335951">
<ele>146</ele>
<time>2017-12-10T16:08:26Z</time>
</trkpt>
<trkpt lat="53.5419200" lon="17.9345258">
<ele>145</ele>
<time>2017-12-10T16:08:32Z</time>
</trkpt>
<trkpt lat="53.5411268" lon="17.9354806">
<ele>144</ele>
<time>2017-12-10T16:08:38Z</time>
</trkpt>
<trkpt lat="53.5403166" lon="17.9364471">
<ele>144</ele>
<time>2017-12-10T16:08:44Z</time>
</trkpt>
<trkpt lat="53.5395021" lon="17.9374099">
<ele>144</ele>
<time>2017-12-10T16:08:50Z</time>
</trkpt>
<trkpt lat="53.5387107" lon="17.9383381">
<ele>143</ele>
<time>2017-12-10T16:08:56Z</time>
</trkpt>
<trkpt lat="53.5380019" lon="17.9391934">
<ele>144</ele>
<time>2017-12-10T16:09:02Z</time>
</trkpt>
<trkpt lat="53.5374307" lon="17.9398684">
<ele>144</ele>
<time>2017-12-10T16:09:08Z</time>
</trkpt>
<trkpt lat="53.5368534" lon="17.9405483">
<ele>143</ele>
<time>2017-12-10T16:09:14Z</time>
</trkpt>
<trkpt lat="53.5362388" lon="17.9412631">
<ele>142</ele>
<time>2017-12-10T16:09:20Z</time>
</trkpt>
<trkpt lat="53.5356380" lon="17.9419973">
<ele>141</ele>
<time>2017-12-10T16:09:26Z</time>
</trkpt>
<trkpt lat="53.5349569" lon="17.9425281">
<ele>139</ele>
<time>2017-12-10T16:09:32Z</time>
</trkpt>
<trkpt lat="53.5342024" lon="17.9428674">
<ele>136</ele>
<time>2017-12-10T16:09:38Z</time>
</trkpt>
<trkpt lat="53.5335750" lon="17.9436219">
<ele>135</ele>
<time>2017-12-10T16:09:44Z</time>
</trkpt>
<trkpt lat="53.5329458" lon="17.9441584">
<ele>135</ele>
<time>2017-12-10T16:09:50Z</time>
</trkpt>
<trkpt lat="53.5323323" lon="17.9444892">
<ele>135</ele>
<time>2017-12-10T16:09:56Z</time>
</trkpt>
<trkpt lat="53.5317123" lon="17.9447277">
<ele>134</ele>
<time>2017-12-10T16:10:02Z</time>
</trkpt>
<trkpt lat="53.5310770" lon="17.9450043">
<ele>134</ele>
<time>2017-12-10T16:10:08Z</time>
</trkpt>
<trkpt lat="53.5305001" lon="17.9455456">
<ele>133</ele>
<time>2017-12-10T16:10:14Z</time>
</trkpt>
<trkpt lat="53.5299076" lon="17.9461001">
<ele>133</ele>
<time>2017-12-10T16:10:20Z</time>
</trkpt>
<trkpt lat="53.5292580" lon="17.9464979">
<ele>135</ele>
<time>2017-12-10T16:10:26Z</time>
</trkpt>
<trkpt lat="53.5285909" lon="17.9468784">
<ele>135</ele>
<time>2017-12-10T16:10:32Z</time>
</trkpt>
<trkpt lat="53.5279131" lon="17.9472579">
<ele>135</ele>
<time>2017-12-10T16:10:38Z</time>
</trkpt>
<trkpt lat="53.5272118" lon="17.9476574">
<ele>134</ele>
<time>2017-12-10T16:10:44Z</time>
</trkpt>
<trkpt lat="53.5264577" lon="17.9480844">
<ele>133</ele>
<time>2017-12-10T16:10:50Z</time>
</trkpt>
<trkpt lat="53.5257239" lon="17.9485093">
<ele>133</ele>
<time>2017-12-10T16:10:56Z</time>
</trkpt>
<trkpt lat="53.5249946" lon="17.9489311">
<ele>133</ele>
<time>2017-12-10T16:11:02Z</time>
</trkpt>
<trkpt lat="53.5242674" lon="17.9493506">
<ele>133</ele>
<time>2017-12-10T16:11:08Z</time>
</trkpt>
<trkpt lat="53.5235723" lon="17.9497656">
<ele>133</ele>
<time>2017-12-10T16:11:14Z</time>
</trkpt>
<trkpt lat="53.5228779" lon="17.9501605">
<ele>134</ele>
<time>2017-12-10T16:11:20Z</time>
</trkpt>
<trkpt lat="53.5222005" lon="17.9505545">
<ele>134</ele>
<time>2017-12-10T16:11:26Z</time>
</trkpt>
<trkpt lat="53.5215149" lon="17.9509098">
<ele>135</ele>
<time>2017-12-10T16:11:32Z</time>
</trkpt>
<trkpt lat="53.5208317" lon="17.9512767">
<ele>136</ele>
<time>2017-12-10T16:11:38Z</time>
</trkpt>
<trkpt lat="53.5201738" lon="17.9516463">
<ele>137</ele>
<time>2017-12-10T16:11:44Z</time>
</trkpt>
<trkpt lat="53.5195223" lon="17.9520346">
<ele>136</ele>
<time>2017-12-10T16:11:50Z</time>
</trkpt>
<trkpt lat="53.5188391" lon="17.9524394">
<ele>135</ele>
<time>2017-12-10T16:11:56Z</time>
</trkpt>
<trkpt lat="53.5182007" lon="17.9529318">
<ele>134</ele>
<time>2017-12-10T16:12:02Z</time>
</trkpt>
<trkpt lat="53.5176774" lon="17.9535610">
<ele>134</ele>
<time>2017-12-10T16:12:08Z</time>
</trkpt>
<trkpt lat="53.5172251" lon="17.9543274">
<ele>134</ele>
<time>2017-12-10T16:12:14Z</time>
</trkpt>
<trkpt lat="53.5168390" lon="17.9553474">
<ele>135</ele>
<time>2017-12-10T16:12:20Z</time>
</trkpt>
<trkpt lat="53.5165432" lon="17.9566064">
<ele>136</ele>
<time>2017-12-10T16:12:26Z</time>
</trkpt>
<trkpt lat="53.5162872" lon="17.9578835">
<ele>138</ele>
<time>2017-12-10T16:12:32Z</time>
</trkpt>
<trkpt lat="53.5160762" lon="17.9590002">
<ele>140</ele>
<time>2017-12-10T16:12:38Z</time>
</trkpt>
<trkpt lat="53.5158789" lon="17.9601238">
<ele>139</ele>
<time>2017-12-10T16:12:44Z</time>
</trkpt>
<trkpt lat="53.5156309" lon="17.9614656">
<ele>139</ele>
<time>2017-12-10T16:12:50Z</time>
</trkpt>
<trkpt lat="53.5153737" lon="17.9628692">
<ele>140</ele>
<time>2017-12-10T16:12:56Z</time>
</trkpt>
<trkpt lat="53.5151177" lon="17.9642274">
<ele>140</ele>
<time>2017-12-10T16:13:02Z</time>
</trkpt>
<trkpt lat="53.5149253" lon="17.9651942">
<ele>140</ele>
<time>2017-12-10T16:13:08Z</time>
</trkpt>
<trkpt lat="53.5147118" lon="17.9663087">
<ele>140</ele>
<time>2017-12-10T16:13:14Z</time>
</trkpt>
<trkpt lat="53.5144234" lon="17.9674755">
<ele>141</ele>
<time>2017-12-10T16:13:20Z</time>
</trkpt>
<trkpt lat="53.5139460" lon="17.9685126">
<ele>141</ele>
<time>2017-12-10T16:13:26Z</time>
</trkpt>
<trkpt lat="53.5134451" lon="17.9695015">
<ele>140</ele>
<time>2017-12-10T16:13:32Z</time>
</trkpt>
<trkpt lat="53.5129907" lon="17.9704609">
<ele>139</ele>
<time>2017-12-10T16:13:38Z</time>
</trkpt>
<trkpt lat="53.5125565" lon="17.9714211">
<ele>139</ele>
<time>2017-12-10T16:13:44Z</time>
</trkpt>
<trkpt lat="53.5121094" lon="17.9723926">
<ele>139</ele>
<time>2017-12-10T16:13:50Z</time>
</trkpt>
<trkpt lat="53.5116691" lon="17.9733375">
<ele>139</ele>
<time>2017-12-10T16:13:56Z</time>
</trkpt>
<trkpt lat="53.5112379" lon="17.9742169">
<ele>138</ele>
<time>2017-12-10T16:14:02Z</time>
</trkpt>
<trkpt lat="53.5107189" lon="17.9748200">
<ele>139</ele>
<time>2017-12-10T16:14:08Z</time>
</trkpt>
<trkpt lat="53.5101505" lon="17.9751887">
<ele>139</ele>
<time>2017-12-10T16:14:14Z</time>
</trkpt>
<trkpt lat="53.5095781" lon="17.9755818">
<ele>138</ele>
<time>2017-12-10T16:14:20Z</time>
</trkpt>
<trkpt lat="53.5089827" lon="17.9759895">
<ele>137</ele>
<time>2017-12-10T16:14:26Z</time>
</trkpt>
<trkpt lat="53.5083551" lon="17.9764074">
<ele>136</ele>
<time>2017-12-10T16:14:32Z</time>
</trkpt>
<trkpt lat="53.5077143" lon="17.9769672">
<ele>135</ele>
<time>2017-12-10T16:14:38Z</time>
</trkpt>
<trkpt lat="53.5072390" lon="17.9779764">
<ele>135</ele>
<time>2017-12-10T16:14:44Z</time>
</trkpt>
<trkpt lat="53.5069911" lon="17.9791251">
<ele>136</ele>
<time>2017-12-10T16:14:50Z</time>
</trkpt>
<trkpt lat="53.5067520" lon="17.9802676">
<ele>137</ele>
<time>2017-12-10T16:14:56Z</time>
</trkpt>
<trkpt lat="53.5064664" lon="17.9814858">
<ele>137</ele>
<time>2017-12-10T16:15:02Z</time>
</trkpt>
<trkpt lat="53.5061810" lon="17.9827093">
<ele>137</ele>
<time>2017-12-10T16:15:08Z</time>
</trkpt>
<trkpt lat="53.5058909" lon="17.9839788">
<ele>137</ele>
<time>2017-12-10T16:15:14Z</time>
</trkpt>
<trkpt lat="53.5056011" lon="17.9852068">
<ele>136</ele>
<time>2017-12-10T16:15:20Z</time>
</trkpt>
<trkpt lat="53.5054988" lon="17.9864248">
<ele>136</ele>
<time>2017-12-10T16:15:26Z</time>
</trkpt>
<trkpt lat="53.5057941" lon="17.9875600">
<ele>136</ele>
<time>2017-12-10T16:15:32Z</time>
</trkpt>
<trkpt lat="53.5061604" lon="17.9885065">
<ele>135</ele>
<time>2017-12-10T16:15:38Z</time>
</trkpt>
<trkpt lat="53.5066460" lon="17.9892257">
<ele>134</ele>
<time>2017-12-10T16:15:44Z</time>
</trkpt>
<trkpt lat="53.5070724" lon="17.9898412">
<ele>135</ele>
<time>2017-12-10T16:15:50Z</time>
</trkpt>
<trkpt lat="53.5072709" lon="17.9906750">
<ele>136</ele>
<time>2017-12-10T16:15:56Z</time>
</trkpt>
<trkpt lat="53.5072633" lon="17.9916068">
<ele>137</ele>
<time>2017-12-10T16:16:02Z</time>
</trkpt>
<trkpt lat="53.5072863" lon="17.9925905">
<ele>138</ele>
<time>2017-12-10T16:16:08Z</time>
</trkpt>
<trkpt lat="53.5073014" lon="17.9936040">
<ele>138</ele>
<time>2017-12-10T16:16:14Z</time>
</trkpt>
<trkpt lat="53.5071214" lon="17.9944794">
<ele>139</ele>
<time>2017-12-10T16:16:20Z</time>
</trkpt>
<trkpt lat="53.5068521" lon="17.9952681">
<ele>140</ele>
<time>2017-12-10T16:16:26Z</time>
</trkpt>
<trkpt lat="53.5065908" lon="17.9961067">
<ele>141</ele>
<time>2017-12-10T16:16:32Z</time>
</trkpt>
<trkpt lat="53.5063235" lon="17.9969222">
<ele>141</ele>
<time>2017-12-10T16:16:38Z</time>
</trkpt>
<trkpt lat="53.5061347" lon="17.9977577">
<ele>141</ele>
<time>2017-12-10T16:16:44Z</time>
</trkpt>
<trkpt lat="53.5061376" lon="17.9986941">
<ele>141</ele>
<time>2017-12-10T16:16:50Z</time>
</trkpt>
<trkpt lat="53.5060071" lon="17.9996381">
<ele>140</ele>
<time>2017-12-10T16:16:56Z</time>
</trkpt>
<trkpt lat="53.5058258" lon="18.0006174">
<ele>140</ele>
<time>2017-12-10T16:17:02Z</time>
</trkpt>
<trkpt lat="53.5056502" lon="18.0016178">
<ele>139</ele>
<time>2017-12-10T16:17:08Z</time>
</trkpt>
<trkpt lat="53.5054815" lon="18.0025934">
<ele>139</ele>
<time>2017-12-10T16:17:14Z</time>
</trkpt>
<trkpt lat="53.5053518" lon="18.0033879">
<ele>138</ele>
<time>2017-12-10T16:17:20Z</time>
</trkpt>
<trkpt lat="53.5052291" lon="18.0041315">
<ele>139</ele>
<time>2017-12-10T16:17:26Z</time>
</trkpt>
<trkpt lat="53.5050815" lon="18.0050761">
<ele>141</ele>
<time>2017-12-10T16:17:32Z</time>
</trkpt>
<trkpt lat="53.5049160" lon="18.0061827">
<ele>141</ele>
<time>2017-12-10T16:17:38Z</time>
</trkpt>
<trkpt lat="53.5046960" lon="18.0072633">
<ele>142</ele>
<time>2017-12-10T16:17:44Z</time>
</trkpt>
<trkpt lat="53.5044943" lon="18.0083893">
<ele>143</ele>
<time>2017-12-10T16:17:50Z</time>
</trkpt>
<trkpt lat="53.5042989" lon="18.0094826">
<ele>143</ele>
<time>2017-12-10T16:17:56Z</time>
</trkpt>
<trkpt lat="53.5040883" lon="18.0106298">
<ele>143</ele>
<time>2017-12-10T16:18:02Z</time>
</trkpt>
<trkpt lat="53.5038830" lon="18.0117538">
<ele>143</ele>
<time>2017-12-10T16:18:08Z</time>
</trkpt>
<trkpt lat="53.5036447" lon="18.0130937">
<ele>142</ele>
<time>2017-12-10T16:18:14Z</time>
</trkpt>
<trkpt lat="53.5033471" lon="18.0147069">
<ele>141</ele>
<time>2017-12-10T16:18:20Z</time>
</trkpt>
<trkpt lat="53.5030406" lon="18.0163256">
<ele>141</ele>
<time>2017-12-10T16:18:26Z</time>
</trkpt>
<trkpt lat="53.5027388" lon="18.0179580">
<ele>141</ele>
<time>2017-12-10T16:18:32Z</time>
</trkpt>
<trkpt lat="53.5024191" lon="18.0196808">
<ele>141</ele>
<time>2017-12-10T16:18:38Z</time>
</trkpt>
<trkpt lat="53.5021124" lon="18.0213138">
<ele>140</ele>
<time>2017-12-10T16:18:44Z</time>
</trkpt>
<trkpt lat="53.5018270" lon="18.0228396">
<ele>140</ele>
<time>2017-12-10T16:18:50Z</time>
</trkpt>
<trkpt lat="53.5015470" lon="18.0243709">
<ele>139</ele>
<time>2017-12-10T16:18:56Z</time>
</trkpt>
<trkpt lat="53.5012623" lon="18.0259166">
<ele>137</ele>
<time>2017-12-10T16:19:02Z</time>
</trkpt>
<trkpt lat="53.5010568" lon="18.0270220">
<ele>135</ele>
<time>2017-12-10T16:19:08Z</time>
</trkpt>
<trkpt lat="53.5008106" lon="18.0283277">
<ele>136</ele>
<time>2017-12-10T16:19:14Z</time>
</trkpt>
<trkpt lat="53.5005472" lon="18.0297507">
<ele>136</ele>
<time>2017-12-10T16:19:20Z</time>
</trkpt>
<trkpt lat="53.5002617" lon="18.0312703">
<ele>135</ele>
<time>2017-12-10T16:19:26Z</time>
</trkpt>
<trkpt lat="53.4999368" lon="18.0330758">
<ele>137</ele>
<time>2017-12-10T16:19:32Z</time>
</trkpt>
<trkpt lat="53.4995292" lon="18.0350843">
<ele>138</ele>
<time>2017-12-10T16:19:38Z</time>
</trkpt>
<trkpt lat="53.4991759" lon="18.0370882">
<ele>137</ele>
<time>2017-12-10T16:19:44Z</time>
</trkpt>
<trkpt lat="53.4987881" lon="18.0391753">
<ele>137</ele>
<time>2017-12-10T16:19:50Z</time>
</trkpt>
<trkpt lat="53.4983983" lon="18.0412548">
<ele>138</ele>
<time>2017-12-10T16:19:56Z</time>
</trkpt>
<trkpt lat="53.4980258" lon="18.0432938">
<ele>138</ele>
<time>2017-12-10T16:20:02Z</time>
</trkpt>
<trkpt lat="53.4976493" lon="18.0453225">
<ele>137</ele>
<time>2017-12-10T16:20:08Z</time>
</trkpt>
<trkpt lat="53.4972869" lon="18.0473316">
<ele>138</ele>
<time>2017-12-10T16:20:14Z</time>
</trkpt>
<trkpt lat="53.4969436" lon="18.0492631">
<ele>139</ele>
<time>2017-12-10T16:20:20Z</time>
</trkpt>
<trkpt lat="53.4966916" lon="18.0511847">
<ele>141</ele>
<time>2017-12-10T16:20:26Z</time>
</trkpt>
<trkpt lat="53.4965275" lon="18.0531724">
<ele>142</ele>
<time>2017-12-10T16:20:32Z</time>
</trkpt>
<trkpt lat="53.4964405" lon="18.0552148">
<ele>142</ele>
<time>2017-12-10T16:20:38Z</time>
</trkpt>
<trkpt lat="53.4963564" lon="18.0572845">
<ele>140</ele>
<time>2017-12-10T16:20:44Z</time>
</trkpt>
<trkpt lat="53.4962639" lon="18.0593874">
<ele>139</ele>
<time>2017-12-10T16:20:50Z</time>
</trkpt>
<trkpt lat="53.4961701" lon="18.0615070">
<ele>138</ele>
<time>2017-12-10T16:20:56Z</time>
</trkpt>
<trkpt lat="53.4960690" lon="18.0635421">
<ele>138</ele>
<time>2017-12-10T16:21:02Z</time>
</trkpt>
<trkpt lat="53.4958623" lon="18.0654862">
<ele>139</ele>
<time>2017-12-10T16:21:08Z</time>
</trkpt>
<trkpt lat="53.4956508" lon="18.0674109">
<ele>140</ele>
<time>2017-12-10T16:21:14Z</time>
</trkpt>
<trkpt lat="53.4954557" lon="18.0693689">
<ele>140</ele>
<time>2017-12-10T16:21:20Z</time>
</trkpt>
<trkpt lat="53.4952471" lon="18.0713571">
<ele>142</ele>
<time>2017-12-10T16:21:26Z</time>
</trkpt>
<trkpt lat="53.4950395" lon="18.0733622">
<ele>143</ele>
<time>2017-12-10T16:21:32Z</time>
</trkpt>
<trkpt lat="53.4948330" lon="18.0754088">
<ele>142</ele>
<time>2017-12-10T16:21:38Z</time>
</trkpt>
<trkpt lat="53.4946210" lon="18.0774736">
<ele>143</ele>
<time>2017-12-10T16:21:44Z</time>
</trkpt>
<trkpt lat="53.4944148" lon="18.0795184">
<ele>144</ele>
<time>2017-12-10T16:21:50Z</time>
</trkpt>
<trkpt lat="53.4941850" lon="18.0814514">
<ele>144</ele>
<time>2017-12-10T16:21:56Z</time>
</trkpt>
<trkpt lat="53.4937072" lon="18.0832923">
<ele>144</ele>
<time>2017-12-10T16:22:02Z</time>
</trkpt>
<trkpt lat="53.4931726" lon="18.0851564">
<ele>143</ele>
<time>2017-12-10T16:22:08Z</time>
</trkpt>
<trkpt lat="53.4927030" lon="18.0870169">
<ele>141</ele>
<time>2017-12-10T16:22:14Z</time>
</trkpt>
<trkpt lat="53.4922007" lon="18.0889125">
<ele>142</ele>
<time>2017-12-10T16:22:20Z</time>
</trkpt>
<trkpt lat="53.4916918" lon="18.0908555">
<ele>140</ele>
<time>2017-12-10T16:22:26Z</time>
</trkpt>
<trkpt lat="53.4911885" lon="18.0927660">
<ele>139</ele>
<time>2017-12-10T16:22:32Z</time>
</trkpt>
<trkpt lat="53.4907040" lon="18.0946527">
<ele>140</ele>
<time>2017-12-10T16:22:38Z</time>
</trkpt>
<trkpt lat="53.4902286" lon="18.0965072">
<ele>140</ele>
<time>2017-12-10T16:22:44Z</time>
</trkpt>
<trkpt lat="53.4898530" lon="18.0984416">
<ele>141</ele>
<time>2017-12-10T16:22:50Z</time>
</trkpt>
<trkpt lat="53.4895421" lon="18.1004316">
<ele>140</ele>
<time>2017-12-10T16:22:56Z</time>
</trkpt>
<trkpt lat="53.4892137" lon="18.1024444">
<ele>141</ele>
<time>2017-12-10T16:23:02Z</time>
</trkpt>
<trkpt lat="53.4888988" lon="18.1044380">
<ele>142</ele>
<time>2017-12-10T16:23:08Z</time>
</trkpt>
<trkpt lat="53.4885968" lon="18.1063491">
<ele>142</ele>
<time>2017-12-10T16:23:14Z</time>
</trkpt>
<trkpt lat="53.4883038" lon="18.1081643">
<ele>142</ele>
<time>2017-12-10T16:23:20Z</time>
</trkpt>
<trkpt lat="53.4880270" lon="18.1098574">
<ele>143</ele>
<time>2017-12-10T16:23:26Z</time>
</trkpt>
<trkpt lat="53.4877440" lon="18.1115713">
<ele>145</ele>
<time>2017-12-10T16:23:32Z</time>
</trkpt>
<trkpt lat="53.4874780" lon="18.1132840">
<ele>146</ele>
<time>2017-12-10T16:23:38Z</time>
</trkpt>
<trkpt lat="53.4872016" lon="18.1149760">
<ele>146</ele>
<time>2017-12-10T16:23:44Z</time>
</trkpt>
<trkpt lat="53.4869099" lon="18.1166725">
<ele>149</ele>
<time>2017-12-10T16:23:50Z</time>
</trkpt>
<trkpt lat="53.4866309" lon="18.1184294">
<ele>149</ele>
<time>2017-12-10T16:23:56Z</time>
</trkpt>
<trkpt lat="53.4863490" lon="18.1203121">
<ele>150</ele>
<time>2017-12-10T16:24:02Z</time>
</trkpt>
<trkpt lat="53.4860191" lon="18.1222600">
<ele>146</ele>
<time>2017-12-10T16:24:08Z</time>
</trkpt>
<trkpt lat="53.4857222" lon="18.1240185">
<ele>146</ele>
<time>2017-12-10T16:24:14Z</time>
</trkpt>
<trkpt lat="53.4854375" lon="18.1257484">
<ele>144</ele>
<time>2017-12-10T16:24:20Z</time>
</trkpt>
<trkpt lat="53.4849774" lon="18.1274252">
<ele>145</ele>
<time>2017-12-10T16:24:26Z</time>
</trkpt>
<trkpt lat="53.4843096" lon="18.1290329">
<ele>145</ele>
<time>2017-12-10T16:24:32Z</time>
</trkpt>
<trkpt lat="53.4836434" lon="18.1306829">
<ele>147</ele>
<time>2017-12-10T16:24:38Z</time>
</trkpt>
<trkpt lat="53.4829572" lon="18.1323733">
<ele>148</ele>
<time>2017-12-10T16:24:44Z</time>
</trkpt>
<trkpt lat="53.4822764" lon="18.1340880">
<ele>150</ele>
<time>2017-12-10T16:24:50Z</time>
</trkpt>
<trkpt lat="53.4816071" lon="18.1357824">
<ele>151</ele>
<time>2017-12-10T16:24:56Z</time>
</trkpt>
<trkpt lat="53.4809412" lon="18.1374789">
<ele>151</ele>
<time>2017-12-10T16:25:02Z</time>
</trkpt>
<trkpt lat="53.4802607" lon="18.1392139">
<ele>150</ele>
<time>2017-12-10T16:25:08Z</time>
</trkpt>
<trkpt lat="53.4795656" lon="18.1409834">
<ele>150</ele>
<time>2017-12-10T16:25:14Z</time>
</trkpt>
<trkpt lat="53.4788661" lon="18.1427693">
<ele>149</ele>
<time>2017-12-10T16:25:20Z</time>
</trkpt>
<trkpt lat="53.4781685" lon="18.1445518">
<ele>149</ele>
<time>2017-12-10T16:25:26Z</time>
</trkpt>
<trkpt lat="53.4774614" lon="18.1463275">
<ele>149</ele>
<time>2017-12-10T16:25:32Z</time>
</trkpt>
<trkpt lat="53.4767729" lon="18.1480425">
<ele>149</ele>
<time>2017-12-10T16:25:38Z</time>
</trkpt>
<trkpt lat="53.4762378" lon="18.1493742">
<ele>148</ele>
<time>2017-12-10T16:25:44Z</time>
</trkpt>
<trkpt lat="53.4757679" lon="18.1505562">
<ele>147</ele>
<time>2017-12-10T16:25:50Z</time>
</trkpt>
<trkpt lat="53.4752741" lon="18.1517673">
<ele>147</ele>
<time>2017-12-10T16:25:56Z</time>
</trkpt>
<trkpt lat="53.4747090" lon="18.1532049">
<ele>147</ele>
<time>2017-12-10T16:26:02Z</time>
</trkpt>
<trkpt lat="53.4740916" lon="18.1548047">
<ele>146</ele>
<time>2017-12-10T16:26:08Z</time>
</trkpt>
<trkpt lat="53.4733940" lon="18.1565263">
<ele>145</ele>
<time>2017-12-10T16:26:14Z</time>
</trkpt>
<trkpt lat="53.4726756" lon="18.1582213">
<ele>146</ele>
<time>2017-12-10T16:26:20Z</time>
</trkpt>
<trkpt lat="53.4719818" lon="18.1599008">
<ele>148</ele>
<time>2017-12-10T16:26:26Z</time>
</trkpt>
<trkpt lat="53.4713021" lon="18.1615876">
<ele>148</ele>
<time>2017-12-10T16:26:32Z</time>
</trkpt>
<trkpt lat="53.4705789" lon="18.1633205">
<ele>148</ele>
<time>2017-12-10T16:26:38Z</time>
</trkpt>
<trkpt lat="53.4698627" lon="18.1650257">
<ele>148</ele>
<time>2017-12-10T16:26:44Z</time>
</trkpt>
<trkpt lat="53.4691558" lon="18.1667344">
<ele>148</ele>
<time>2017-12-10T16:26:50Z</time>
</trkpt>
<trkpt lat="53.4684362" lon="18.1684837">
<ele>147</ele>
<time>2017-12-10T16:26:56Z</time>
</trkpt>
<trkpt lat="53.4677031" lon="18.1702624">
<ele>146</ele>
<time>2017-12-10T16:27:02Z</time>
</trkpt>
<trkpt lat="53.4669666" lon="18.1720336">
<ele>143</ele>
<time>2017-12-10T16:27:08Z</time>
</trkpt>
<trkpt lat="53.4662505" lon="18.1737815">
<ele>142</ele>
<time>2017-12-10T16:27:14Z</time>
</trkpt>
<trkpt lat="53.4655139" lon="18.1755968">
<ele>137</ele>
<time>2017-12-10T16:27:20Z</time>
</trkpt>
<trkpt lat="53.4648166" lon="18.1773914">
<ele>142</ele>
<time>2017-12-10T16:27:26Z</time>
</trkpt>
<trkpt lat="53.4641262" lon="18.1790672">
<ele>143</ele>
<time>2017-12-10T16:27:32Z</time>
</trkpt>
<trkpt lat="53.4634331" lon="18.1808060">
<ele>142</ele>
<time>2017-12-10T16:27:38Z</time>
</trkpt>
<trkpt lat="53.4627132" lon="18.1825795">
<ele>142</ele>
<time>2017-12-10T16:27:44Z</time>
</trkpt>
<trkpt lat="53.4620266" lon="18.1842861">
<ele>142</ele>
<time>2017-12-10T16:27:50Z</time>
</trkpt>
<trkpt lat="53.4613608" lon="18.1859348">
<ele>141</ele>
<time>2017-12-10T16:27:56Z</time>
</trkpt>
<trkpt lat="53.4607056" lon="18.1875923">
<ele>140</ele>
<time>2017-12-10T16:28:02Z</time>
</trkpt>
<trkpt lat="53.4600344" lon="18.1892464">
<ele>140</ele>
<time>2017-12-10T16:28:08Z</time>
</trkpt>
<trkpt lat="53.4593731" lon="18.1908765">
<ele>140</ele>
<time>2017-12-10T16:28:14Z</time>
</trkpt>
<trkpt lat="53.4587378" lon="18.1924819">
<ele>142</ele>
<time>2017-12-10T16:28:20Z</time>
</trkpt>
<trkpt lat="53.4580879" lon="18.1941052">
<ele>142</ele>
<time>2017-12-10T16:28:26Z</time>
</trkpt>
<trkpt lat="53.4574121" lon="18.1957257">
<ele>141</ele>
<time>2017-12-10T16:28:32Z</time>
</trkpt>
<trkpt lat="53.4567489" lon="18.1973482">
<ele>140</ele>
<time>2017-12-10T16:28:38Z</time>
</trkpt>
<trkpt lat="53.4561206" lon="18.1988926">
<ele>139</ele>
<time>2017-12-10T16:28:44Z</time>
</trkpt>
<trkpt lat="53.4555332" lon="18.2003330">
<ele>139</ele>
<time>2017-12-10T16:28:50Z</time>
</trkpt>
<trkpt lat="53.4549750" lon="18.2017106">
<ele>139</ele>
<time>2017-12-10T16:28:56Z</time>
</trkpt>
<trkpt lat="53.4544540" lon="18.2031477">
<ele>138</ele>
<time>2017-12-10T16:29:02Z</time>
</trkpt>
<trkpt lat="53.4541552" lon="18.2048201">
<ele>139</ele>
<time>2017-12-10T16:29:08Z</time>
</trkpt>
<trkpt lat="53.4540175" lon="18.2066058">
<ele>139</ele>
<time>2017-12-10T16:29:14Z</time>
</trkpt>
<trkpt lat="53.4538639" lon="18.2084188">
<ele>141</ele>
<time>2017-12-10T16:29:20Z</time>
</trkpt>
<trkpt lat="53.4536921" lon="18.2102366">
<ele>139</ele>
<time>2017-12-10T16:29:26Z</time>
</trkpt>
<trkpt lat="53.4535152" lon="18.2121141">
<ele>138</ele>
<time>2017-12-10T16:29:32Z</time>
</trkpt>
<trkpt lat="53.4533483" lon="18.2139964">
<ele>138</ele>
<time>2017-12-10T16:29:38Z</time>
</trkpt>
<trkpt lat="53.4531879" lon="18.2158423">
<ele>140</ele>
<time>2017-12-10T16:29:44Z</time>
</trkpt>
<trkpt lat="53.4530218" lon="18.2176916">
<ele>141</ele>
<time>2017-12-10T16:29:50Z</time>
</trkpt>
<trkpt lat="53.4528586" lon="18.2195362">
<ele>140</ele>
<time>2017-12-10T16:29:56Z</time>
</trkpt>
<trkpt lat="53.4526594" lon="18.2213312">
<ele>140</ele>
<time>2017-12-10T16:30:02Z</time>
</trkpt>
<trkpt lat="53.4523738" lon="18.2230945">
<ele>140</ele>
<time>2017-12-10T16:30:08Z</time>
</trkpt>
<trkpt lat="53.4520838" lon="18.2249135">
<ele>141</ele>
<time>2017-12-10T16:30:14Z</time>
</trkpt>
<trkpt lat="53.4518223" lon="18.2266116">
<ele>141</ele>
<time>2017-12-10T16:30:20Z</time>
</trkpt>
<trkpt lat="53.4515875" lon="18.2281260">
<ele>140</ele>
<time>2017-12-10T16:30:26Z</time>
</trkpt>
<trkpt lat="53.4513499" lon="18.2296055">
<ele>140</ele>
<time>2017-12-10T16:30:32Z</time>
</trkpt>
<trkpt lat="53.4510961" lon="18.2311115">
<ele>141</ele>
<time>2017-12-10T16:30:38Z</time>
</trkpt>
<trkpt lat="53.4508647" lon="18.2326275">
<ele>140</ele>
<time>2017-12-10T16:30:44Z</time>
</trkpt>
<trkpt lat="53.4506078" lon="18.2342710">
<ele>139</ele>
<time>2017-12-10T16:30:50Z</time>
</trkpt>
<trkpt lat="53.4503316" lon="18.2359744">
<ele>139</ele>
<time>2017-12-10T16:30:56Z</time>
</trkpt>
<trkpt lat="53.4500646" lon="18.2376910">
<ele>139</ele>
<time>2017-12-10T16:31:02Z</time>
</trkpt>
<trkpt lat="53.4498029" lon="18.2394389">
<ele>138</ele>
<time>2017-12-10T16:31:08Z</time>
</trkpt>
<trkpt lat="53.4495307" lon="18.2411684">
<ele>139</ele>
<time>2017-12-10T16:31:14Z</time>
</trkpt>
<trkpt lat="53.4492709" lon="18.2428009">
<ele>141</ele>
<time>2017-12-10T16:31:20Z</time>
</trkpt>
<trkpt lat="53.4490447" lon="18.2442245">
<ele>140</ele>
<time>2017-12-10T16:31:26Z</time>
</trkpt>
<trkpt lat="53.4488328" lon="18.2455903">
<ele>140</ele>
<time>2017-12-10T16:31:32Z</time>
</trkpt>
<trkpt lat="53.4485991" lon="18.2470918">
<ele>140</ele>
<time>2017-12-10T16:31:38Z</time>
</trkpt>
<trkpt lat="53.4483365" lon="18.2487299">
<ele>138</ele>
<time>2017-12-10T16:31:44Z</time>
</trkpt>
<trkpt lat="53.4480727" lon="18.2504309">
<ele>136</ele>
<time>2017-12-10T16:31:50Z</time>
</trkpt>
<trkpt lat="53.4477990" lon="18.2522029">
<ele>135</ele>
<time>2017-12-10T16:31:56Z</time>
</trkpt>
<trkpt lat="53.4475224" lon="18.2540206">
<ele>134</ele>
<time>2017-12-10T16:32:02Z</time>
</trkpt>
<trkpt lat="53.4473171" lon="18.2558735">
<ele>133</ele>
<time>2017-12-10T16:32:08Z</time>
</trkpt>
<trkpt lat="53.4471329" lon="18.2577474">
<ele>132</ele>
<time>2017-12-10T16:32:14Z</time>
</trkpt>
<trkpt lat="53.4469503" lon="18.2595947">
<ele>131</ele>
<time>2017-12-10T16:32:20Z</time>
</trkpt>
<trkpt lat="53.4467152" lon="18.2613467">
<ele>132</ele>
<time>2017-12-10T16:32:26Z</time>
</trkpt>
<trkpt lat="53.4462276" lon="18.2629445">
<ele>133</ele>
<time>2017-12-10T16:32:32Z</time>
</trkpt>
<trkpt lat="53.4456928" lon="18.2645985">
<ele>134</ele>
<time>2017-12-10T16:32:38Z</time>
</trkpt>
<trkpt lat="53.4451942" lon="18.2662509">
<ele>135</ele>
<time>2017-12-10T16:32:44Z</time>
</trkpt>
<trkpt lat="53.4446886" lon="18.2678942">
<ele>136</ele>
<time>2017-12-10T16:32:50Z</time>
</trkpt>
<trkpt lat="53.4441837" lon="18.2695154">
<ele>136</ele>
<time>2017-12-10T16:32:56Z</time>
</trkpt>
<trkpt lat="53.4436888" lon="18.2711482">
<ele>135</ele>
<time>2017-12-10T16:33:02Z</time>
</trkpt>
<trkpt lat="53.4431760" lon="18.2727294">
<ele>135</ele>
<time>2017-12-10T16:33:08Z</time>
</trkpt>
<trkpt lat="53.4426880" lon="18.2742438">
<ele>135</ele>
<time>2017-12-10T16:33:14Z</time>
</trkpt>
<trkpt lat="53.4421950" lon="18.2757532">
<ele>134</ele>
<time>2017-12-10T16:33:20Z</time>
</trkpt>
<trkpt lat="53.4417202" lon="18.2772129">
<ele>136</ele>
<time>2017-12-10T16:33:26Z</time>
</trkpt>
<trkpt lat="53.4412744" lon="18.2785691">
<ele>137</ele>
<time>2017-12-10T16:33:32Z</time>
</trkpt>
<trkpt lat="53.4408524" lon="18.2798728">
<ele>138</ele>
<time>2017-12-10T16:33:38Z</time>
</trkpt>
<trkpt lat="53.4404187" lon="18.2812241">
<ele>137</ele>
<time>2017-12-10T16:33:44Z</time>
</trkpt>
<trkpt lat="53.4399776" lon="18.2826174">
<ele>137</ele>
<time>2017-12-10T16:33:50Z</time>
</trkpt>
<trkpt lat="53.4395259" lon="18.2840207">
<ele>136</ele>
<time>2017-12-10T16:33:56Z</time>
</trkpt>
<trkpt lat="53.4390584" lon="18.2854597">
<ele>134</ele>
<time>2017-12-10T16:34:02Z</time>
</trkpt>
<trkpt lat="53.4385838" lon="18.2869325">
<ele>133</ele>
<time>2017-12-10T16:34:08Z</time>
</trkpt>
<trkpt lat="53.4381244" lon="18.2884155">
<ele>132</ele>
<time>2017-12-10T16:34:14Z</time>
</trkpt>
<trkpt lat="53.4376435" lon="18.2899042">
<ele>131</ele>
<time>2017-12-10T16:34:20Z</time>
</trkpt>
<trkpt lat="53.4371692" lon="18.2913936">
<ele>128</ele>
<time>2017-12-10T16:34:26Z</time>
</trkpt>
<trkpt lat="53.4366870" lon="18.2928806">
<ele>126</ele>
<time>2017-12-10T16:34:32Z</time>
</trkpt>
<trkpt lat="53.4361975" lon="18.2943753">
<ele>124</ele>
<time>2017-12-10T16:34:38Z</time>
</trkpt>
<trkpt lat="53.4357128" lon="18.2958945">
<ele>122</ele>
<time>2017-12-10T16:34:44Z</time>
</trkpt>
<trkpt lat="53.4352138" lon="18.2974065">
<ele>122</ele>
<time>2017-12-10T16:34:50Z</time>
</trkpt>
<trkpt lat="53.4347359" lon="18.2988820">
<ele>122</ele>
<time>2017-12-10T16:34:56Z</time>
</trkpt>
<trkpt lat="53.4342837" lon="18.3002849">
<ele>120</ele>
<time>2017-12-10T16:35:02Z</time>
</trkpt>
<trkpt lat="53.4338330" lon="18.3016972">
<ele>119</ele>
<time>2017-12-10T16:35:08Z</time>
</trkpt>
<trkpt lat="53.4333890" lon="18.3030897">
<ele>120</ele>
<time>2017-12-10T16:35:14Z</time>
</trkpt>
<trkpt lat="53.4329489" lon="18.3044479">
<ele>121</ele>
<time>2017-12-10T16:35:20Z</time>
</trkpt>
<trkpt lat="53.4325131" lon="18.3058143">
<ele>121</ele>
<time>2017-12-10T16:35:26Z</time>
</trkpt>
<trkpt lat="53.4320692" lon="18.3071645">
<ele>122</ele>
<time>2017-12-10T16:35:32Z</time>
</trkpt>
<trkpt lat="53.4316571" lon="18.3084370">
<ele>123</ele>
<time>2017-12-10T16:35:38Z</time>
</trkpt>
<trkpt lat="53.4312510" lon="18.3097125">
<ele>122</ele>
<time>2017-12-10T16:35:44Z</time>
</trkpt>
<trkpt lat="53.4308281" lon="18.3110217">
<ele>122</ele>
<time>2017-12-10T16:35:50Z</time>
</trkpt>
<trkpt lat="53.4303798" lon="18.3123973">
<ele>121</ele>
<time>2017-12-10T16:35:56Z</time>
</trkpt>
<trkpt lat="53.4299208" lon="18.3138335">
<ele>120</ele>
<time>2017-12-10T16:36:02Z</time>
</trkpt>
<trkpt lat="53.4294377" lon="18.3153485">
<ele>117</ele>
<time>2017-12-10T16:36:08Z</time>
</trkpt>
<trkpt lat="53.4289188" lon="18.3169839">
<ele>114</ele>
<time>2017-12-10T16:36:14Z</time>
</trkpt>
<trkpt lat="53.4283693" lon="18.3186593">
<ele>113</ele>
<time>2017-12-10T16:36:20Z</time>
</trkpt>
<trkpt lat="53.4278387" lon="18.3203138">
<ele>117</ele>
<time>2017-12-10T16:36:26Z</time>
</trkpt>
<trkpt lat="53.4273215" lon="18.3218846">
<ele>119</ele>
<time>2017-12-10T16:36:32Z</time>
</trkpt>
<trkpt lat="53.4268385" lon="18.3234029">
<ele>119</ele>
<time>2017-12-10T16:36:38Z</time>
</trkpt>
<trkpt lat="53.4263460" lon="18.3248825">
<ele>120</ele>
<time>2017-12-10T16:36:44Z</time>
</trkpt>
<trkpt lat="53.4258652" lon="18.3263427">
<ele>121</ele>
<time>2017-12-10T16:36:50Z</time>
</trkpt>
<trkpt lat="53.4254214" lon="18.3277409">
<ele>121</ele>
<time>2017-12-10T16:36:56Z</time>
</trkpt>
<trkpt lat="53.4249774" lon="18.3291601">
<ele>121</ele>
<time>2017-12-10T16:37:02Z</time>
</trkpt>
<trkpt lat="53.4245190" lon="18.3306001">
<ele>121</ele>
<time>2017-12-10T16:37:08Z</time>
</trkpt>
<trkpt lat="53.4240485" lon="18.3320946">
<ele>121</ele>
<time>2017-12-10T16:37:14Z</time>
</trkpt>
<trkpt lat="53.4235484" lon="18.3336276">
<ele>121</ele>
<time>2017-12-10T16:37:20Z</time>
</trkpt>
<trkpt lat="53.4230491" lon="18.3351706">
<ele>122</ele>
<time>2017-12-10T16:37:26Z</time>
</trkpt>
<trkpt lat="53.4225738" lon="18.3366257">
<ele>123</ele>
<time>2017-12-10T16:37:32Z</time>
</trkpt>
<trkpt lat="53.4221150" lon="18.3380221">
<ele>123</ele>
<time>2017-12-10T16:37:38Z</time>
</trkpt>
<trkpt lat="53.4216773" lon="18.3393677">
<ele>122</ele>
<time>2017-12-10T16:37:44Z</time>
</trkpt>
<trkpt lat="53.4212343" lon="18.3407270">
<ele>122</ele>
<time>2017-12-10T16:37:50Z</time>
</trkpt>
<trkpt lat="53.4208030" lon="18.3420802">
<ele>123</ele>
<time>2017-12-10T16:37:56Z</time>
</trkpt>
<trkpt lat="53.4203673" lon="18.3434087">
<ele>122</ele>
<time>2017-12-10T16:38:02Z</time>
</trkpt>
<trkpt lat="53.4199636" lon="18.3446834">
<ele>121</ele>
<time>2017-12-10T16:38:08Z</time>
</trkpt>
<trkpt lat="53.4195709" lon="18.3459297">
<ele>120</ele>
<time>2017-12-10T16:38:14Z</time>
</trkpt>
<trkpt lat="53.4191896" lon="18.3472304">
<ele>120</ele>
<time>2017-12-10T16:38:20Z</time>
</trkpt>
<trkpt lat="53.4188145" lon="18.3486105">
<ele>117</ele>
<time>2017-12-10T16:38:26Z</time>
</trkpt>
<trkpt lat="53.4185116" lon="18.3500324">
<ele>117</ele>
<time>2017-12-10T16:38:32Z</time>
</trkpt>
<trkpt lat="53.4182776" lon="18.3514129">
<ele>116</ele>
<time>2017-12-10T16:38:38Z</time>
</trkpt>
<trkpt lat="53.4180461" lon="18.3528682">
<ele>116</ele>
<time>2017-12-10T16:38:44Z</time>
</trkpt>
<trkpt lat="53.4178030" lon="18.3543512">
<ele>114</ele>
<time>2017-12-10T16:38:50Z</time>
</trkpt>
<trkpt lat="53.4175496" lon="18.3557780">
<ele>114</ele>
<time>2017-12-10T16:38:56Z</time>
</trkpt>
<trkpt lat="53.4171875" lon="18.3571532">
<ele>113</ele>
<time>2017-12-10T16:39:02Z</time>
</trkpt>
<trkpt lat="53.4167130" lon="18.3584467">
<ele>112</ele>
<time>2017-12-10T16:39:08Z</time>
</trkpt>
<trkpt lat="53.4161378" lon="18.3596885">
<ele>109</ele>
<time>2017-12-10T16:39:14Z</time>
</trkpt>
<trkpt lat="53.4155401" lon="18.3608764">
<ele>108</ele>
<time>2017-12-10T16:39:20Z</time>
</trkpt>
<trkpt lat="53.4149612" lon="18.3620719">
<ele>106</ele>
<time>2017-12-10T16:39:26Z</time>
</trkpt>
<trkpt lat="53.4144658" lon="18.3633529">
<ele>104</ele>
<time>2017-12-10T16:39:32Z</time>
</trkpt>
<trkpt lat="53.4140653" lon="18.3647754">
<ele>102</ele>
<time>2017-12-10T16:39:38Z</time>
</trkpt>
<trkpt lat="53.4137729" lon="18.3662675">
<ele>101</ele>
<time>2017-12-10T16:39:44Z</time>
</trkpt>
<trkpt lat="53.4134925" lon="18.3677989">
<ele>99</ele>
<time>2017-12-10T16:39:50Z</time>
</trkpt>
<trkpt lat="53.4131805" lon="18.3693290">
<ele>97</ele>
<time>2017-12-10T16:39:56Z</time>
</trkpt>
<trkpt lat="53.4127580" lon="18.3707557">
<ele>95</ele>
<time>2017-12-10T16:40:02Z</time>
</trkpt>
<trkpt lat="53.4122435" lon="18.3720285">
<ele>93</ele>
<time>2017-12-10T16:40:08Z</time>
</trkpt>
<trkpt lat="53.4116481" lon="18.3731565">
<ele>90</ele>
<time>2017-12-10T16:40:14Z</time>
</trkpt>
<trkpt lat="53.4110588" lon="18.3742198">
<ele>88</ele>
<time>2017-12-10T16:40:20Z</time>
</trkpt>
<trkpt lat="53.4104760" lon="18.3752697">
<ele>86</ele>
<time>2017-12-10T16:40:26Z</time>
</trkpt>
<trkpt lat="53.4099113" lon="18.3763599">
<ele>83</ele>
<time>2017-12-10T16:40:32Z</time>
</trkpt>
<trkpt lat="53.4093861" lon="18.3775858">
<ele>81</ele>
<time>2017-12-10T16:40:38Z</time>
</trkpt>
<trkpt lat="53.4089412" lon="18.3789686">
<ele>80</ele>
<time>2017-12-10T16:40:44Z</time>
</trkpt>
<trkpt lat="53.4085782" lon="18.3804090">
<ele>80</ele>
<time>2017-12-10T16:40:50Z</time>
</trkpt>
<trkpt lat="53.4082261" lon="18.3818125">
<ele>81</ele>
<time>2017-12-10T16:40:56Z</time>
</trkpt>
<trkpt lat="53.4078824" lon="18.3831977">
<ele>81</ele>
<time>2017-12-10T16:41:02Z</time>
</trkpt>
<trkpt lat="53.4075376" lon="18.3845809">
<ele>80</ele>
<time>2017-12-10T16:41:08Z</time>
</trkpt>
<trkpt lat="53.4071913" lon="18.3860009">
<ele>78</ele>
<time>2017-12-10T16:41:14Z</time>
</trkpt>
<trkpt lat="53.4068377" lon="18.3874529">
<ele>78</ele>
<time>2017-12-10T16:41:20Z</time>
</trkpt>
<trkpt lat="53.4064769" lon="18.3888862">
<ele>76</ele>
<time>2017-12-10T16:41:26Z</time>
</trkpt>
<trkpt lat="53.4060384" lon="18.3902248">
<ele>75</ele>
<time>2017-12-10T16:41:32Z</time>
</trkpt>
<trkpt lat="53.4054883" lon="18.3914373">
<ele>74</ele>
<time>2017-12-10T16:41:38Z</time>
</trkpt>
<trkpt lat="53.4048728" lon="18.3925583">
<ele>74</ele>
<time>2017-12-10T16:41:44Z</time>
</trkpt>
<trkpt lat="53.4043006" lon="18.3936984">
<ele>73</ele>
<time>2017-12-10T16:41:50Z</time>
</trkpt>
<trkpt lat="53.4037667" lon="18.3948197">
<ele>72</ele>
<time>2017-12-10T16:41:56Z</time>
</trkpt>
<trkpt lat="53.4032187" lon="18.3958887">
<ele>71</ele>
<time>2017-12-10T16:42:02Z</time>
</trkpt>
<trkpt lat="53.4026077" lon="18.3969908">
<ele>70</ele>
<time>2017-12-10T16:42:08Z</time>
</trkpt>
<trkpt lat="53.4019184" lon="18.3979746">
<ele>70</ele>
<time>2017-12-10T16:42:14Z</time>
</trkpt>
<trkpt lat="53.4011596" lon="18.3988067">
<ele>70</ele>
<time>2017-12-10T16:42:20Z</time>
</trkpt>
<trkpt lat="53.4003306" lon="18.3995203">
<ele>69</ele>
<time>2017-12-10T16:42:26Z</time>
</trkpt>
<trkpt lat="53.3994284" lon="18.4000846">
<ele>68</ele>
<time>2017-12-10T16:42:32Z</time>
</trkpt>
<trkpt lat="53.3984900" lon="18.4005657">
<ele>67</ele>
<time>2017-12-10T16:42:38Z</time>
</trkpt>
<trkpt lat="53.3975460" lon="18.4010656">
<ele>65</ele>
<time>2017-12-10T16:42:44Z</time>
</trkpt>
<trkpt lat="53.3965838" lon="18.4015763">
<ele>62</ele>
<time>2017-12-10T16:42:50Z</time>
</trkpt>
<trkpt lat="53.3956146" lon="18.4020836">
<ele>59</ele>
<time>2017-12-10T16:42:56Z</time>
</trkpt>
<trkpt lat="53.3946426" lon="18.4026635">
<ele>56</ele>
<time>2017-12-10T16:43:02Z</time>
</trkpt>
<trkpt lat="53.3936768" lon="18.4033609">
<ele>54</ele>
<time>2017-12-10T16:43:08Z</time>
</trkpt>
<trkpt lat="53.3927396" lon="18.4041742">
<ele>53</ele>
<time>2017-12-10T16:43:14Z</time>
</trkpt>
<trkpt lat="53.3918544" lon="18.4050403">
<ele>54</ele>
<time>2017-12-10T16:43:20Z</time>
</trkpt>
<trkpt lat="53.3909775" lon="18.4059491">
<ele>55</ele>
<time>2017-12-10T16:43:26Z</time>
</trkpt>
<trkpt lat="53.3900940" lon="18.4068332">
<ele>56</ele>
<time>2017-12-10T16:43:32Z</time>
</trkpt>
<trkpt lat="53.3892111" lon="18.4077076">
<ele>56</ele>
<time>2017-12-10T16:43:38Z</time>
</trkpt>
<trkpt lat="53.3883198" lon="18.4086102">
<ele>56</ele>
<time>2017-12-10T16:43:44Z</time>
</trkpt>
<trkpt lat="53.3874204" lon="18.4095514">
<ele>57</ele>
<time>2017-12-10T16:43:50Z</time>
</trkpt>
<trkpt lat="53.3865240" lon="18.4104822">
<ele>56</ele>
<time>2017-12-10T16:43:56Z</time>
</trkpt>
<trkpt lat="53.3856308" lon="18.4114032">
<ele>56</ele>
<time>2017-12-10T16:44:02Z</time>
</trkpt>
<trkpt lat="53.3847339" lon="18.4123465">
<ele>56</ele>
<time>2017-12-10T16:44:08Z</time>
</trkpt>
<trkpt lat="53.3838211" lon="18.4132900">
<ele>56</ele>
<time>2017-12-10T16:44:14Z</time>
</trkpt>
<trkpt lat="53.3829079" lon="18.4142402">
<ele>56</ele>
<time>2017-12-10T16:44:20Z</time>
</trkpt>
<trkpt lat="53.3819853" lon="18.4151948">
<ele>55</ele>
<time>2017-12-10T16:44:26Z</time>
</trkpt>
<trkpt lat="53.3810702" lon="18.4161308">
<ele>56</ele>
<time>2017-12-10T16:44:32Z</time>
</trkpt>
<trkpt lat="53.3801639" lon="18.4170530">
<ele>57</ele>
<time>2017-12-10T16:44:38Z</time>
</trkpt>
<trkpt lat="53.3792661" lon="18.4179915">
<ele>56</ele>
<time>2017-12-10T16:44:44Z</time>
</trkpt>
<trkpt lat="53.3783774" lon="18.4189143">
<ele>57</ele>
<time>2017-12-10T16:44:50Z</time>
</trkpt>
<trkpt lat="53.3775191" lon="18.4197951">
<ele>57</ele>
<time>2017-12-10T16:44:56Z</time>
</trkpt>
<trkpt lat="53.3766778" lon="18.4206698">
<ele>56</ele>
<time>2017-12-10T16:45:02Z</time>
</trkpt>
<trkpt lat="53.3758302" lon="18.4215548">
<ele>57</ele>
<time>2017-12-10T16:45:08Z</time>
</trkpt>
<trkpt lat="53.3749893" lon="18.4224410">
<ele>59</ele>
<time>2017-12-10T16:45:14Z</time>
</trkpt>
<trkpt lat="53.3741510" lon="18.4233076">
<ele>60</ele>
<time>2017-12-10T16:45:20Z</time>
</trkpt>
<trkpt lat="53.3733159" lon="18.4241700">
<ele>61</ele>
<time>2017-12-10T16:45:26Z</time>
</trkpt>
<trkpt lat="53.3724890" lon="18.4250358">
<ele>62</ele>
<time>2017-12-10T16:45:32Z</time>
</trkpt>
<trkpt lat="53.3716592" lon="18.4258875">
<ele>63</ele>
<time>2017-12-10T16:45:38Z</time>
</trkpt>
<trkpt lat="53.3708237" lon="18.4267440">
<ele>64</ele>
<time>2017-12-10T16:45:44Z</time>
</trkpt>
<trkpt lat="53.3699788" lon="18.4276261">
<ele>65</ele>
<time>2017-12-10T16:45:50Z</time>
</trkpt>
<trkpt lat="53.3691322" lon="18.4284920">
<ele>66</ele>
<time>2017-12-10T16:45:56Z</time>
</trkpt>
<trkpt lat="53.3682976" lon="18.4293491">
<ele>66</ele>
<time>2017-12-10T16:46:02Z</time>
</trkpt>
<trkpt lat="53.3674429" lon="18.4302324">
<ele>65</ele>
<time>2017-12-10T16:46:08Z</time>
</trkpt>
<trkpt lat="53.3665803" lon="18.4311229">
<ele>64</ele>
<time>2017-12-10T16:46:14Z</time>
</trkpt>
<trkpt lat="53.3657175" lon="18.4320176">
<ele>62</ele>
<time>2017-12-10T16:46:20Z</time>
</trkpt>
<trkpt lat="53.3648584" lon="18.4329067">
<ele>61</ele>
<time>2017-12-10T16:46:26Z</time>
</trkpt>
<trkpt lat="53.3639831" lon="18.4338106">
<ele>59</ele>
<time>2017-12-10T16:46:32Z</time>
</trkpt>
<trkpt lat="53.3630867" lon="18.4347284">
<ele>59</ele>
<time>2017-12-10T16:46:38Z</time>
</trkpt>
<trkpt lat="53.3622064" lon="18.4356340">
<ele>58</ele>
<time>2017-12-10T16:46:44Z</time>
</trkpt>
<trkpt lat="53.3613717" lon="18.4364965">
<ele>58</ele>
<time>2017-12-10T16:46:50Z</time>
</trkpt>
<trkpt lat="53.3605820" lon="18.4375674">
<ele>56</ele>
<time>2017-12-10T16:46:56Z</time>
</trkpt>
<trkpt lat="53.3598528" lon="18.4388365">
<ele>54</ele>
<time>2017-12-10T16:47:02Z</time>
</trkpt>
<trkpt lat="53.3590965" lon="18.4401138">
<ele>52</ele>
<time>2017-12-10T16:47:08Z</time>
</trkpt>
<trkpt lat="53.3583300" lon="18.4414070">
<ele>52</ele>
<time>2017-12-10T16:47:14Z</time>
</trkpt>
<trkpt lat="53.3575661" lon="18.4426928">
<ele>53</ele>
<time>2017-12-10T16:47:20Z</time>
</trkpt>
<trkpt lat="53.3568175" lon="18.4440150">
<ele>53</ele>
<time>2017-12-10T16:47:26Z</time>
</trkpt>
<trkpt lat="53.3560422" lon="18.4453243">
<ele>54</ele>
<time>2017-12-10T16:47:32Z</time>
</trkpt>
<trkpt lat="53.3552696" lon="18.4466288">
<ele>54</ele>
<time>2017-12-10T16:47:38Z</time>
</trkpt>
<trkpt lat="53.3545055" lon="18.4479057">
<ele>57</ele>
<time>2017-12-10T16:47:44Z</time>
</trkpt>
<trkpt lat="53.3538146" lon="18.4490612">
<ele>61</ele>
<time>2017-12-10T16:47:50Z</time>
</trkpt>
<trkpt lat="53.3532068" lon="18.4498720">
<ele>65</ele>
<time>2017-12-10T16:47:56Z</time>
</trkpt>
<trkpt lat="53.3527356" lon="18.4503801">
<ele>68</ele>
<time>2017-12-10T16:48:02Z</time>
</trkpt>
<trkpt lat="53.3524492" lon="18.4506425">
<ele>69</ele>
<time>2017-12-10T16:48:08Z</time>
</trkpt>
<trkpt lat="53.3523821" lon="18.4507035">
<ele>71</ele>
<time>2017-12-10T16:48:14Z</time>
</trkpt>
<trkpt lat="53.3523738" lon="18.4507112">
<ele>71</ele>
<time>2017-12-10T16:48:20Z</time>
</trkpt>
<trkpt lat="53.3521568" lon="18.4508679">
<ele>72</ele>
<time>2017-12-10T16:48:26Z</time>
</trkpt>
<trkpt lat="53.3518678" lon="18.4504585">
<ele>74</ele>
<time>2017-12-10T16:48:32Z</time>
</trkpt>
<trkpt lat="53.3509" lon="18.4483">
<ele>83</ele>
<time>2017-12-10T16:48:50Z</time>
</trkpt>
<trkpt lat="53.3505" lon="18.4476">
<ele>86</ele>
<time>2017-12-10T16:48:56Z</time>
</trkpt>
<trkpt lat="53.3502" lon="18.447">
<ele>89</ele>
<time>2017-12-10T16:49:02Z</time>
</trkpt>
<trkpt lat="53.35" lon="18.4464">
<ele>90</ele>
<time>2017-12-10T16:49:08Z</time>
</trkpt>
<trkpt lat="53.3497" lon="18.446">
<ele>92</ele>
<time>2017-12-10T16:49:14Z</time>
</trkpt>
<trkpt lat="53.3495" lon="18.4455">
<ele>93</ele>
<time>2017-12-10T16:49:20Z</time>
</trkpt>
<trkpt lat="53.3491313" lon="18.4449865">
<ele>94</ele>
<time>2017-12-10T16:49:26Z</time>
</trkpt>
<trkpt lat="53.3478" lon="18.4444">
<ele>93</ele>
<time>2017-12-10T16:49:44Z</time>
</trkpt>
<trkpt lat="53.3475" lon="18.4448">
<ele>90</ele>
<time>2017-12-10T16:49:50Z</time>
</trkpt>
<trkpt lat="53.3472" lon="18.4449">
<ele>84</ele>
<time>2017-12-10T16:49:56Z</time>
</trkpt>
<trkpt lat="53.347" lon="18.4443">
<ele>86</ele>
<time>2017-12-10T16:50:02Z</time>
</trkpt>
<trkpt lat="53.3471700" lon="18.4437719">
<ele>88</ele>
<time>2017-12-10T16:50:08Z</time>
</trkpt>
<trkpt lat="53.3473773" lon="18.4431693">
<ele>91</ele>
<time>2017-12-10T16:50:14Z</time>
</trkpt>
<trkpt lat="53.3476620" lon="18.4425874">
<ele>91</ele>
<time>2017-12-10T16:50:20Z</time>
</trkpt>
<trkpt lat="53.3479988" lon="18.4419568">
<ele>92</ele>
<time>2017-12-10T16:50:26Z</time>
</trkpt>
<trkpt lat="53.3489" lon="18.4394">
<ele>93</ele>
<time>2017-12-10T16:50:44Z</time>
</trkpt>
<trkpt lat="53.3491" lon="18.4385">
<ele>96</ele>
<time>2017-12-10T16:50:50Z</time>
</trkpt>
<trkpt lat="53.3493" lon="18.4377">
<ele>96</ele>
<time>2017-12-10T16:50:56Z</time>
</trkpt>
<trkpt lat="53.3495" lon="18.4369">
<ele>98</ele>
<time>2017-12-10T16:51:02Z</time>
</trkpt>
<trkpt lat="53.3495366" lon="18.4365570">
<ele>98</ele>
<time>2017-12-10T16:51:08Z</time>
</trkpt>
<trkpt lat="53.3492822" lon="18.4364439">
<ele>98</ele>
<time>2017-12-10T16:51:14Z</time>
</trkpt>
<trkpt lat="53.3490255" lon="18.4363104">
<ele>100</ele>
<time>2017-12-10T16:51:20Z</time>
</trkpt>
<trkpt lat="53.3489046" lon="18.4362535">
<ele>101</ele>
<time>2017-12-10T16:51:26Z</time>
</trkpt>
<trkpt lat="53.348" lon="18.4359">
<ele>98</ele>
<time>2017-12-10T16:51:44Z</time>
</trkpt>
<trkpt lat="53.3479" lon="18.4357">
<ele>97</ele>
<time>2017-12-10T16:51:50Z</time>
</trkpt>
<trkpt lat="53.3479" lon="18.4357">
<ele>97</ele>
<time>2017-12-10T16:51:56Z</time>
</trkpt>
<trkpt lat="53.3478857" lon="18.4357079">
<ele>97</ele>
<time>2017-12-10T16:52:02Z</time>
</trkpt>
<trkpt lat="53.3478857" lon="18.4357079">
<ele>97</ele>
<time>2017-12-10T16:52:08Z</time>
</trkpt>
<trkpt lat="53.3479" lon="18.4357">
<ele>97</ele>
<time>2017-12-10T16:52:26Z</time>
</trkpt>
<trkpt lat="53.3479" lon="18.4357">
<ele>97</ele>
<time>2017-12-10T16:52:32Z</time>
</trkpt>
<trkpt lat="53.3479" lon="18.4357">
<ele>97</ele>
<time>2017-12-10T16:52:38Z</time>
</trkpt>
<trkpt lat="53.3478857" lon="18.4357079">
<ele>97</ele>
<time>2017-12-10T16:52:44Z</time>
</trkpt>
<trkpt lat="53.3478857" lon="18.4357079">
<ele>97</ele>
<time>2017-12-10T16:52:50Z</time>
</trkpt>
<trkpt lat="53.3478857" lon="18.4357079">
<ele>97</ele>
<time>2017-12-10T16:52:56Z</time>
</trkpt>
<trkpt lat="53.3478857" lon="18.4357079">
<ele>97</ele>
<time>2017-12-10T16:53:02Z</time>
</trkpt>
<trkpt lat="53.3478857" lon="18.4357079">
<ele>97</ele>
<time>2017-12-10T16:53:08Z</time>
</trkpt>
<trkpt lat="53.3478931" lon="18.4357525">
<ele>99</ele>
<time>2017-12-10T16:53:14Z</time>
</trkpt>
<trkpt lat="53.3478901" lon="18.4357862">
<ele>103</ele>
<time>2017-12-10T16:53:20Z</time>
</trkpt>
<trkpt lat="53.3478901" lon="18.4357862">
<ele>103</ele>
<time>2017-12-10T16:53:26Z</time>
</trkpt>
<trkpt lat="53.3479193" lon="18.4358505">
<ele>103</ele>
<time>2017-12-10T16:53:32Z</time>
</trkpt>
<trkpt lat="53.3478831" lon="18.4359441">
<ele>100</ele>
<time>2017-12-10T16:53:38Z</time>
</trkpt>
<trkpt lat="53.3478549" lon="18.4359480">
<ele>99</ele>
<time>2017-12-10T16:53:44Z</time>
</trkpt>
<trkpt lat="53.3478549" lon="18.4359480">
<ele>99</ele>
<time>2017-12-10T16:53:50Z</time>
</trkpt>
<trkpt lat="53.3478491" lon="18.4359286">
<ele>98</ele>
<time>2017-12-10T16:53:56Z</time>
</trkpt>
<trkpt lat="53.3479363" lon="18.4359647">
<ele>99</ele>
<time>2017-12-10T16:54:02Z</time>
</trkpt>
<trkpt lat="53.3479519" lon="18.4360209">
<ele>100</ele>
<time>2017-12-10T16:54:08Z</time>
</trkpt>
<trkpt lat="53.3479397" lon="18.4360077">
<ele>100</ele>
<time>2017-12-10T16:54:14Z</time>
</trkpt>
<trkpt lat="53.3479397" lon="18.4360077">
<ele>100</ele>
<time>2017-12-10T16:54:20Z</time>
</trkpt>
<trkpt lat="53.3479397" lon="18.4360077">
<ele>100</ele>
<time>2017-12-10T16:54:26Z</time>
</trkpt>
<trkpt lat="53.3479397" lon="18.4360077">
<ele>100</ele>
<time>2017-12-10T16:54:32Z</time>
</trkpt>
<trkpt lat="53.3479397" lon="18.4360077">
<ele>100</ele>
<time>2017-12-10T16:54:38Z</time>
</trkpt>
<trkpt lat="53.3479397" lon="18.4360077">
<ele>100</ele>
<time>2017-12-10T16:54:44Z</time>
</trkpt>
<trkpt lat="53.3479397" lon="18.4360077">
<ele>100</ele>
<time>2017-12-10T16:54:50Z</time>
</trkpt>
<trkpt lat="" lon="">
<ele></ele>
<time>2017-12-10TZ</time>
</trkpt>
</trkseg>
</trk>
<wpt lat="" lon="">
	<name></name>
	<desc></desc>
	<cmt></cmt>
	<photoid></photoid>
	<type></type>
</wpt>
</gpx>
